[[{"header":{"parameterUnit":"m.s-1","parameterCategory":1,"la1":30.6,"la2":29.2853,"lo1":-89.7004,"lo2":-87.6739,"dx":0.0162,"dy":0.0183,"nx":112,"ny":82,"refTime":"2022-12-15T06:00:00:Z","depth":0,"parameterNumber":2,"parameterNumberName":"U-component_of_WINDS"},"data":[0.0,0.0,0.0,0.0,0.0,0.0,0.0,0.0,0.0,0.0,0.0,0.0,0.0,0.0,0.0,0.0,0.0,0.0,0.0,0.0,0.0,0.0,0.0,0.0,0.0,0.0,0.0,0.0,0.0,0.0,0.0,0.0,0.0,0.0,0.0,0.0,0.0,0.0,0.0,0.0,0.0,0.0,0.0,0.0,0.0,0.0,0.0,0.0,0.0,0.0,0.0,0.0,0.0,0.0,0.0,0.0,0.0,0.0,0.0,0.0,0.0,0.0,0.0,0.0,0.0,0.0,0.0,0.0,0.0,0.0,0.0,0.0,0.0,0.0,0.0,0.0,0.0,0.0,0.0,0.0,0.0,0.0,0.0,0.0,0.0,0.0,0.0,0.0,0.0,0.0,4.8868,5.2107,5.783,6.1467,6.1467,6.1467,5.8488,5.1498,0.0,0.0,0.0,0.0,0.0,0.0,0.0,0.0,0.0,0.0,0.0,0.0,0.0,0.0,0.0,0.0,0.0,0.0,0.0,0.0,0.0,0.0,0.0,0.0,0.0,0.0,0.0,0.0,0.0,0.0,0.0,0.0,0.0,0.0,0.0,0.0,0.0,0.0,0.0,0.0,0.0,0.0,0.0,0.0,0.0,0.0,0.0,0.0,0.0,0.0,0.0,0.0,0.0,0.0,0.0,0.0,0.0,0.0,0.0,0.0,0.0,0.0,0.0,0.0,0.0,0.0,0.0,0.0,0.0,0.0,0.0,0.0,0.0,0.0,0.0,0.0,0.0,0.0,0.0,0.0,0.0,0.0,0.0,0.0,0.0,0.0,0.0,0.0,0.0,0.0,0.0,0.0,0.0,0.0,0.0,0.0,0.0,0.0,0.0,0.0,0.0,0.0,0.0,0.0,5.2072,5.894,6.1211,6.2212,6.2212,6.2212,5.8964,5.1424,0.0,0.0,0.0,0.0,0.0,0.0,0.0,0.0,0.0,0.0,0.0,0.0,0.0,0.0,0.0,0.0,0.0,0.0,0.0,0.0,0.0,0.0,0.0,0.0,0.0,0.0,0.0,0.0,0.0,0.0,0.0,0.0,0.0,0.0,0.0,0.0,0.0,0.0,0.0,0.0,0.0,0.0,0.0,0.0,0.0,0.0,0.0,0.0,0.0,0.0,0.0,0.0,0.0,0.0,0.0,0.0,0.0,0.0,0.0,0.0,0.0,0.0,0.0,0.0,0.0,0.0,0.0,0.0,0.0,0.0,0.0,0.0,0.0,0.0,0.0,0.0,0.0,0.0,0.0,0.0,0.0,0.0,0.0,0.0,0.0,0.0,0.0,0.0,0.0,0.0,0.0,0.0,0.0,0.0,0.0,0.0,0.0,0.0,0.0,0.0,0.0,0.0,0.0,4.9351,5.4113,6.057,6.1941,6.2381,6.2381,6.2381,5.9487,5.2622,5.1057,0.0,0.0,0.0,0.0,0.0,0.0,0.0,0.0,0.0,0.0,0.0,0.0,0.0,0.0,0.0,0.0,0.0,0.0,0.0,0.0,0.0,0.0,0.0,0.0,0.0,0.0,0.0,0.0,0.0,0.0,0.0,0.0,0.0,0.0,0.0,0.0,0.0,0.0,0.0,0.0,0.0,0.0,0.0,0.0,0.0,0.0,0.0,0.0,0.0,0.0,0.0,0.0,0.0,0.0,0.0,0.0,0.0,0.0,0.0,0.0,0.0,0.0,0.0,0.0,0.0,0.0,0.0,0.0,0.0,0.0,0.0,0.0,0.0,0.0,0.0,0.0,0.0,0.0,0.0,0.0,0.0,0.0,0.0,0.0,0.0,0.0,0.0,0.0,0.0,0.0,0.0,0.0,0.0,0.0,0.0,0.0,0.0,0.0,0.0,0.0,0.0,0.0,5.3062,5.6478,6.1086,6.2042,6.2448,6.2651,6.2651,5.9967,5.3601,5.188,0.0,0.0,0.0,0.0,0.0,0.0,0.0,0.0,0.0,0.0,0.0,0.0,0.0,0.0,0.0,0.0,0.0,0.0,0.0,0.0,0.0,0.0,0.0,0.0,0.0,0.0,0.0,0.0,0.0,0.0,0.0,0.0,0.0,0.0,0.0,0.0,0.0,0.0,0.0,0.0,0.0,0.0,0.0,0.0,0.0,0.0,0.0,0.0,0.0,0.0,0.0,0.0,0.0,0.0,0.0,0.0,0.0,0.0,0.0,0.0,0.0,0.0,0.0,0.0,0.0,0.0,0.0,0.0,0.0,0.0,0.0,0.0,0.0,0.0,0.0,0.0,0.0,0.0,0.0,0.0,0.0,0.0,0.0,0.0,0.0,0.0,0.0,0.0,0.0,0.0,0.0,0.0,0.0,0.0,0.0,0.0,0.0,0.0,0.0,0.0,0.0,0.0,5.5758,5.9956,6.2099,6.2347,6.2685,6.3362,6.3429,6.0391,5.3448,5.2288,0.0,0.0,0.0,0.0,0.0,0.0,0.0,0.0,0.0,0.0,0.0,0.0,0.0,0.0,0.0,0.0,0.0,0.0,0.0,0.0,0.0,0.0,0.0,0.0,0.0,0.0,0.0,0.0,0.0,0.0,0.0,0.0,0.0,0.0,0.0,0.0,0.0,0.0,0.0,0.0,0.0,0.0,0.0,0.0,0.0,0.0,0.0,0.0,0.0,0.0,0.0,0.0,0.0,0.0,0.0,0.0,0.0,0.0,0.0,0.0,0.0,0.0,0.0,0.0,0.0,0.0,0.0,0.0,0.0,0.0,0.0,0.0,0.0,0.0,0.0,0.0,0.0,0.0,0.0,0.0,0.0,0.0,0.0,0.0,0.0,0.0,0.0,0.0,0.0,0.0,0.0,0.0,0.0,0.0,0.0,0.0,0.0,0.0,0.0,0.0,0.0,0.0,5.5412,5.9564,6.2144,6.2821,6.3193,6.3497,6.3531,6.1132,5.5522,0.0,0.0,0.0,0.0,0.0,0.0,0.0,0.0,0.0,0.0,0.0,0.0,0.0,0.0,0.0,0.0,0.0,0.0,0.0,0.0,0.0,0.0,0.0,0.0,0.0,0.0,0.0,0.0,0.0,0.0,0.0,0.0,0.0,0.0,0.0,0.0,0.0,0.0,0.0,0.0,0.0,0.0,0.0,0.0,0.0,0.0,0.0,0.0,0.0,0.0,0.0,0.0,0.0,0.0,0.0,0.0,0.0,0.0,0.0,0.0,0.0,0.0,0.0,0.0,0.0,0.0,0.0,0.0,0.0,0.0,0.0,0.0,0.0,0.0,0.0,0.0,0.0,0.0,0.0,0.0,0.0,0.0,0.0,0.0,0.0,0.0,0.0,0.0,0.0,0.0,0.0,0.0,0.0,0.0,0.0,0.0,0.0,0.0,0.0,0.0,0.0,0.0,5.0574,5.5813,6.0216,6.2482,6.3193,6.37,6.4174,6.4208,6.1984,5.6846,0.0,0.0,0.0,0.0,0.0,0.0,0.0,0.0,0.0,0.0,0.0,0.0,0.0,0.0,0.0,0.0,0.0,0.0,0.0,0.0,0.0,0.0,0.0,0.0,0.0,0.0,0.0,0.0,0.0,0.0,0.0,0.0,0.0,0.0,0.0,0.0,0.0,0.0,0.0,0.0,0.0,0.0,0.0,0.0,0.0,0.0,0.0,0.0,0.0,0.0,0.0,0.0,0.0,0.0,0.0,0.0,0.0,0.0,0.0,0.0,0.0,0.0,0.0,0.0,0.0,0.0,0.0,0.0,0.0,0.0,0.0,0.0,0.0,0.0,0.0,0.0,0.0,0.0,0.0,0.0,0.0,0.0,0.0,0.0,0.0,0.0,0.0,0.0,0.0,0.0,0.0,0.0,0.0,0.0,0.0,0.0,0.0,0.0,0.0,0.0,0.0,0.0,5.093,5.7686,6.2685,6.3429,6.3531,6.414,6.5561,6.5696,6.3107,0.0,0.0,0.0,0.0,0.0,0.0,0.0,0.0,0.0,0.0,0.0,0.0,0.0,0.0,0.0,0.0,0.0,0.0,0.0,0.0,0.0,0.0,0.0,0.0,0.0,0.0,0.0,0.0,0.0,0.0,0.0,0.0,0.0,0.0,0.0,0.0,0.0,0.0,0.0,0.0,0.0,0.0,0.0,0.0,0.0,0.0,0.0,0.0,0.0,0.0,0.0,0.0,0.0,0.0,0.0,0.0,0.0,0.0,0.0,0.0,0.0,0.0,0.0,0.0,0.0,0.0,0.0,0.0,0.0,0.0,0.0,0.0,0.0,0.0,0.0,0.0,0.0,0.0,0.0,0.0,0.0,0.0,0.0,0.0,0.0,0.0,0.0,0.0,0.0,0.0,0.0,0.0,0.0,0.0,0.0,0.0,0.0,0.0,0.0,0.0,0.0,0.0,0.0,5.1468,5.8374,6.326,6.3497,6.4444,6.5222,6.5662,6.5696,6.3789,5.9295,0.0,0.0,0.0,0.0,0.0,0.0,0.0,0.0,0.0,0.0,0.0,0.0,0.0,0.0,0.0,0.0,0.0,0.0,0.0,0.0,0.0,0.0,0.0,0.0,0.0,0.0,0.0,0.0,0.0,0.0,0.0,0.0,0.0,0.0,0.0,0.0,0.0,0.0,0.0,0.0,0.0,0.0,0.0,0.0,0.0,0.0,0.0,0.0,0.0,0.0,0.0,0.0,0.0,0.0,0.0,0.0,0.0,0.0,0.0,0.0,0.0,0.0,0.0,0.0,0.0,0.0,0.0,0.0,0.0,0.0,0.0,0.0,0.0,0.0,0.0,0.0,0.0,0.0,0.0,0.0,0.0,0.0,0.0,0.0,0.0,0.0,0.0,0.0,0.0,0.0,0.0,0.0,0.0,0.0,0.0,0.0,0.0,0.0,0.0,0.0,0.0,0.0,5.1791,5.8707,6.3632,6.3903,6.5256,6.6237,6.6542,6.6576,6.5121,6.167,0.0,0.0,0.0,0.0,0.0,0.0,0.0,0.0,0.0,0.0,0.0,0.0,0.0,0.0,0.0,0.0,0.0,0.0,0.0,0.0,0.0,0.0,0.0,0.0,0.0,0.0,0.0,0.0,0.0,0.0,0.0,0.0,0.0,0.0,0.0,0.0,0.0,0.0,0.0,0.0,0.0,0.0,0.0,0.0,0.0,0.0,0.0,0.0,0.0,0.0,0.0,0.0,0.0,0.0,0.0,0.0,0.0,0.0,0.0,0.0,0.0,0.0,0.0,0.0,0.0,0.0,0.0,0.0,0.0,0.0,0.0,0.0,0.0,0.0,0.0,0.0,0.0,0.0,0.0,0.0,0.0,0.0,0.0,0.0,0.0,0.0,0.0,0.0,0.0,0.0,0.0,0.0,0.0,0.0,0.0,0.0,0.0,0.0,0.0,0.0,0.0,0.0,5.2017,5.884,6.3937,6.4715,6.6068,6.7218,6.7963,6.7996,6.6779,6.3903,0.0,0.0,0.0,0.0,0.0,0.0,0.0,0.0,0.0,0.0,0.0,0.0,0.0,0.0,0.0,0.0,0.0,0.0,0.0,0.0,0.0,0.0,0.0,0.0,0.0,0.0,0.0,0.0,0.0,0.0,0.0,0.0,0.0,0.0,0.0,0.0,0.0,0.0,0.0,0.0,0.0,0.0,0.0,0.0,0.0,0.0,0.0,0.0,0.0,0.0,0.0,0.0,0.0,0.0,0.0,0.0,0.0,0.0,0.0,0.0,4.7519,4.5835,0.0,0.0,0.0,0.0,0.0,0.0,0.0,0.0,0.0,0.0,0.0,0.0,0.0,0.0,0.0,0.0,0.0,0.0,0.0,0.0,0.0,0.0,0.0,0.0,0.0,0.0,0.0,0.0,0.0,0.0,0.0,0.0,0.0,0.0,0.0,0.0,0.0,0.0,0.0,0.0,5.3405,5.9871,6.4884,6.6203,6.7151,6.7996,6.8774,6.8842,6.7793,6.5358,6.3396,0.0,0.0,0.0,0.0,0.0,0.0,0.0,0.0,0.0,0.0,0.0,0.0,0.0,0.0,0.0,0.0,0.0,0.0,0.0,0.0,0.0,0.0,0.0,0.0,0.0,0.0,0.0,0.0,0.0,0.0,0.0,0.0,0.0,0.0,0.0,0.0,0.0,0.0,0.0,0.0,0.0,0.0,0.0,0.0,0.0,0.0,0.0,0.0,0.0,0.0,0.0,0.0,0.0,0.0,0.0,0.0,0.0,0.0,0.0,5.215,5.0354,0.0,0.0,0.0,0.0,0.0,0.0,0.0,0.0,0.0,0.0,0.0,0.0,0.0,0.0,0.0,0.0,0.0,0.0,0.0,0.0,0.0,0.0,0.0,0.0,0.0,0.0,0.0,0.0,0.0,0.0,0.0,0.0,0.0,0.0,0.0,0.0,0.0,0.0,0.0,0.0,5.4522,6.1079,6.5831,6.6237,6.7895,6.9147,6.9586,6.962,6.9113,6.7929,6.5459,0.0,0.0,0.0,0.0,0.0,0.0,0.0,0.0,0.0,0.0,0.0,0.0,0.0,0.0,0.0,0.0,0.0,0.0,0.0,0.0,0.0,0.0,0.0,0.0,0.0,0.0,0.0,0.0,0.0,0.0,0.0,0.0,0.0,0.0,0.0,0.0,0.0,0.0,0.0,0.0,0.0,0.0,0.0,0.0,0.0,0.0,0.0,0.0,0.0,0.0,0.0,0.0,0.0,5.6176,5.7364,5.9281,5.9281,6.0015,6.1031,5.7024,5.5812,5.6405,5.353,0.0,0.0,0.0,0.0,0.0,0.0,0.0,0.0,0.0,0.0,0.0,0.0,0.0,0.0,0.0,0.0,0.0,0.0,0.0,0.0,0.0,0.0,5.345,5.4126,5.5649,5.5987,5.2266,0.0,0.0,0.0,0.0,0.0,0.0,0.0,0.0,0.0,0.0,0.0,5.5842,6.234,6.6643,6.6136,6.8538,7.0297,7.0534,7.0567,7.0635,7.077,6.776,6.5459,0.0,0.0,0.0,0.0,0.0,0.0,0.0,0.0,0.0,0.0,0.0,0.0,0.0,0.0,0.0,0.0,0.0,0.0,0.0,0.0,0.0,0.0,0.0,0.0,0.0,0.0,0.0,0.0,0.0,0.0,0.0,0.0,4.9991,4.7522,0.0,0.0,0.0,0.0,0.0,0.0,0.0,0.0,0.0,0.0,0.0,0.0,0.0,6.0433,5.8055,5.8848,5.9725,6.0689,6.2155,6.3379,6.4347,6.4347,6.4457,6.4552,6.3166,0.0,5.9688,5.8042,0.0,0.0,0.0,0.0,0.0,0.0,0.0,0.0,0.0,0.0,0.0,0.0,0.0,0.0,0.0,0.0,0.0,0.0,0.0,0.0,0.0,0.0,5.7171,5.7273,5.7543,5.7577,5.7002,5.4296,5.1961,5.1628,5.1526,5.0623,0.0,0.0,0.0,0.0,0.0,0.0,5.8038,6.328,6.7015,6.7557,6.9147,7.0703,7.1988,7.2124,7.236,7.3003,7.1988,7.0161,6.7421,6.5595,0.0,0.0,0.0,0.0,0.0,0.0,0.0,0.0,0.0,0.0,0.0,0.0,0.0,0.0,0.0,0.0,0.0,0.0,0.0,0.0,0.0,0.0,0.0,0.0,0.0,0.0,0.0,0.0,0.0,4.7588,5.0901,5.106,5.2645,5.0809,0.0,0.0,0.0,0.0,0.0,0.0,0.0,0.0,0.0,5.9045,6.2438,6.3702,6.2755,6.2975,6.3576,6.4347,6.5081,6.5852,6.6659,6.6659,6.6659,6.657,6.5706,6.4737,6.3548,6.0583,5.8872,5.7765,0.0,0.0,0.0,0.0,5.1673,5.1386,5.3585,5.4634,5.4998,5.4932,0.0,0.0,0.0,0.0,0.0,0.0,0.0,5.3078,5.5649,5.7103,5.8321,6.0013,6.0419,6.0419,6.0419,5.9133,5.7239,5.4702,5.4228,5.3247,5.019,5.1229,0.0,0.0,0.0,5.8705,6.0516,6.4638,6.7557,6.7861,7.0026,7.1684,7.236,7.2766,7.3138,7.3477,7.3172,7.2225,7.05,6.7354,6.3937,0.0,0.0,0.0,0.0,0.0,0.0,0.0,0.0,0.0,0.0,0.0,0.0,0.0,0.0,0.0,0.0,0.0,0.0,0.0,0.0,0.0,0.0,0.0,0.0,0.0,0.0,0.0,0.0,4.784,4.9219,5.2868,5.5374,5.3562,0.0,0.0,0.0,0.0,0.0,0.0,5.2019,5.6595,6.1812,6.7487,6.6542,6.6123,6.65,6.6088,6.6219,6.6806,6.6806,6.721,6.8017,6.8017,6.8128,6.822,6.7102,6.6639,6.6361,6.2612,6.0635,5.9761,5.8183,5.6616,5.5322,5.5859,5.5552,5.5243,5.7476,5.8587,5.9012,5.8658,5.8427,5.7867,5.5347,0.0,0.0,0.0,0.0,5.4905,5.7306,5.822,5.9032,6.1264,6.1806,6.1873,6.2076,6.211,6.1197,5.8051,5.7408,5.6528,5.3687,5.46,0.0,5.5716,5.8389,6.096,6.2482,6.5933,6.8199,6.8199,7.0737,7.2563,7.2935,7.3477,7.3849,7.4052,7.4052,7.3713,7.3003,6.9755,6.6745,6.4106,0.0,0.0,0.0,0.0,0.0,0.0,0.0,0.0,0.0,0.0,0.0,0.0,0.0,0.0,0.0,0.0,0.0,0.0,0.0,0.0,0.0,0.0,0.0,0.0,0.0,0.0,0.0,0.0,0.0,5.2779,5.3426,0.0,0.0,0.0,0.0,5.6843,6.0262,6.2083,6.2056,6.2365,6.4144,6.759,6.762,6.7589,6.7626,6.7594,6.7577,6.7614,6.7614,6.8054,6.8862,6.8862,6.9265,6.9907,6.8027,6.7262,6.7085,6.4645,6.3165,6.2216,6.067,5.9109,5.787,5.9323,5.9347,5.9066,6.1332,6.2188,6.231,6.3112,6.1432,5.897,5.8005,5.5754,0.0,0.0,5.7137,5.7306,6.0317,6.052,6.0047,6.0182,6.0216,6.0419,6.1197,6.1366,6.1501,6.1975,6.2042,6.1332,5.9032,0.0,5.8795,5.8795,6.0182,6.1772,6.326,6.6745,6.9045,6.9045,7.1075,7.2969,7.439,7.4525,7.4864,7.554,7.5574,7.527,7.4525,7.4289,7.1447,6.5696,6.4038,0.0,0.0,0.0,0.0,0.0,0.0,0.0,0.0,0.0,0.0,0.0,0.0,0.0,0.0,0.0,0.0,0.0,0.0,0.0,0.0,0.0,0.0,0.0,0.0,0.0,0.0,0.0,0.0,5.8319,5.5773,0.0,5.6113,5.713,5.8595,6.0909,6.2168,6.3736,6.5865,6.5948,6.6486,6.7694,6.7684,6.7961,6.8475,6.8458,6.8715,6.9229,6.9229,6.9376,6.9669,6.9669,6.9816,7.0017,6.8135,6.73,6.7161,6.5144,6.4133,6.3824,6.3233,6.2741,6.2267,6.2813,6.2819,6.2719,6.3531,6.3802,6.3882,6.4166,6.3572,6.2548,6.1797,6.0748,5.9979,6.0047,5.9911,6.0047,6.1603,6.1806,6.1806,6.2753,6.299,6.3057,6.3362,6.3429,6.3497,6.3768,6.3024,6.1806,6.0013,6.0926,6.1738,6.1264,6.2448,6.3971,6.5459,6.7218,6.8707,6.9688,7.1785,7.351,7.4525,7.5506,7.598,7.5709,7.6623,7.6623,7.5371,7.4864,7.3172,7.006,6.8571,6.4585,0.0,0.0,0.0,0.0,0.0,0.0,0.0,0.0,0.0,0.0,0.0,0.0,0.0,0.0,0.0,0.0,0.0,0.0,0.0,0.0,0.0,0.0,0.0,0.0,0.0,5.0084,5.3708,6.1849,5.9039,5.8139,6.2387,6.3787,6.4457,6.4425,6.4471,6.5426,6.7568,6.77,6.7941,6.8509,6.7872,6.8109,6.9302,6.8986,6.9242,7.011,7.011,7.022,7.0513,7.077,7.0857,7.0784,6.9404,6.8682,6.8249,6.6736,6.6136,6.6034,6.4986,6.4613,6.4613,6.4613,6.4613,6.4613,6.4613,6.4613,6.4613,6.4613,6.4613,6.4478,6.3734,6.3328,6.299,6.2245,6.1873,6.1907,6.2888,6.3125,6.3396,6.4377,6.4613,6.4681,6.4918,6.5155,6.5425,6.5662,6.4309,6.2821,6.1806,6.2888,6.3632,6.2888,6.4038,6.5324,6.6305,6.7726,6.9248,7.077,7.2699,7.4289,7.5303,7.5371,7.5676,7.642,7.6454,7.6352,7.6115,7.4897,7.3409,7.1684,6.9925,6.6237,6.052,0.0,0.0,0.0,0.0,0.0,0.0,0.0,0.0,0.0,0.0,0.0,0.0,0.0,0.0,0.0,0.0,0.0,0.0,0.0,0.0,0.0,0.0,0.0,5.8,6.0741,6.2823,6.2925,6.2933,6.2969,6.2938,6.5823,6.7694,6.7694,6.7663,6.7736,6.7684,6.7704,6.8439,7.0,6.8341,6.8282,7.0054,6.9225,6.9322,7.022,7.022,7.066,7.1468,7.2181,7.2425,7.2293,7.2122,7.1412,7.0465,6.9527,6.9113,6.8808,6.5865,6.4749,6.4749,6.4749,6.4749,6.4749,6.4749,6.4749,6.4749,6.4749,6.4749,6.4613,6.3835,6.3125,6.2719,6.3396,6.3057,6.2854,6.4309,6.4681,6.4681,6.4715,6.4715,6.4918,6.5628,6.6373,6.7083,6.7793,6.6203,6.4749,6.4749,6.4749,6.4512,6.3802,6.4884,0.0,6.5797,6.8368,7.0737,7.2157,7.3612,7.51,7.6657,7.4153,7.4052,7.7773,7.527,7.4661,7.6826,7.483,7.2631,7.0398,6.8064,6.5797,6.3632,0.0,0.0,0.0,0.0,0.0,0.0,0.0,0.0,0.0,0.0,0.0,0.0,0.0,0.0,0.0,0.0,0.0,0.0,0.0,0.0,0.0,5.0416,5.8021,5.8021,6.0756,6.3686,6.6081,6.6375,6.636,6.636,6.7185,6.77,6.772,6.7704,6.7687,6.7707,6.7689,6.7907,6.8343,7.0113,7.0478,6.9321,7.0725,7.186,7.2716,7.2595,7.2995,7.3868,7.3333,7.3488,7.4092,7.2653,7.1862,7.1412,6.9746,6.9113,6.9011,6.8199,6.7861,6.7861,6.7861,6.7861,6.7861,6.7861,6.7861,6.7861,6.7861,6.7861,6.7624,6.6305,6.6136,6.6203,6.5324,6.5324,6.5696,6.6102,6.6203,6.6339,6.688,6.6981,6.7218,6.7996,6.8335,6.8538,6.8741,6.8267,6.7861,6.7861,6.7861,6.7793,6.759,6.7895,6.8166,6.8166,6.935,7.0128,7.0026,7.0838,7.2225,7.4255,7.4153,7.5134,7.7807,7.8213,7.8145,7.7705,7.7604,7.6487,7.4221,7.0432,6.7624,0.0,0.0,0.0,0.0,0.0,0.0,0.0,0.0,0.0,0.0,0.0,0.0,0.0,0.0,0.0,0.0,0.0,0.0,0.0,0.0,0.0,0.0,5.4649,6.0461,6.185,6.3658,6.5566,6.7458,6.7663,6.7736,6.772,6.772,6.7704,6.7707,6.7707,6.7689,6.7689,6.899,6.9697,6.9714,6.9939,7.0411,7.1159,7.1936,7.2984,7.4221,7.4103,7.4322,7.4918,7.465,7.4377,7.4115,7.3261,7.2472,7.1642,7.0481,7.0195,7.0398,0.0,0.0,0.0,0.0,6.9113,6.9113,6.9113,6.9113,6.9113,6.9113,6.8876,6.8368,6.7184,6.688,6.6779,6.5933,6.6237,6.688,6.7184,6.7523,6.7861,6.8301,6.8402,6.8538,6.9011,6.935,6.9553,6.9553,6.9823,0.0,7.0026,6.9519,6.8977,6.8639,6.8876,6.9113,6.9113,7.0026,7.0838,7.1345,7.2056,7.3409,7.5642,7.51,0.0,0.0,0.0,7.7908,7.7063,7.7164,0.0,0.0,0.0,7.0195,6.9586,6.6373,0.0,0.0,6.0558,5.9006,0.0,0.0,0.0,0.0,0.0,0.0,0.0,0.0,0.0,0.0,0.0,0.0,0.0,0.0,0.0,0.0,6.1335,6.4348,6.7295,6.7731,6.7715,6.7736,6.7704,6.7687,6.7687,6.7724,6.7707,6.7707,6.8055,6.822,6.8238,7.0992,0.0,0.0,0.0,6.9253,7.4421,7.3248,7.3389,7.4992,7.4982,7.5055,7.5212,7.569,7.505,7.3609,7.4057,7.3264,7.1694,7.1515,7.1921,7.2326,7.0364,6.9586,6.9586,6.9586,6.9586,6.9586,6.9586,0.0,0.0,6.9586,6.9045,6.8267,6.7557,6.6846,6.6305,6.6203,6.6745,6.7455,6.7996,6.8707,6.9214,6.9214,6.9214,6.9248,6.935,6.9925,7.0432,7.0432,7.1041,7.1548,7.1548,7.0331,6.9113,6.8402,6.8876,6.935,6.935,7.0567,7.2124,7.3916,7.483,0.0,7.8416,7.6217,7.6284,7.9972,7.7671,7.6217,7.6217,7.5506,7.4796,7.4119,7.324,7.3071,7.3713,7.2191,7.1109,7.0263,6.3362,6.1231,0.0,0.0,0.0,0.0,0.0,0.0,0.0,0.0,0.0,0.0,0.0,0.0,0.0,0.0,0.0,6.1388,6.4599,6.6985,6.7626,6.7684,6.7704,6.7704,6.7687,6.7724,6.7689,6.7726,6.7707,6.767,7.0128,7.16,7.1561,7.2169,7.2482,7.2488,6.8801,6.9973,7.6614,7.5588,7.5214,7.5555,7.5625,0.0,7.6803,7.5292,7.5335,7.6374,7.4361,7.3767,7.4015,7.2938,7.281,7.324,7.28,7.2631,7.2631,7.2631,7.2631,7.2631,7.2631,7.2631,7.2631,7.2631,7.2124,7.1379,7.0669,7.0331,0.0,6.9485,6.9857,7.0331,6.9857,6.9857,6.9992,6.9992,6.9992,7.0161,7.077,7.1447,7.1954,7.1954,7.2563,7.3071,7.3071,7.1853,7.0838,7.0669,7.077,7.0872,7.0872,7.165,7.1887,7.1109,7.2225,7.3713,7.5337,7.5473,7.6826,8.0006,7.9634,7.9329,7.9329,7.8619,7.8179,7.801,7.6082,7.5134,7.527,7.3206,7.2124,7.1887,6.8639,6.7387,0.0,0.0,0.0,0.0,0.0,0.0,0.0,0.0,0.0,0.0,0.0,5.5646,5.6747,0.0,6.0741,6.3252,6.527,6.6749,6.7557,6.7704,6.7687,6.7687,6.767,6.7689,6.7671,6.9192,7.0108,7.0105,7.1631,7.2496,7.2498,7.2504,7.2509,7.2503,7.2205,7.3738,7.7304,7.6737,7.6472,7.6472,7.7085,7.7291,7.708,7.6517,7.6182,7.6003,7.467,7.4102,7.4124,7.3434,7.3426,7.3984,7.4424,7.4153,7.3477,7.3477,7.3477,7.3477,7.3477,7.3477,7.3477,7.3477,7.2732,7.1785,7.1413,7.0804,7.0128,6.9755,7.0161,7.0669,7.0297,7.0466,7.0838,7.121,7.1278,7.1481,7.2225,7.2699,7.2935,7.2935,7.324,7.3477,7.3477,7.2868,7.2394,7.2394,7.2394,7.2394,7.2394,7.2732,7.2935,7.2935,7.3612,7.483,7.669,7.7536,7.8585,8.0107,8.0209,8.0209,8.0209,7.987,7.9667,7.9667,7.7807,7.6657,7.6284,7.4424,7.3308,7.2902,7.1819,7.0906,0.0,0.0,0.0,0.0,0.0,0.0,0.0,5.5499,5.6731,5.7724,5.8014,5.871,6.0543,6.1777,6.2828,6.3972,6.5034,6.6186,6.7504,6.7724,6.7724,6.7724,6.7689,6.7982,6.8568,7.0992,7.2496,7.2533,7.1838,7.1706,7.2472,7.307,7.3423,7.345,7.5958,7.7291,7.7298,7.7312,7.7279,7.7279,7.8442,7.8528,7.7583,7.7811,7.6843,7.5115,7.4999,7.4535,7.3916,7.3898,7.4168,7.4634,7.5405,7.4965,7.3916,7.3916,7.3916,7.3916,7.3916,7.3916,7.3883,7.3747,7.28,7.1718,7.1582,7.0601,6.9519,6.9519,7.006,7.0601,7.0601,7.1176,7.1887,7.2462,7.2597,7.2766,7.3341,7.3612,7.3713,7.3713,7.3815,7.3916,7.3916,7.3916,7.3815,7.3544,7.3477,7.3477,7.3477,7.3612,7.4153,7.5371,7.5743,7.6792,7.8923,7.9634,8.004,8.0175,8.0209,8.0209,8.0209,8.0209,8.0209,8.0209,7.8754,7.7705,7.7096,7.5574,7.4525,7.3916,7.3916,7.3138,5.55,5.564,5.5981,5.4629,5.5931,5.7647,0.0,5.871,5.926,6.0762,6.1642,6.2228,6.2471,6.4171,6.505,6.3288,6.551,6.7504,6.765,6.7707,6.7726,6.7726,6.7671,6.8788,7.1671,7.2279,7.2516,7.2504,6.9377,6.8932,7.2303,7.5212,7.6728,7.679,7.7072,7.7292,7.7291,7.7291,7.7327,7.7327,7.849,7.9407,8.0076,7.7846,7.6568,7.6268,7.5776,7.55,7.5439,7.5473,7.5506,7.5574,7.5676,7.5608,7.5439,7.5439,7.5439,7.5439,7.5439,7.5439,7.5337,7.4695,7.3916,7.3105,7.2462,7.1718,7.1075,7.1075,7.1582,7.2157,7.2157,7.2699,7.3274,7.3341,7.3375,7.3375,7.3477,7.4018,7.4492,7.4492,7.4999,7.5439,7.5439,7.5439,7.4999,7.368,7.3477,7.3477,7.3477,7.4052,7.4559,7.4728,7.5946,7.7401,7.8991,7.9194,7.9498,8.0175,8.0209,8.0209,8.0209,8.0209,8.0209,8.0209,7.8754,7.7942,7.7874,7.6318,7.554,7.5439,7.5439,7.4661,5.774,5.796,5.806,5.7412,5.8688,6.0162,6.0529,6.1337,6.2365,6.3539,6.3745,6.4009,6.4621,6.524,6.5677,6.5674,6.6774,6.7724,6.7707,6.7726,6.8385,7.0257,7.0464,7.0989,7.2333,7.2473,7.2496,7.2507,7.2741,7.3629,7.5216,7.6558,7.7279,7.7329,7.7329,7.7304,7.7254,7.7291,7.827,8.0184,8.0635,8.078,8.0568,7.9196,7.7661,7.5977,7.5782,7.5709,7.5709,7.5709,7.5681,7.5687,7.5687,7.6024,7.6492,7.5946,7.5709,7.5709,7.5709,7.6014,7.6352,7.6048,7.5405,7.4728,7.4424,7.351,7.2563,7.2563,7.28,7.3037,7.3037,7.324,7.3612,7.4052,7.4153,7.4255,7.4695,7.5033,7.5236,7.5236,7.5473,7.5709,7.5709,7.5709,7.5473,7.4864,7.4762,7.4762,7.4762,7.5067,7.5236,7.5236,7.6251,7.7333,7.8382,7.8855,7.9431,8.0141,7.9803,7.9769,8.0175,7.9803,7.9769,8.0175,7.916,7.8416,7.7976,7.6927,7.6149,7.5709,7.5709,7.5371,5.8615,5.9212,5.9821,5.964,6.1129,6.2622,6.2622,6.3723,6.4934,6.5521,6.5506,6.5623,6.6388,6.6183,6.6352,6.751,6.7716,6.767,6.7707,6.8458,6.9926,7.2242,7.2498,7.2071,7.104,7.1863,7.285,7.3788,7.6008,7.7304,7.7291,7.7302,7.7329,7.7279,7.7279,7.7291,7.7302,7.817,7.9863,8.2223,8.2169,8.1782,8.1021,8.0705,7.8816,7.5709,7.5648,7.5681,7.5681,7.5749,7.5658,7.5729,7.6129,7.6766,7.7371,7.6724,7.642,7.6318,7.6318,7.6724,7.7164,7.6961,7.6521,7.5946,7.554,7.4661,7.3747,7.3544,7.3646,7.3781,7.3781,7.395,7.4221,7.4796,7.4897,7.5067,7.5574,7.5709,7.5709,7.5709,7.5709,7.5709,7.5709,7.5709,7.5709,7.5709,7.5709,7.5709,7.5709,7.5709,7.5709,7.5709,7.6217,7.6893,7.7638,7.8382,7.9126,7.987,7.96,7.9634,8.0175,7.987,7.9972,8.0479,7.9972,7.9228,7.828,7.757,7.669,7.5709,7.5709,7.5709,5.7651,5.9211,6.1336,6.0735,6.2907,6.5191,6.5191,6.5815,6.6439,6.6476,6.7063,6.7634,6.7642,6.7632,6.7595,6.7668,6.768,6.7679,6.7726,7.0367,7.2389,7.2463,7.251,7.1024,6.7316,7.0346,7.3824,7.6925,7.7242,7.7255,7.7279,7.7341,7.7279,7.7327,7.7327,7.7302,7.7312,8.0461,8.2095,8.2206,8.2215,8.2189,8.2142,8.2146,7.9761,7.5709,7.572,7.5691,7.5725,7.5699,7.5668,7.59,7.7405,7.7942,7.801,7.8413,7.8311,7.7908,7.7908,7.7942,7.7841,7.713,7.6893,7.6589,7.51,7.4627,7.4424,7.368,7.4018,7.4593,7.4593,7.51,7.5642,7.5676,7.5676,7.5676,7.5709,7.5709,7.5709,7.5709,7.5709,7.5709,7.5709,7.5709,7.5709,7.5709,7.5709,7.5709,7.5709,7.5709,7.5709,7.5709,7.5709,7.6048,7.686,7.7604,7.8348,7.9092,7.9769,8.0175,8.0209,8.0851,8.1224,8.1257,8.1224,8.0513,7.9058,7.8314,7.7164,7.5709,7.5709,7.5709,6.1609,6.324,6.4919,6.5238,6.6499,6.7687,6.7687,6.8311,6.8898,6.8898,6.8257,6.7707,6.7728,6.5772,6.4215,6.4183,6.6134,6.8418,7.0569,7.1801,7.25,7.2516,7.2496,7.1965,7.0688,7.3652,7.6115,7.7218,7.7291,7.7298,7.7274,7.7295,7.7327,7.7275,7.9396,8.0525,8.0571,8.1627,8.2242,8.2215,8.2231,8.0658,7.7929,7.9457,7.8473,7.5754,7.5749,7.6834,7.871,7.868,7.8684,7.8754,7.9226,7.9463,7.9464,7.97,7.9566,7.9329,7.8314,7.8314,7.8686,7.845,7.8382,7.8179,7.7164,7.6521,7.5946,7.5168,7.5134,7.5337,7.5337,7.5506,7.5709,7.5709,7.5709,7.5709,7.5709,7.5709,7.5709,7.5709,7.5709,7.5709,7.5709,7.5709,7.5879,7.642,7.6487,7.6284,7.5777,7.6183,7.6284,7.5743,7.5709,7.6217,7.7502,7.7841,7.872,8.0445,8.031,8.0648,8.1629,8.1426,8.1528,8.2035,8.2035,8.1528,8.0547,7.9803,7.8923,7.7942,7.7435,7.7232,6.4501,6.5925,6.71,6.7907,6.8715,6.9339,6.9339,6.9889,7.0293,6.9889,6.9612,6.9027,6.7904,6.5815,6.4279,6.4296,6.6187,6.8836,7.2078,7.25,7.2496,7.2475,7.2498,7.2959,7.4116,7.6125,7.6692,7.5218,7.5182,7.5798,7.7238,7.8382,7.904,7.905,8.1103,8.2196,8.2178,8.2178,8.2215,8.2194,8.0656,7.8409,7.5873,8.0007,8.0159,7.7284,7.7263,7.8434,8.0134,8.0202,8.0204,8.024,8.024,8.0208,8.0209,8.0209,8.0209,8.0073,7.9092,7.9092,7.9464,7.9194,7.9126,7.8923,7.7908,7.7266,7.6724,7.5912,7.5709,7.5709,7.5709,7.5709,7.5709,7.5709,7.5709,7.5709,7.5709,7.5709,7.5709,7.5709,7.5709,7.5709,7.5709,7.5946,7.6386,7.7164,7.7536,7.7401,7.6623,7.6724,7.6792,7.6555,7.6521,7.6927,7.7908,7.8483,7.9363,8.0818,8.0953,8.1426,8.2374,8.2205,8.2306,8.278,8.305,8.2712,8.1697,8.0953,8.0073,7.9092,7.8348,7.7976,6.6256,6.7283,6.8128,6.8898,6.9669,7.022,7.022,7.066,7.0677,6.9669,7.1085,7.1593,6.8505,6.7665,6.7492,6.7674,6.7819,6.9115,7.2275,7.2606,7.2526,7.2526,7.2673,7.3942,7.6985,7.7275,7.5683,7.1889,7.162,7.3369,7.7375,8.0514,8.2223,8.2206,8.2206,8.2178,8.2186,8.2186,8.2194,8.2172,7.8171,7.6295,7.6542,8.3701,8.4592,8.0553,8.0259,8.0192,8.0173,8.0242,8.0209,8.0209,8.0209,8.0209,8.0209,8.0209,8.0209,8.0209,8.0209,8.0209,8.0073,7.9397,7.916,7.8855,7.7401,7.6927,7.6724,7.5912,7.5709,7.5709,7.5709,7.5709,7.5709,7.5709,7.5709,7.5709,7.5709,7.5743,7.5743,7.5743,7.5777,7.5811,7.5811,7.6487,7.7266,7.7942,7.8653,7.8822,7.8077,7.7401,7.7266,7.7908,7.801,7.8044,7.8077,7.9431,8.0276,8.0344,8.1697,8.2475,8.2509,8.3186,8.3558,8.3558,8.4268,8.393,8.2509,8.1765,8.0682,7.9329,7.8517,7.8145,6.8898,7.022,7.1321,7.1541,7.1725,7.1908,7.1908,7.2018,7.2013,7.1709,7.2096,7.2273,7.1447,6.7149,6.4584,6.7239,6.9697,7.2424,7.5632,7.3986,7.2504,7.2519,7.4639,7.6374,7.7206,7.7291,7.6873,7.5823,7.5785,7.7321,8.075,8.1725,8.2206,8.2215,8.2215,8.2186,8.2186,8.2194,8.2226,8.2178,8.3483,8.4133,8.4199,8.6105,8.633,8.5056,8.1646,8.017,8.0242,8.0175,8.0209,8.0209,8.0209,8.0209,8.0209,8.0209,8.0209,8.0209,8.0209,8.0209,8.0175,7.9972,7.9566,7.8923,7.801,7.7333,7.6724,7.5912,7.5709,7.5709,7.5709,7.5709,7.5709,7.5709,7.5709,7.5709,7.5709,7.6183,7.6589,7.6589,7.7029,7.7401,7.7401,7.8044,7.8619,7.8788,7.8991,7.8822,7.8077,7.8314,7.8416,7.8044,7.8483,7.9058,7.96,8.0479,8.1494,8.2577,8.3016,8.349,8.4031,8.4234,8.4336,8.4336,8.4539,8.4437,8.4065,8.3287,8.2746,8.234,8.1054,8.0445,7.0844,7.1798,7.2496,7.2496,7.2496,7.2422,7.2055,7.1908,7.1516,7.052,6.9156,6.804,6.8108,6.4949,6.3474,6.6773,7.1422,7.4751,7.5125,7.4867,7.4602,7.4579,7.6227,7.7316,7.7292,7.7268,7.7279,7.7327,7.7283,7.868,8.2007,8.2231,8.2215,8.2186,8.2186,8.2223,8.2194,8.2201,8.2879,8.4352,8.6136,8.7048,8.6976,8.6962,8.5877,8.3904,8.1318,8.0168,8.0209,8.0209,8.0209,8.0209,8.0209,8.0209,8.0209,8.0209,8.0209,8.0209,8.0209,8.0209,8.0175,8.0208,7.9734,7.8923,7.7841,7.7232,7.6724,7.5912,7.5709,7.5777,7.6115,7.5946,7.5879,7.6555,7.6454,7.6318,7.6623,7.7063,7.7367,7.7367,7.7705,7.8077,7.8416,7.8822,7.9228,7.9532,7.96,7.9566,7.9464,7.9228,7.9194,7.9397,7.9803,8.0378,8.1088,8.1832,8.2611,8.3456,8.3795,8.42,8.4606,8.464,8.464,8.464,8.464,8.464,8.464,8.3862,8.349,8.3456,8.2306,8.1765,7.2129,7.2496,7.2496,7.2496,7.2496,7.2312,7.1505,7.0861,6.9864,6.7836,6.4579,6.2158,6.2366,6.2404,6.3694,6.7588,7.332,7.6338,7.3569,7.5507,7.7329,7.7316,7.7316,7.7292,7.7341,7.7291,7.7302,7.7302,7.7687,7.9141,8.2059,8.2215,8.2186,8.2186,8.2223,8.2194,8.2238,8.2605,8.4278,8.6985,8.7022,8.6958,8.6969,8.7003,8.4487,8.0228,8.0224,8.0247,8.0209,8.0209,8.0209,8.0209,8.0209,8.0209,8.0209,8.0209,8.0209,8.0209,8.0209,8.0209,8.0175,8.0206,7.9666,7.8855,7.7468,7.6961,7.6758,7.6048,7.5845,7.6048,7.6826,7.6521,7.6318,7.7671,7.7502,7.7232,7.7841,7.8077,7.8145,7.8247,7.828,7.8483,7.916,7.9261,7.9464,8.0107,8.0276,8.0581,8.119,8.0175,7.9938,8.1291,8.1528,8.1832,8.2509,8.3219,8.3659,8.3659,8.4167,8.4471,8.4471,8.437,8.4336,8.4336,8.4336,8.4336,8.4336,8.3761,8.349,8.349,8.2847,8.2543,7.2422,7.2496,7.2496,7.2496,7.2496,7.2312,7.1505,6.9741,6.7862,6.6531,6.3211,6.0877,6.2186,6.2421,6.5293,7.4057,7.6509,7.7128,7.6538,7.6977,7.7304,7.7327,7.7279,7.7341,7.7291,7.7298,7.728,7.7304,7.9839,8.1583,8.2206,8.2215,8.2186,8.2186,8.2231,8.2201,8.2238,8.4829,8.647,8.6985,8.7027,8.6973,8.7003,8.7043,8.4526,8.0167,8.0156,8.024,8.0209,8.0209,8.0209,8.0209,8.0209,8.0209,8.0209,8.0209,8.0209,8.0209,8.0209,8.0209,8.0209,8.0175,7.9667,7.8957,7.8077,7.7367,7.686,7.6724,7.669,7.686,7.7604,7.7705,7.7671,7.7908,7.7874,7.7841,7.7942,7.8483,7.9092,7.9701,7.9803,7.987,8.0006,8.0006,8.004,8.0175,8.0716,8.1156,8.1257,8.1054,8.1257,8.2137,8.2746,8.3152,8.3287,8.3998,8.4437,8.4437,8.3964,8.3693,8.3693,8.3118,8.278,8.278,8.278,8.278,8.278,8.3287,8.349,8.349,8.3355,8.3321,7.2496,7.2496,7.2496,7.2496,7.2496,7.2092,7.044,6.9174,6.7595,6.4903,6.2789,6.1523,6.1662,6.2077,6.3947,6.8752,7.2136,7.3616,7.2072,7.6456,7.9238,7.7511,7.7295,7.7304,7.7302,7.882,7.8908,7.6628,8.0041,8.2178,8.2215,8.2186,8.2223,8.2194,8.2201,8.2971,8.4682,8.6182,8.7022,8.699,8.6995,8.7011,8.6919,8.4527,8.2243,8.0224,8.0232,8.0209,8.0209,8.0209,8.0209,8.0209,8.0209,8.0209,8.0209,8.0209,8.0209,8.0209,8.0209,8.0209,8.0209,8.0209,7.9972,7.9532,7.8788,7.8348,7.7976,7.757,7.7468,7.7638,7.8382,7.828,7.8179,7.8957,7.9126,7.9126,7.9126,7.9431,7.9769,8.0141,8.0209,8.0209,8.0209,8.0209,8.0209,8.0209,8.0818,8.1426,8.1832,8.2205,8.2577,8.2949,8.3287,8.3659,8.4065,8.4403,8.4471,8.4065,8.4065,8.3896,8.3524,8.3152,8.2983,8.2983,8.2983,8.2983,8.2983,8.3727,8.4065,8.4065,8.4065,8.4065,7.2496,7.2496,7.2496,7.2496,7.2496,7.1872,6.9449,6.8788,6.7506,6.3615,6.2581,6.2129,6.119,6.1559,6.2124,6.2385,6.6283,6.8992,6.7966,7.5472,8.0208,7.762,7.7298,7.6989,7.6099,7.9761,8.075,7.7348,8.0259,8.2215,8.2223,8.2223,8.2194,8.2172,8.2861,8.4462,8.6985,8.7022,8.699,8.6995,8.6995,8.7011,8.6883,8.2265,8.0159,8.0224,8.0232,8.0209,8.0209,8.0209,8.0209,8.0209,8.0209,8.0209,8.0209,8.0209,8.0209,8.0209,8.0209,8.0209,8.0209,8.0209,8.0209,8.0073,7.9329,7.9126,7.8991,7.8382,7.8247,7.8416,7.916,7.8889,7.8754,7.9904,8.0209,8.0209,8.0209,8.0209,8.0209,8.0209,8.0209,8.0209,8.0209,8.031,8.0445,8.0445,8.119,8.1968,8.2577,8.3287,8.3727,8.3727,8.3727,8.3964,8.4573,8.4471,8.4133,8.3524,8.3761,8.3625,8.305,8.2881,8.278,8.278,8.278,8.278,8.278,8.3524,8.3998,8.4167,8.4302,8.4471,7.2496,7.2496,7.2496,7.2496,7.2496,7.1872,6.9449,6.8311,6.6865,6.3506,6.2153,6.1495,6.112,6.1018,6.1356,6.2219,6.2838,6.4971,7.0156,7.4876,7.7619,7.734,7.7274,7.5819,7.2235,7.8086,8.206,8.1644,8.1966,8.2223,8.2201,8.2201,8.2172,8.2215,8.5049,8.6691,8.6985,8.7027,8.6995,8.6995,8.6995,8.7011,8.6883,8.2265,8.0159,8.0224,8.0232,8.0209,8.0209,8.0209,8.0209,8.0209,8.0209,8.0209,8.0209,8.0209,8.0209,8.0209,8.0209,8.0209,8.0209,8.0209,8.0209,8.0073,7.9329,7.9126,7.9092,7.9025,7.9025,7.9194,7.9904,8.004,8.004,8.0175,8.0209,8.0209,8.0209,8.0209,8.0209,8.0209,8.0209,8.0209,8.0209,8.075,8.119,8.119,8.2374,8.3321,8.3389,8.4065,8.4539,8.4539,8.4539,8.4539,8.4606,8.3998,8.3558,8.349,8.2306,8.1562,8.1494,8.0851,8.0513,8.0513,8.0513,8.0513,8.0513,8.1224,8.1934,8.2644,8.3287,8.3964,7.2496,7.2863,7.312,7.2606,7.2165,7.1174,6.8715,6.754,6.6203,6.3398,6.1789,6.0882,6.0963,6.0693,6.1181,6.3563,6.3051,6.3878,6.8045,7.3609,7.6369,7.3982,7.7593,7.9647,7.8033,8.0499,8.2206,8.2194,7.9808,7.9457,8.2032,8.4022,8.511,8.5123,8.6292,8.7022,8.7027,8.6995,8.6995,8.6995,8.6995,8.7011,8.6955,8.5109,8.2787,8.0224,8.0232,8.0209,8.0209,8.0209,8.0209,8.0209,8.0209,8.0209,8.0209,8.0209,8.0209,8.0209,8.0209,8.0209,8.0209,8.0209,8.0209,8.0141,7.987,7.9769,7.9769,7.9769,7.9769,7.9837,8.0107,8.0209,8.0209,8.0209,8.0209,8.0209,8.0209,8.0209,8.031,8.0784,8.0851,8.0987,8.146,8.1765,8.1968,8.1968,8.2847,8.349,8.349,8.4167,8.4437,8.3998,8.437,8.4437,8.3998,8.3659,8.3118,8.2205,8.2035,8.1765,8.1291,8.1021,8.1054,8.1528,8.1528,8.1968,8.2881,8.3152,8.393,8.5114,8.4945,8.5046,7.2092,7.2716,7.3193,7.2642,7.1908,7.0697,6.8238,6.7063,6.5888,6.3649,6.1895,6.0793,6.0966,6.0912,6.1803,6.4523,6.4416,6.4739,6.6769,7.1197,7.3439,7.1509,7.7739,8.2179,8.2178,8.2194,8.2235,8.2189,7.936,7.9366,8.3435,8.5747,8.701,8.7022,8.6953,8.699,8.6995,8.6995,8.6995,8.6995,8.6995,8.7008,8.7008,8.7025,8.4521,8.0177,8.0179,8.0204,8.0209,8.0209,8.0209,8.0209,8.0209,8.0209,8.0209,8.0209,8.0209,8.0209,8.0209,8.0209,8.0209,8.0209,8.0209,8.0209,8.0209,8.0209,8.0209,8.0209,8.0209,8.0209,8.0209,8.0209,8.0209,8.0209,8.0209,8.0242,8.0479,8.0513,8.075,8.146,8.1629,8.1799,8.2306,8.2577,8.2746,8.2746,8.3355,8.3828,8.3828,8.4099,8.4099,8.3558,8.3795,8.3761,8.3219,8.2983,8.2408,8.1359,8.1596,8.1528,8.0987,8.1156,8.1528,8.2069,8.2509,8.3152,8.3964,8.42,8.4843,8.5892,8.5148,8.4776,7.1101,7.1908,7.2496,7.2496,7.1908,7.0697,6.8238,6.7063,6.6035,6.442,6.2711,6.148,6.1107,6.1912,6.3181,6.4739,6.6531,6.767,6.7689,6.7229,6.8011,7.0942,7.7764,8.2242,8.2213,8.2221,8.2221,8.2178,8.213,8.3541,8.6824,8.6971,8.6953,8.6995,8.6995,8.6995,8.6995,8.6995,8.6995,8.6995,8.6995,8.7031,8.6962,8.6972,8.4505,8.0224,8.0233,8.0207,8.0209,8.0209,8.0209,8.0209,8.0209,8.0209,8.0209,8.0209,8.0209,8.0209,8.0209,8.0209,8.0209,8.0209,8.0209,8.0209,8.0209,8.0209,8.0209,8.0209,8.0209,8.0209,8.0209,8.0209,8.0209,8.0209,8.0209,8.0412,8.1122,8.1257,8.1494,8.2272,8.2408,8.2408,8.2408,8.3016,8.349,8.349,8.4133,8.4606,8.4606,8.3964,8.3524,8.349,8.2847,8.2441,8.2408,8.1731,8.1291,8.1291,8.0615,8.0209,8.0209,8.0885,8.1291,8.1291,8.2746,8.3152,8.2441,8.3152,8.3524,8.3524,8.278,8.2441,7.0954,7.1908,7.2496,7.2496,7.1468,7.0146,6.8825,6.7063,6.5558,6.5044,6.3584,6.2507,6.2811,6.3271,6.4013,6.5578,6.7451,6.8678,6.8742,6.9854,7.1904,7.5046,7.9468,8.2175,8.2184,8.2165,8.2201,8.2231,8.4217,8.5962,8.6932,8.6962,8.6958,8.6995,8.6995,8.6995,8.6995,8.6995,8.6995,8.6995,8.6995,8.6995,8.6962,8.6972,8.6217,8.4693,8.1539,8.0175,8.0172,8.0204,8.0209,8.0209,8.0209,8.0209,8.0209,8.0209,8.0209,8.0209,8.0209,8.0209,8.0209,8.0209,8.0209,8.0209,8.0209,8.0209,8.0209,8.0209,8.0209,8.0209,8.0209,8.0209,8.031,8.0818,8.0953,8.1156,8.19,8.2069,8.2272,8.3016,8.3152,8.3321,8.3828,8.4099,8.4268,8.4268,8.4471,8.4437,8.393,8.3625,8.3118,8.2103,8.1765,8.1629,8.1629,8.1426,8.1054,8.0581,8.031,8.0209,8.0209,8.0412,8.1257,8.2746,8.278,8.3896,8.623,8.4911,8.4809,8.5824,8.6095,8.623,6.9339,7.077,7.1578,7.1578,7.0624,6.9376,6.8238,6.6623,6.5301,6.5301,6.4201,6.3579,6.4644,6.509,6.5643,6.6582,6.7968,6.9452,7.0883,7.1938,7.3843,7.7485,8.0442,8.2209,8.2223,8.2223,8.2231,8.2208,8.519,8.7016,8.699,8.6958,8.6995,8.6995,8.6995,8.6995,8.6995,8.6995,8.6995,8.6995,8.6995,8.6995,8.7031,8.7012,8.697,8.6842,8.3945,8.1798,0.0,8.0194,8.0173,8.0229,8.024,8.0209,8.0209,8.0209,8.0209,8.0209,8.0209,8.0209,8.0209,8.0209,8.0209,8.0209,8.0209,8.0209,8.031,8.0885,8.0885,8.0682,8.0953,8.1021,8.1156,8.1596,8.1697,8.19,8.2678,8.2813,8.305,8.3761,8.393,8.4065,8.4539,8.464,8.464,8.464,8.437,8.4031,8.3558,8.3016,8.2306,8.1393,8.1021,8.0885,8.0885,8.0885,8.0784,8.0615,8.0615,8.075,8.1021,8.1562,8.2509,8.3896,8.4302,8.552,8.7583,8.5892,8.5554,8.6501,8.7245,8.7448,0.0,6.8568,6.9853,6.9889,6.9302,6.8348,6.6843,6.5888,0.0,6.5375,6.4787,6.4725,6.6198,6.7154,6.7726,6.7776,6.8414,7.0096,7.3582,7.326,7.4283,7.8647,8.0891,8.21,8.2231,8.2231,8.2245,8.2361,8.527,8.6953,8.6995,8.6995,8.6995,8.6995,8.6995,8.6995,8.6995,8.6995,8.6962,8.7036,8.6962,8.6962,8.7036,8.6962,8.6975,8.6996,8.7013,8.4393,8.0224,8.0549,8.0497,8.02,8.0168,8.0209,8.0209,8.0209,8.0209,8.0209,8.0209,8.0209,8.0209,8.0209,8.0209,8.0209,8.0209,8.0276,8.0682,8.197,8.197,8.1528,8.2238,8.2408,8.2408,8.2475,8.2475,8.2678,8.3422,8.3592,8.3795,8.4505,8.464,8.464,8.464,8.464,8.4606,8.4539,8.3964,8.3456,8.3355,8.2137,8.1257,8.1224,8.0615,8.0209,8.0209,8.0242,8.0547,8.1257,8.1393,8.1765,8.2441,8.3862,8.4674,8.4776,8.6941,8.7685,8.6907,8.6298,8.5993,8.596,8.6704,8.6704,6.3429,0.0,6.7504,6.8091,6.765,6.6953,0.0,6.5888,6.5485,6.6109,6.6072,6.6225,6.7161,6.7518,6.8092,6.926,7.0132,7.1385,7.3487,7.4276,7.6083,8.0221,8.0616,8.1179,8.2722,8.2486,8.2751,8.3961,8.5857,8.6953,8.6995,8.6995,8.6995,8.6995,8.6995,8.6995,8.6995,8.6995,8.7044,8.697,8.7008,8.6973,8.697,8.7008,8.6966,8.701,8.6971,8.4373,8.0475,8.398,8.3375,8.02,8.0168,8.0209,8.0209,8.0209,8.0209,8.0209,8.0209,8.0209,8.0209,8.0209,8.0175,8.0208,8.0208,8.0987,8.1936,8.2344,8.224,8.2171,8.2374,8.2408,8.2543,8.3118,8.3253,8.3456,8.42,8.437,8.4403,8.4606,8.464,8.464,8.464,8.464,8.4437,8.3862,8.3625,8.3084,8.1934,8.1494,8.1054,8.0513,8.031,8.0209,8.0209,8.0716,8.1088,8.1257,8.234,8.305,8.3219,8.4133,8.5182,8.6366,8.7989,8.8192,8.6907,8.7854,8.8023,8.7482,8.8226,8.8463,6.0933,6.3503,6.6145,6.6953,6.6806,6.6402,6.6035,6.5632,6.5338,6.5375,6.5999,6.6626,6.7045,6.8328,6.9521,6.9996,7.1612,7.3421,7.5024,7.6425,7.8275,8.079,8.1056,8.1599,8.3047,8.3281,8.3698,8.451,8.6077,8.7027,8.6995,8.6995,8.6995,8.6995,8.6995,8.6995,8.6995,8.6995,8.7005,8.6976,8.4859,8.4968,8.7012,8.7005,8.6995,8.7036,8.698,8.4425,8.0505,8.5077,8.4343,8.0185,8.0194,8.0209,8.0209,8.0209,8.0209,8.0209,8.0209,8.0242,8.0243,8.0242,8.0207,8.0477,8.1799,8.2784,8.343,8.343,8.3121,8.2983,8.3321,8.3422,8.3524,8.393,8.3998,8.4133,8.4539,8.464,8.464,8.464,8.464,8.464,8.464,8.4336,8.3964,8.3558,8.2915,8.2171,8.1393,8.0987,8.0648,8.0242,8.0209,8.0344,8.0682,8.1359,8.1799,8.1799,8.3186,8.4167,8.4539,8.5283,8.623,8.738,8.7854,8.7854,8.7414,8.7854,8.8226,8.8497,8.8564,8.8767,5.9501,6.2291,6.5228,6.5632,6.5925,6.5925,6.5118,6.5044,6.4971,6.4383,6.5485,6.6659,6.7136,6.9265,7.0917,7.0844,7.3166,7.5442,7.6891,7.8552,7.9901,8.0817,8.1549,8.2355,8.3417,8.4175,8.4719,8.4913,8.6229,8.6995,8.6995,8.6995,8.6995,8.6995,8.6995,8.6995,8.6995,8.6995,8.6999,8.6932,8.3074,8.322,8.6969,8.6999,8.6995,8.7036,8.6996,8.4427,8.0583,8.5154,8.4367,8.0193,8.0185,8.0209,8.0175,8.0206,8.014,8.0209,8.0242,8.0479,8.0816,8.0915,8.0879,8.1353,8.3838,8.4656,8.4581,8.4581,8.4137,8.3828,8.4471,8.464,8.464,8.464,8.464,8.464,8.464,8.464,8.464,8.464,8.464,8.4573,8.4471,8.4031,8.3558,8.3219,8.2171,8.1393,8.1156,8.0581,8.0209,8.0209,8.031,8.0615,8.1224,8.2171,8.2746,8.2746,8.4167,8.5384,8.6264,8.6907,8.7516,8.8158,8.755,8.755,8.8158,8.755,8.7888,8.9072,8.8463,8.8497,6.0676,6.2732,6.398,6.2658,6.3429,6.4237,6.3392,6.3759,6.442,6.5007,6.5852,6.732,7.0073,6.9853,7.0367,7.3634,7.5128,7.6203,7.7155,7.7989,7.903,8.0406,8.0767,8.1672,8.3807,8.4348,8.5159,8.6554,8.6885,8.6995,8.6995,8.6995,8.6995,8.6995,8.6995,8.6995,8.6995,8.6995,8.701,8.7003,8.6281,8.6354,8.7003,8.7044,8.6995,8.6999,8.6967,8.4386,8.0547,8.5162,8.4292,8.0193,8.0185,8.0209,8.0208,8.0172,8.0219,8.0209,8.0175,8.1868,8.3942,8.3976,8.3974,8.4039,8.4483,8.4649,8.4573,8.4573,8.4505,8.4471,8.4606,8.464,8.464,8.464,8.464,8.464,8.464,8.464,8.464,8.464,8.464,8.4403,8.3795,8.4099,8.3828,8.19,8.1968,8.1799,8.0513,8.0276,8.0209,8.0209,8.075,8.1156,8.1257,8.3118,8.4268,8.4268,8.5723,8.7177,8.8531,8.87,8.8801,8.8903,8.8801,8.8801,8.8903,8.8801,8.8869,8.9072,8.897,8.897,5.9869,6.1484,6.2768,6.2915,6.4824,6.6586,6.6182,6.6402,6.6549,6.6035,6.6916,6.8238,6.9743,7.0477,7.2165,7.624,7.6827,7.7378,7.9066,7.9523,8.0162,8.1259,8.1875,8.2749,8.4243,8.452,8.5275,8.6885,8.6995,8.6995,8.6995,8.6995,8.6995,8.6995,8.6995,8.6995,8.6995,8.6995,8.6969,8.6976,8.6969,8.7005,8.6976,8.6969,8.6995,8.6999,8.7008,8.5771,8.4059,8.6182,8.4282,8.0222,8.0179,8.0192,8.0513,8.2998,8.2328,8.0467,8.2072,8.3496,8.4656,8.4653,8.4649,8.4577,8.4577,8.4539,8.464,8.464,8.464,8.464,8.464,8.464,8.464,8.464,8.464,8.464,8.464,8.464,8.464,8.464,8.464,8.4505,8.4167,8.3727,8.3084,8.2035,8.1494,8.0987,8.0276,8.0209,8.0344,8.075,8.1088,8.1765,8.2983,8.3659,8.4539,8.579,8.6535,8.738,8.8463,8.8125,8.8091,8.8497,8.8091,8.8091,8.8497,8.8497,8.87,8.9072,8.9072,8.9072,5.9501,6.097,6.2585,6.4237,6.6512,6.8458,6.8825,6.8898,6.8678,6.7797,6.8605,6.9596,6.9963,7.1835,7.4368,7.7524,7.7781,7.8405,8.0681,8.1012,8.1305,8.2113,8.292,8.3728,8.4535,8.4615,8.5312,8.6885,8.6995,8.6995,8.6995,8.6995,8.6995,8.6995,8.6995,8.6995,8.6995,8.6995,8.6995,8.6995,8.6995,8.6995,8.6995,8.6995,8.6995,8.6962,8.7012,8.7012,8.7039,8.7026,8.4336,8.0292,8.1384,8.1804,8.2284,8.6544,8.5227,8.1509,8.3841,8.4547,8.4615,8.4573,8.464,8.464,8.464,8.464,8.464,8.464,8.464,8.464,8.464,8.464,8.464,8.464,8.464,8.464,8.464,8.464,8.464,8.464,8.464,8.4505,8.4167,8.3287,8.2475,8.1968,8.1088,8.0445,8.0445,8.0445,8.075,8.146,8.1866,8.2915,8.4979,8.4776,8.5215,8.6805,8.7076,8.7482,8.8226,8.7719,8.7685,8.8226,8.7719,8.7685,8.826,8.826,8.8531,8.9072,8.9072,8.9072,6.1006,6.2658,6.431,6.5925,6.6512,6.7063,6.8568,6.8898,6.9302,7.0697,7.1064,7.1578,7.3083,7.4735,7.5946,7.624,7.7524,7.9103,8.0755,8.1012,8.1305,8.2113,8.292,8.3728,8.4535,8.4615,8.5312,8.6885,8.6995,8.6995,8.6995,8.6995,8.6995,8.6995,8.6995,8.6995,8.6995,8.6995,8.6995,8.6995,8.6995,8.6995,8.6995,8.6995,8.6995,8.7031,8.6999,8.6999,8.6999,8.7003,8.4325,8.0584,8.4895,8.6514,8.6944,9.0226,8.8438,8.4327,8.4489,8.4543,8.4606,8.4606,8.464,8.464,8.464,8.464,8.464,8.464,8.464,8.464,8.464,8.464,8.464,8.464,8.464,8.464,8.464,8.464,8.464,8.464,8.464,8.42,8.2813,8.305,8.2712,8.0682,8.0851,8.119,8.119,8.119,8.1494,8.2238,8.3558,8.5012,8.6602,8.7313,8.7448,8.6941,8.755,8.826,8.897,8.897,8.897,8.9004,8.897,8.897,8.9004,8.9004,8.9038,8.9072,8.9072,8.9072,6.0566,6.2805,6.5118,6.6219,6.7614,6.9045,7.0146,7.0807,7.1468,7.2569,7.2789,7.2973,7.3597,7.5873,7.7488,7.6937,7.8259,7.9727,8.0828,8.1415,8.2039,8.2847,8.3654,8.4425,8.5049,8.5678,8.6302,8.6958,8.6995,8.6995,8.6995,8.6995,8.6995,8.6995,8.6995,8.6995,8.6995,8.6995,8.6995,8.6995,8.6995,8.6995,8.6995,8.6995,8.6995,8.6995,8.6995,8.6995,8.6999,8.7008,8.5985,8.4791,8.8538,9.0,9.0146,9.1332,8.879,8.4607,8.4592,8.4573,8.464,8.464,8.464,8.464,8.464,8.464,8.464,8.464,8.464,8.464,8.464,8.464,8.464,8.464,8.464,8.464,8.464,8.464,8.464,8.464,8.464,8.4302,8.3253,8.2949,8.2543,8.1697,8.1426,8.1629,8.2543,8.2272,8.2441,8.3659,8.5148,8.5892,8.552,8.7448,8.8158,8.6974,8.7583,8.8125,8.8395,8.8395,8.8632,8.9072,8.9072,8.9072,8.9072,8.9072,8.9072,8.9072,8.9072,8.9072,6.1128,6.3702,6.6565,6.741,6.8678,7.0146,7.1725,7.2496,7.334,7.4918,7.4808,7.4441,7.4441,7.6093,7.7488,7.7708,7.8883,8.0167,8.1232,8.2076,8.27,8.2964,8.4132,8.4976,8.5128,8.6297,8.6995,8.6995,8.6995,8.6995,8.6995,8.6995,8.6995,8.6995,8.6995,8.6995,8.6995,8.6995,8.6995,8.6995,8.6995,8.6995,8.6995,8.6995,8.6995,8.6995,8.6995,8.6995,8.6999,8.6976,8.7559,8.8686,9.0919,9.1764,9.184,9.1799,8.8757,8.4586,8.4592,8.464,8.464,8.464,8.464,8.464,8.464,8.464,8.464,8.464,8.464,8.464,8.464,8.464,8.464,8.464,8.464,8.464,8.464,8.464,8.464,8.464,8.464,8.4302,8.3321,8.2746,8.234,8.2103,8.1629,8.19,8.3625,8.3114,8.3182,8.446,8.5506,8.6155,8.6068,8.7439,8.8149,8.766,8.8023,8.8328,8.8328,8.8328,8.8564,8.9072,8.9072,8.9072,8.9072,8.9072,8.9072,8.9072,8.9072,8.9072,6.3149,6.5631,6.8836,6.9851,6.9522,6.9779,7.2973,7.3707,7.4625,7.7892,7.7268,7.613,7.6093,7.5469,7.5763,7.8185,7.9286,8.0351,8.1966,8.2884,8.3074,8.2311,8.4138,8.5202,8.4657,8.6045,8.6995,8.6995,8.6995,8.6995,8.6995,8.6995,8.6995,8.6995,8.6995,8.6995,8.6995,8.6995,8.6995,8.6995,8.6995,8.6995,8.6995,8.6995,8.6995,8.6995,8.6995,8.6995,8.7031,8.7002,8.894,9.1801,9.1801,9.1803,9.1766,9.1785,8.8738,8.4586,8.4592,8.464,8.464,8.464,8.464,8.464,8.464,8.464,8.464,8.464,8.464,8.464,8.464,8.464,8.464,8.464,8.464,8.464,8.464,8.464,8.464,8.464,8.464,8.4167,8.2678,8.2441,8.2171,8.1426,8.1325,8.2137,8.4336,8.3853,8.3605,8.4539,8.464,8.5835,8.8821,8.7733,8.752,8.899,8.9082,8.9072,8.9072,8.9072,8.9072,8.9072,8.9072,8.9072,8.9072,8.9072,8.9072,8.9072,8.9072,8.9072,6.113,6.4731,6.8845,6.8901,7.0585,7.2679,7.4221,7.4551,7.5139,7.7268,7.7781,7.7488,7.6313,7.7341,7.8405,7.8552,7.9764,8.1012,8.2039,8.2884,8.3544,8.3845,8.4762,8.5605,8.6192,8.6738,8.6995,8.6995,8.6995,8.6995,8.6995,8.6995,8.6995,8.6995,8.6995,8.6995,8.6995,8.6995,8.6995,8.6995,8.6995,8.6995,8.6995,8.6995,8.6995,8.6995,8.6995,8.6962,8.7219,8.9417,9.0921,9.1801,9.1803,9.1767,9.1766,9.1821,8.8738,8.4586,8.4592,8.464,8.464,8.464,8.464,8.464,8.464,8.464,8.464,8.464,8.464,8.464,8.464,8.464,8.464,8.464,8.464,8.464,8.464,8.464,8.464,8.464,8.464,8.4302,8.3355,8.3625,8.3896,8.3659,8.4099,8.4776,8.5581,8.667,8.6628,8.4808,8.4665,8.5413,8.7347,8.8047,8.8318,8.8057,8.87,8.8869,8.8328,8.8801,8.9072,8.9072,8.9072,8.9072,8.9072,8.9072,8.9072,8.9072,8.9072,8.9072,6.4372,6.7986,7.1743,7.187,7.3074,7.4478,7.5616,7.613,7.657,7.7194,7.8002,7.8295,7.7268,7.8332,7.936,7.9543,8.0388,8.1379,8.2517,8.3361,8.4168,8.4829,8.56,8.6297,8.6958,8.6995,8.6995,8.6995,8.6995,8.6995,8.6995,8.6995,8.6995,8.6995,8.6995,8.6995,8.6995,8.6995,8.6995,8.6995,8.6995,8.6995,8.6995,8.6995,8.6995,8.7031,8.6962,8.7696,8.9087,9.0994,9.1838,9.1803,9.1767,9.1803,9.1803,9.1846,8.8699,8.4547,8.4558,8.4624,8.4591,8.4591,8.4585,8.464,8.464,8.464,8.464,8.464,8.464,8.464,8.464,8.464,8.464,8.464,8.464,8.464,8.464,8.464,8.464,8.464,8.4573,8.4476,8.3998,8.4611,8.5018,8.4635,8.5547,8.6121,8.5566,8.7583,8.8448,8.6594,8.6374,8.6788,8.7727,8.8531,8.8835,8.8294,8.8767,8.8869,8.8463,8.8835,8.9072,8.9072,8.9072,8.9072,8.9072,8.9072,8.9072,8.9072,8.9072,8.9072,6.9942,7.298,7.5713,7.67,7.5983,7.5542,7.7084,7.7965,7.8259,7.7488,7.8002,7.8589,7.8589,7.8699,7.9286,8.0755,8.1048,8.1672,8.3177,8.4095,8.4829,8.5416,8.6371,8.6995,8.6995,8.6995,8.6995,8.6995,8.6995,8.6995,8.6995,8.6995,8.6995,8.6995,8.6995,8.6995,8.6995,8.6995,8.6995,8.6995,8.6995,8.7031,8.7031,8.7031,8.7031,8.7031,8.7329,8.9124,9.1801,9.1838,9.1803,9.1803,9.1803,9.1803,9.184,9.1799,8.9014,8.5263,8.5217,8.5286,8.5185,8.4747,8.4626,8.464,8.464,8.464,8.464,8.464,8.464,8.464,8.464,8.464,8.464,8.464,8.464,8.464,8.464,8.464,8.464,8.464,8.4611,8.4615,8.4471,8.5434,8.5947,8.5101,8.6248,8.6577,8.5144,8.7169,8.8787,8.9041,8.9101,8.9058,8.9058,8.9116,8.9072,8.9072,8.9072,8.9072,8.9072,8.9072,8.9072,8.9072,8.9072,8.9072,8.9072,8.9072,8.9072,8.9072,8.9072,8.9072,6.4985,6.8726,7.2614,7.3865,7.5453,7.7084,7.8112,7.7965,7.7561,7.7378,7.8002,7.8589,7.8589,7.9617,8.0608,8.0938,8.1525,8.2296,8.3287,8.4095,8.4866,8.5637,8.6481,8.6995,8.6995,8.6995,8.6995,8.6995,8.6995,8.6995,8.6995,8.6995,8.6995,8.6995,8.6995,8.6995,8.6995,8.6995,8.6995,8.6995,8.6995,8.6962,8.6966,8.6962,8.6962,8.7112,8.9638,9.1141,9.1801,9.1803,9.1767,9.1803,9.1803,9.1803,9.184,9.1799,9.1144,9.0275,9.0269,9.0248,8.9583,8.5857,8.4649,8.464,8.464,8.464,8.464,8.464,8.464,8.464,8.464,8.464,8.464,8.464,8.464,8.464,8.464,8.464,8.464,8.464,8.4601,8.4258,8.3066,8.5034,8.7,8.8057,8.8463,8.8453,8.8149,8.659,8.6489,8.8913,8.9116,8.915,8.915,8.9072,8.9072,8.9072,8.9072,8.9072,8.9072,8.9072,8.9072,8.9072,8.9072,8.9072,8.9072,8.9072,8.9072,8.9072,8.9072,8.9072,6.6851,7.0126,7.2884,7.4735,7.6258,7.7451,7.7892,7.7965,7.7928,7.7928,7.8589,7.9286,7.969,8.0755,8.1562,8.1562,8.226,8.3067,8.3875,8.4682,8.5453,8.6261,8.6738,8.6995,8.6995,8.6995,8.6995,8.6995,8.6995,8.6995,8.6995,8.6995,8.6995,8.6995,8.6995,8.6995,8.6995,8.6995,8.7031,8.6999,8.6999,8.7839,8.9268,8.7732,8.7879,8.9381,9.1068,9.1838,9.1803,9.1767,9.1803,9.1803,9.1803,9.1803,9.1767,9.1757,9.1785,9.1775,9.1788,9.0285,8.7935,8.5416,8.4592,8.464,8.464,8.464,8.464,8.464,8.464,8.464,8.464,8.464,8.464,8.464,8.464,8.464,8.464,8.4567,8.4635,8.4635,8.4595,8.4831,8.5446,8.6941,8.8226,8.897,8.9072,8.9038,8.9082,8.7767,8.7419,8.8947,8.915,8.9072,8.9072,8.9072,8.9072,8.9072,8.9072,8.9072,8.9072,8.9072,8.9072,8.9072,8.9072,8.9072,8.9072,8.9072,8.9072,8.9072,8.9072,8.9072,6.9119,7.2018,7.4001,7.7011,7.7524,7.7414,7.7671,7.8185,7.8626,7.8772,7.9433,8.0204,8.0901,8.1672,8.2186,8.2186,8.2884,8.3691,8.4499,8.527,8.6077,8.6921,8.6995,8.6995,8.6995,8.6995,8.6995,8.6995,8.6995,8.6995,8.6995,8.6995,8.6995,8.6995,8.6995,8.6995,8.6995,8.6995,8.6999,8.7002,8.7515,8.9197,9.1689,8.9053,8.9238,9.1801,9.1838,9.1803,9.1803,9.1803,9.1803,9.1803,9.1803,9.1803,9.1803,9.1803,9.1803,9.1767,9.1838,8.9184,8.5707,8.4901,8.4579,8.464,8.464,8.464,8.464,8.464,8.464,8.464,8.464,8.464,8.464,8.464,8.464,8.4567,8.4567,8.4561,8.4797,8.5236,8.5412,8.5952,8.8007,8.8719,8.9092,8.9072,8.9072,8.915,8.9126,8.9116,8.915,8.9092,8.9116,8.9072,8.9072,8.9072,8.9072,8.9072,8.9072,8.9072,8.9072,8.9072,8.9072,8.9072,8.9072,8.9072,8.9072,8.9072,8.9072,8.9072,8.9072,8.9072,6.3466,6.7797,7.2899,7.8148,7.8369,7.7708,7.914,7.9029,7.8809,7.9507,8.0277,8.0865,8.0975,8.1672,8.2186,8.2186,8.2884,8.3691,8.4499,8.527,8.6077,8.6921,8.6995,8.6995,8.6995,8.6995,8.6995,8.6995,8.6995,8.6995,8.6995,8.6995,8.6995,8.6995,8.6995,8.6995,8.6995,8.6995,8.6999,8.7039,8.9821,9.1397,9.1801,9.1326,9.1363,9.1801,9.1803,9.1803,9.1803,9.1803,9.1803,9.1803,9.1803,9.1803,9.1803,9.1803,9.1803,9.1802,9.1824,9.1354,9.01,8.5958,8.4581,8.464,8.464,8.464,8.464,8.464,8.464,8.464,8.464,8.464,8.464,8.464,8.4635,8.4629,8.4629,8.4662,8.5412,8.798,8.8531,8.7761,8.556,8.7396,8.9092,8.9072,8.9072,8.9072,8.9038,8.9072,8.9072,8.9038,8.9072,8.9072,8.9072,8.9072,8.9072,8.9072,8.9072,8.9072,8.9072,8.9072,8.9072,8.9072,8.9072,8.9072,8.9072,8.9072,8.9072,8.9072,8.9072,8.9072,6.4787,6.9045,7.301,7.7341,7.7855,7.7524,7.8222,7.8846,7.936,7.9727,8.0791,8.1672,8.1672,8.1966,8.2333,8.281,8.3544,8.4352,8.5159,8.5967,8.6591,8.6958,8.6995,8.6995,8.6995,8.6995,8.6995,8.6995,8.6995,8.6995,8.6995,8.6995,8.6995,8.6995,8.6995,8.6995,8.6995,8.6999,8.7879,8.9711,9.1141,9.1803,9.1803,9.1767,9.1767,9.1803,9.1767,9.1803,9.1803,9.1803,9.1803,9.1803,9.1803,9.1803,9.1803,9.1803,9.1803,9.184,9.1848,9.0049,8.7458,8.5255,8.4557,8.464,8.464,8.464,8.464,8.464,8.464,8.464,8.464,8.464,8.464,8.4635,8.4629,8.5067,8.6771,8.7076,8.7558,8.8855,8.9101,8.8685,8.7385,8.8182,8.9092,8.9072,8.9072,8.9072,8.9072,8.9072,8.9072,8.9072,8.9072,8.9072,8.9072,8.9072,8.9072,8.9072,8.9072,8.9072,8.9072,8.9072,8.9072,8.9072,8.9072,8.9072,8.9072,8.9072,8.9072,8.9072,8.9072,8.9072,6.5999,6.9302,7.1651,7.5689,7.6717,7.6864,7.7488,7.8772,7.98,7.98,8.1085,8.2186,8.2186,8.2186,8.2443,8.3287,8.4095,8.4866,8.5673,8.6481,8.6995,8.6995,8.6995,8.6995,8.6995,8.6995,8.6995,8.6995,8.6995,8.6995,8.6995,8.6995,8.6995,8.6995,8.6995,8.6995,8.6995,8.7002,8.8613,9.1801,9.1839,9.1803,9.1803,9.1803,9.1803,9.1803,9.1803,9.1803,9.1803,9.1803,9.1803,9.1803,9.1803,9.1803,9.1803,9.1803,9.1803,9.184,9.1839,8.9492,8.622,8.5028,8.4609,8.464,8.464,8.464,8.464,8.464,8.464,8.464,8.464,8.4567,8.4601,8.4629,8.5169,8.6324,8.8617,8.9092,8.916,8.9072,8.9082,8.916,8.9072,8.9082,8.916,8.9072,8.9072,8.9072,8.9072,8.9072,8.9072,8.9072,8.9072,8.9072,8.9072,8.9072,8.9072,8.9072,8.9072,8.9072,8.9072,8.9072,8.9072,8.9072,8.9072,8.9072,8.9072,8.9072,8.9072,8.9072,8.9072,8.9072,6.4127,6.5595,6.7173,7.3487,7.5028,7.5652,7.8002,7.9176,7.98,7.98,8.1085,8.2186,8.2186,8.2186,8.2443,8.3287,8.4095,8.4866,8.5673,8.6481,8.6995,8.6995,8.6995,8.6995,8.6995,8.6995,8.6995,8.6995,8.6995,8.6995,8.6995,8.6995,8.6995,8.6995,8.6995,8.6995,8.6995,8.7005,8.8615,9.1801,9.1839,9.1803,9.1803,9.1803,9.1803,9.1803,9.1803,9.1803,9.1803,9.1803,9.1803,9.1803,9.1803,9.1803,9.1803,9.1803,9.1803,9.184,9.1842,9.1655,9.0692,8.6046,8.4591,8.464,8.464,8.464,8.464,8.464,8.464,8.464,8.464,8.4635,8.4555,8.4555,8.6805,8.8888,8.9024,8.9048,8.9072,8.9072,8.9072,8.9072,8.9072,8.9072,8.9072,8.9072,8.9072,8.9072,8.9072,8.9072,8.9072,8.9072,8.9072,8.9072,8.9072,8.9072,8.9072,8.9072,8.9072,8.9072,8.9072,8.9072,8.9072,8.9072,8.9072,8.9072,8.9072,8.9072,8.9072,8.9072,8.9072,8.9072,6.3356,6.4897,6.6476,7.1394,7.378,7.5139,7.6019,7.8479,8.0424,7.991,8.1085,8.2186,8.2186,8.2627,8.3251,8.4058,8.4866,8.5637,8.6481,8.6811,8.6995,8.6995,8.6995,8.6995,8.6995,8.6995,8.6995,8.6995,8.6995,8.6995,8.6995,8.6995,8.6995,8.6995,8.6995,8.6999,8.6969,8.9087,9.0664,9.1839,9.1767,9.1803,9.1803,9.1803,9.1803,9.1803,9.1803,9.1803,9.1803,9.1803,9.1803,9.1803,9.1803,9.1803,9.1803,9.1803,9.1803,9.1767,9.1762,9.1831,9.1051,8.6171,8.4579,8.464,8.464,8.464,8.464,8.464,8.464,8.464,8.464,8.4635,8.5101,8.7008,8.8346,8.9092,8.9082,8.915,8.9072,8.9072,8.9072,8.9072,8.9072,8.9072,8.9072,8.9072,8.9072,8.9072,8.9072,8.9072,8.9072,8.9072,8.9072,8.9072,8.9072,8.9072,8.9072,8.9072,8.9072,8.9072,8.9072,8.9072,8.9072,8.9072,8.9072,8.9072,8.9072,8.9072,8.9072,8.9072,8.9072,8.9072,6.1961,6.3649,6.5375,6.9155,7.1505,7.3303,7.4955,7.7635,7.9837,8.0131,8.1269,8.2186,8.2186,8.3067,8.3985,8.4499,8.527,8.6077,8.6885,8.6995,8.6995,8.6995,8.6995,8.6995,8.6995,8.6995,8.6995,8.6995,8.6995,8.6995,8.6995,8.6995,8.6995,8.6995,8.6995,8.6966,8.7008,9.0186,9.1764,9.1803,9.1803,9.1803,9.1803,9.1803,9.1803,9.1803,9.1803,9.1803,9.1803,9.1803,9.1803,9.1803,9.1803,9.1803,9.1803,9.1803,9.1803,9.1767,9.1838,9.1795,9.1015,8.6136,8.4579,8.464,8.464,8.464,8.464,8.464,8.464,8.464,8.4601,8.5344,8.6358,8.7338,8.8371,8.9092,8.9082,8.915,8.9072,8.9072,8.9072,8.9072,8.9072,8.9072,8.9072,8.9072,8.9072,8.9072,8.9072,8.9072,8.9072,8.9072,8.9072,8.9072,8.9072,8.9072,8.9072,8.9072,8.9072,8.9072,8.9072,8.9072,8.9072,8.9072,8.9072,8.9072,8.9072,8.9072,8.9072,8.9072,8.9072,8.9072,0.0,0.0,0.0,6.6733,6.8238,7.0146,7.4808,7.6607,7.7965,8.0388,8.1525,8.2113,8.2186,8.3508,8.4609,8.4609,8.5306,8.6114,8.6885,8.6995,8.6995,8.6995,8.6995,8.6995,8.6995,8.6995,8.6995,8.6995,8.6995,8.6995,8.6995,8.6995,8.6995,8.6995,8.7031,8.6966,8.7008,9.0186,9.1764,9.1803,9.1803,9.1803,9.1803,9.1803,9.1803,9.1803,9.1803,9.1803,9.1803,9.1803,9.1803,9.1803,9.1803,9.1803,9.1803,9.1803,9.1803,9.1767,9.1799,9.1727,9.0799,8.615,8.466,8.464,8.464,8.464,8.464,8.464,8.464,8.4601,8.473,8.6839,8.8269,8.5403,8.6991,8.9024,8.8956,8.8981,8.9004,8.9072,8.9072,8.9072,8.9072,8.9072,8.9072,8.9072,8.9072,8.9072,8.9072,8.9072,8.9072,8.9072,8.9072,8.9072,8.9072,8.9072,8.9072,8.9072,8.9072,8.9072,8.9072,8.9072,8.9072,8.9072,8.9072,8.9072,8.9072,8.9072,8.9072,8.9072,8.9072,8.9072,5.8217,0.0,0.0,0.0,0.0,0.0,7.0587,7.334,7.6093,7.7965,7.8993,8.0131,8.1856,8.3508,8.4609,8.4609,8.5747,8.6738,8.6995,8.6995,8.6995,8.6995,8.6995,8.6995,8.6995,8.6995,8.6995,8.6995,8.6995,8.6995,8.6995,8.6995,8.6995,8.6995,8.6999,8.7039,8.7008,9.0188,9.1838,9.1803,9.1803,9.1803,9.1803,9.1803,9.1803,9.1803,9.1803,9.1803,9.1803,9.1803,9.1803,9.1803,9.1803,9.1803,9.1803,9.1803,9.1803,9.1767,9.1799,8.9556,8.634,8.4993,8.466,8.464,8.464,8.4601,8.4561,8.4567,8.4595,8.5127,8.7279,8.6873,8.6189,8.7583,8.8481,8.8558,8.6264,8.5884,8.6499,8.8676,8.9116,8.9072,8.9072,8.9072,8.9072,8.9072,8.9072,8.9072,8.9072,8.9072,8.9072,8.9072,8.9072,8.9072,8.9072,8.9072,8.9072,8.9072,8.9072,8.9072,8.9072,8.9072,8.9072,8.9072,8.9072,8.9072,8.9072,8.9072,8.9072,8.9072,8.9072,8.9072,5.7831,5.9428,6.13,6.2952,0.0,0.0,7.0734,7.2973,7.5359,7.8662,7.9764,8.0534,8.1929,8.3251,8.4095,8.4095,8.5453,8.6628,8.6958,8.6995,8.6995,8.6995,8.6995,8.6995,8.6995,8.6995,8.6995,8.6995,8.6995,8.6995,8.6995,8.6995,8.6995,8.6995,8.7036,8.7625,8.8979,9.0884,9.1766,9.1803,9.1803,9.1803,9.1803,9.1803,9.1803,9.1803,9.1803,9.1803,9.1803,9.1803,9.1803,9.1803,9.1803,9.1803,9.1803,9.1803,9.1803,9.1767,9.1799,8.8637,8.4634,8.4604,8.4655,8.4659,8.4577,8.4635,8.4831,8.6147,8.6481,8.6602,8.7034,8.6873,8.6914,8.8693,8.8142,8.6696,8.4967,8.5581,8.7058,8.8777,8.9116,8.9072,8.9072,8.9072,8.9072,8.9072,8.9072,8.9072,8.9072,8.9072,8.9072,8.9072,8.9072,8.9072,8.9072,8.9072,8.9072,8.9072,8.9072,8.9072,8.9072,8.9072,8.9072,8.9072,8.9072,8.9072,8.9072,8.9072,8.9072,8.9072,8.9072,8.9072,5.8252,5.9832,6.2071,6.3466,6.4163,0.0,7.2422,7.3413,7.4551,7.9874,8.0975,8.1085,8.1452,8.2186,8.2737,8.2737,8.4242,8.5747,8.6738,8.6958,8.6995,8.6995,8.6995,8.6995,8.6995,8.6995,8.6995,8.6995,8.6995,8.6995,8.6995,8.6995,8.7031,8.7031,8.6966,8.8573,9.1726,9.1801,9.1803,9.1803,9.1803,9.1803,9.1803,9.1803,9.1803,9.1803,9.1803,9.1803,9.1803,9.1803,9.1803,9.1803,9.1803,9.1803,9.1803,9.1803,9.1803,9.1767,9.1799,8.8978,8.5431,8.5391,8.5042,8.4579,8.4554,8.464,8.5175,8.7829,8.8863,8.8368,8.5431,8.6873,8.9049,8.8701,8.6527,8.4707,8.5086,8.7169,8.9092,8.9038,8.9072,8.9072,8.9072,8.9072,8.9072,8.9072,8.9072,8.9072,8.9072,8.9072,8.9072,8.9072,8.9072,8.9072,8.9072,8.9072,8.9072,8.9072,8.9072,8.9072,8.9072,8.9072,8.9072,8.9072,8.9072,8.9072,8.9072,8.9072,8.9072,8.9072,8.9072,8.9072,5.8887,6.0236,6.2511,6.2181,6.4567,0.0,6.7173,6.8054,6.9743,7.2789,7.345,7.4221,7.6827,7.7965,7.8516,7.8516,8.0975,8.3618,8.5747,8.6591,8.6995,8.6995,8.6995,8.6995,8.6995,8.6995,8.6995,8.6995,8.6995,8.6995,8.6995,8.6995,8.6962,8.6966,8.7005,8.8542,9.1764,9.1803,9.1767,9.1803,9.1803,9.1803,9.1803,9.1803,9.1803,9.1803,9.1803,9.1803,9.1803,9.1803,9.1803,9.1803,9.1803,9.1803,9.1803,9.1803,9.1803,9.1767,9.1799,9.118,9.0383,9.0375,8.7795,8.4639,8.4548,8.4556,8.4689,8.5371,8.7185,8.8354,8.5379,8.6865,8.8422,8.608,8.5086,8.5254,8.7735,8.8727,8.9092,8.9038,8.9072,8.9072,8.9072,8.9072,8.9072,8.9072,8.9072,8.9072,8.9072,8.9072,8.9072,8.9072,8.9072,8.9072,8.9072,8.9072,8.9072,8.9072,8.9072,8.9072,8.9072,8.9072,8.9072,8.9072,8.9072,8.9072,8.9072,8.9072,8.9072,8.9072,8.9072,8.9072,5.9136,6.0052,6.2328,6.2732,6.4053,0.0,0.0,6.8311,6.9302,7.2973,7.3377,7.3854,7.6276,7.6387,7.6387,7.7194,7.9727,8.1966,8.3088,8.5411,8.6995,8.6995,8.6995,8.6995,8.6995,8.6995,8.6995,8.6995,8.6995,8.6995,8.6995,8.6995,8.6962,8.7002,8.8539,9.0152,9.1801,9.1839,9.1803,9.1803,9.1803,9.1803,9.1803,9.1803,9.1803,9.1803,9.1803,9.1803,9.1803,9.1803,9.1803,9.1803,9.1803,9.1803,9.1803,9.1803,9.1803,9.1767,9.1757,9.1826,9.1812,9.1813,9.017,8.7771,8.5376,8.4649,8.4884,8.6417,8.6831,8.6797,8.6856,8.8007,8.8402,8.5371,8.4573,8.5389,8.8422,8.9101,8.9082,8.9072,8.9072,8.9072,8.9072,8.9072,8.9072,8.9072,8.9072,8.9072,8.9072,8.9072,8.9072,8.9072,8.9072,8.9072,8.9072,8.9072,8.9072,8.9072,8.9072,8.9072,8.9072,8.9072,8.9072,8.9072,8.9072,8.9072,8.9072,8.9072,8.9072,8.9072,8.9072,8.9072,6.0498,6.0823,6.2768,6.3833,6.3906,6.4824,0.0,0.0,0.0,7.3413,7.3854,7.3964,7.5432,7.4771,7.4368,7.5506,7.7928,7.957,7.9363,8.2978,8.5962,8.6875,8.7036,8.6969,8.6958,8.7027,8.6958,8.6995,8.7027,8.7027,8.6995,8.6995,8.6962,8.7002,9.0147,9.1799,9.1801,9.1839,9.1803,9.1803,9.1803,9.1803,9.1803,9.1803,9.1803,9.1803,9.1803,9.1803,9.1803,9.1803,9.1803,9.1803,9.1803,9.1803,9.1803,9.1803,9.1803,9.1803,9.1803,9.1803,9.1802,9.1835,9.1193,8.9774,8.6437,8.506,8.5178,8.8202,8.7304,8.6037,8.8515,8.8667,8.7647,8.5169,8.4648,8.5389,8.8456,8.9092,8.9072,8.9072,8.9072,8.9072,8.9072,8.9072,8.9072,8.9072,8.9072,8.9072,8.9072,8.9072,8.9072,8.9072,8.9072,8.9072,8.9072,8.9072,8.9072,8.9072,8.9072,8.9072,8.9072,8.9072,8.9072,8.9072,8.9072,8.9072,8.9072,8.9072,8.9072,8.9072,8.9072,8.9072,6.5027,6.464,6.5632,6.442,6.5632,6.6733,6.5264,0.0,6.6072,6.732,0.0,6.8788,6.9706,0.0,0.0,6.9963,7.272,7.4874,7.4838,7.821,8.2239,8.6508,8.7011,8.7008,8.6985,8.7047,8.7016,8.6995,8.6979,8.701,8.6995,8.6995,8.6962,8.7002,9.0147,9.1799,9.1801,9.1839,9.1803,9.1803,9.1803,9.1803,9.1803,9.1803,9.1803,9.1803,9.1803,9.1803,9.1803,9.1803,9.1803,9.1803,9.1803,9.1803,9.1803,9.1803,9.1803,9.1803,9.1803,9.1803,9.184,9.1802,8.8886,8.5788,8.7914,8.6738,8.5202,8.821,8.8821,8.8632,8.9041,8.7076,8.5052,8.4674,8.464,8.5422,8.8481,8.9048,8.9072,8.9072,8.9072,8.9072,8.9072,8.9072,8.9072,8.9072,8.9072,8.9072,8.9072,8.9072,8.9072,8.9072,8.9072,8.9072,8.9072,8.9072,8.9072,8.9072,8.9072,8.9072,8.9072,8.9072,8.9072,8.9072,8.9072,8.9072,8.9072,8.9072,8.9072,8.9072,8.9072,8.9072,6.5868,6.6086,6.721,6.5294,6.6256,6.7283,6.5815,6.5742,6.6366,6.765,0.0,0.0,0.0,0.0,0.0,0.0,7.0254,7.104,7.2904,7.9386,8.3645,8.2892,8.5287,8.7715,8.9596,8.8056,8.4646,7.8989,8.381,8.701,8.701,8.7044,8.6962,8.7002,8.8319,8.9895,9.1801,9.1839,9.1803,9.1803,9.1803,9.1803,9.1803,9.1803,9.1803,9.1803,9.1803,9.1803,9.1803,9.1803,9.1803,9.1803,9.1803,9.1803,9.1803,9.1803,9.1803,9.1803,9.1803,9.1803,9.1803,9.1821,8.8544,8.5151,8.822,8.8252,8.7497,8.8719,8.9169,8.9092,8.9075,8.6873,8.4606,8.4588,8.5877,8.755,8.8795,8.9126,8.9072,8.9072,8.9072,8.9072,8.9072,8.9072,8.9072,8.9072,8.9072,8.9072,8.9072,8.9072,8.9072,8.9072,8.9072,8.9072,8.9072,8.9072,8.9072,8.9072,8.9072,8.9072,8.9072,8.9072,8.9072,8.9072,8.9072,8.9072,8.9072,8.9072,8.9072,8.9072,8.9072,8.9072,6.7659,6.785,6.8554,6.5934,6.6182,6.6769,6.5705,6.5852,6.6512,6.7687,6.7981,0.0,0.0,0.0,6.8458,6.9798,0.0,6.8528,7.0844,7.8042,8.139,7.6974,7.9595,8.4322,9.109,8.9678,8.3474,7.1802,8.0529,8.6568,8.6938,8.6974,8.7044,8.6966,8.7042,8.8542,9.1764,9.1803,9.1803,9.1803,9.1803,9.1803,9.1803,9.1803,9.1803,9.1803,9.1803,9.1803,9.1803,9.1803,9.1803,9.1803,9.1803,9.1803,9.1803,9.1803,9.1803,9.1803,9.1803,9.1803,9.1802,9.1775,8.8509,8.513,8.8225,8.909,8.9082,8.9092,8.9058,8.8965,8.8116,8.6257,8.485,8.5621,8.6881,8.81,8.8897,8.9126,8.9072,8.9072,8.9072,8.9072,8.9072,8.9072,8.9072,8.9072,8.9072,8.9072,8.9072,8.9072,8.9072,8.9072,8.9072,8.9072,8.9072,8.9072,8.9072,8.9072,8.9072,8.9072,8.9072,8.9072,8.9072,8.9072,8.9072,8.9072,8.9072,8.9072,8.9072,8.9072,8.9072,8.9072,7.208,7.0843,7.0027,6.6243,6.5338,6.4971,6.3319,6.4163,6.5375,6.5411,6.7247,6.8641,6.7907,6.8385,6.8641,6.7907,6.7726,0.0,0.0,7.0809,7.1765,6.8466,6.8255,7.4475,9.0284,9.1689,8.4817,6.8254,7.7992,8.5339,8.6902,8.7017,8.7042,8.6962,8.7005,8.8542,9.1797,9.1803,9.1803,9.1803,9.1803,9.1803,9.1803,9.1803,9.1803,9.1803,9.1803,9.1803,9.1803,9.1803,9.1803,9.1803,9.1803,9.1803,9.1803,9.1803,9.1803,9.1803,9.1803,9.1803,9.1803,9.1792,8.8556,8.5182,8.8177,8.9152,8.9058,8.9058,8.9058,8.8448,8.5439,8.4648,8.5321,8.8252,8.6839,8.5557,8.8531,8.9072,8.9072,8.9072,8.9072,8.9072,8.9072,8.9072,8.9072,8.9072,8.9072,8.9072,8.9072,8.9072,8.9072,8.9072,8.9072,8.9072,8.9072,8.9072,8.9072,8.9072,8.9072,8.9072,8.9072,8.9072,8.9072,8.9072,8.9072,8.9072,8.9072,8.9072,8.9072,8.9072,8.9072,8.9072,7.5425,7.5568,7.5106,6.9811,6.9669,6.9853,6.6109,6.6512,6.754,6.699,6.7944,6.8641,6.7834,6.7907,6.8017,6.7724,6.7724,6.8421,0.0,7.1821,7.2097,7.0991,7.0896,7.2018,7.5001,7.5292,7.2101,6.4472,7.6702,8.4801,8.5358,8.6393,8.7027,8.701,8.6975,8.8539,9.1797,9.1801,9.1803,9.1803,9.1803,9.1803,9.1803,9.1803,9.1803,9.1803,9.1803,9.1803,9.1803,9.1803,9.1803,9.1803,9.1803,9.1803,9.1803,9.1803,9.1803,9.1803,9.1803,9.1803,9.1803,9.1829,9.0724,8.9354,8.9175,8.9149,8.8666,8.6711,8.6062,8.6316,8.7335,8.6061,8.4824,8.5898,8.6914,8.782,8.8897,8.9126,8.9072,8.9072,8.9072,8.9072,8.9072,8.9072,8.9072,8.9072,8.9072,8.9072,8.9072,8.9072,8.9072,8.9072,8.9072,8.9072,8.9072,8.9072,8.9072,8.9072,8.9072,8.9067,8.9077,8.9109,8.9067,8.9077,8.9143,8.9072,8.9072,8.9072,8.9072,8.9072,8.9072,8.9072,7.8364,7.8548,7.7984,7.3008,7.2723,7.2569,6.8311,6.8605,6.9522,6.8715,6.8752,6.9265,7.0477,6.9045,6.767,6.7707,6.7689,6.8421,0.0,7.1784,7.2078,7.0937,7.0821,7.0263,6.8956,6.8837,6.9481,7.1041,7.8525,8.3434,8.4564,8.4556,8.5347,8.695,8.6976,8.7989,9.011,9.125,9.1766,9.1839,9.1767,9.1803,9.1803,9.1803,9.1803,9.1803,9.1803,9.1803,9.1803,9.1803,9.1803,9.1803,9.1803,9.1803,9.1803,9.1803,9.1803,9.1803,9.1803,9.1803,9.1803,9.1817,9.2556,9.2977,9.0037,8.9122,8.8674,8.6797,8.5413,8.501,8.6996,8.6102,8.4622,8.4669,8.6095,8.7761,8.8905,8.9058,8.9116,8.9072,8.9072,8.9072,8.9072,8.9072,8.9072,8.9072,8.9072,8.9072,8.9072,8.9072,8.9072,8.9072,8.9072,8.9072,8.9072,8.9072,8.9072,8.9072,8.9143,8.9141,8.9122,9.0838,9.0982,8.9179,8.908,8.9136,8.9046,8.9136,8.9375,8.9979,8.9962,8.9847]},{"header":{"parameterUnit":"m.s-1","parameterCategory":1,"la1":30.6,"la2":29.2853,"lo1":-89.7004,"lo2":-87.6739,"dx":0.0162,"dy":0.0183,"nx":112,"ny":82,"refTime":"2022-12-15T06:00:00:Z","depth":0,"parameterNumber":3,"parameterNumberName":"V-component_of_WINDS"},"data":[0.0,0.0,0.0,0.0,0.0,0.0,0.0,0.0,0.0,0.0,0.0,0.0,0.0,0.0,0.0,0.0,0.0,0.0,0.0,0.0,0.0,0.0,0.0,0.0,0.0,0.0,0.0,0.0,0.0,0.0,0.0,0.0,0.0,0.0,0.0,0.0,0.0,0.0,0.0,0.0,0.0,0.0,0.0,0.0,0.0,0.0,0.0,0.0,0.0,0.0,0.0,0.0,0.0,0.0,0.0,0.0,0.0,0.0,0.0,0.0,0.0,0.0,0.0,0.0,0.0,0.0,0.0,0.0,0.0,0.0,0.0,0.0,0.0,0.0,0.0,0.0,0.0,0.0,0.0,0.0,0.0,0.0,0.0,0.0,0.0,0.0,0.0,0.0,0.0,0.0,-3.3586,-3.4653,-3.5265,-3.5488,-3.5488,-3.5488,-3.4624,-3.265,0.0,0.0,0.0,0.0,0.0,0.0,0.0,0.0,0.0,0.0,0.0,0.0,0.0,0.0,0.0,0.0,0.0,0.0,0.0,0.0,0.0,0.0,0.0,0.0,0.0,0.0,0.0,0.0,0.0,0.0,0.0,0.0,0.0,0.0,0.0,0.0,0.0,0.0,0.0,0.0,0.0,0.0,0.0,0.0,0.0,0.0,0.0,0.0,0.0,0.0,0.0,0.0,0.0,0.0,0.0,0.0,0.0,0.0,0.0,0.0,0.0,0.0,0.0,0.0,0.0,0.0,0.0,0.0,0.0,0.0,0.0,0.0,0.0,0.0,0.0,0.0,0.0,0.0,0.0,0.0,0.0,0.0,0.0,0.0,0.0,0.0,0.0,0.0,0.0,0.0,0.0,0.0,0.0,0.0,0.0,0.0,0.0,0.0,0.0,0.0,0.0,0.0,0.0,0.0,-3.414,-3.524,-3.5697,-3.5918,-3.5918,-3.5918,-3.5429,-3.4199,0.0,0.0,0.0,0.0,0.0,0.0,0.0,0.0,0.0,0.0,0.0,0.0,0.0,0.0,0.0,0.0,0.0,0.0,0.0,0.0,0.0,0.0,0.0,0.0,0.0,0.0,0.0,0.0,0.0,0.0,0.0,0.0,0.0,0.0,0.0,0.0,0.0,0.0,0.0,0.0,0.0,0.0,0.0,0.0,0.0,0.0,0.0,0.0,0.0,0.0,0.0,0.0,0.0,0.0,0.0,0.0,0.0,0.0,0.0,0.0,0.0,0.0,0.0,0.0,0.0,0.0,0.0,0.0,0.0,0.0,0.0,0.0,0.0,0.0,0.0,0.0,0.0,0.0,0.0,0.0,0.0,0.0,0.0,0.0,0.0,0.0,0.0,0.0,0.0,0.0,0.0,0.0,0.0,0.0,0.0,0.0,0.0,0.0,0.0,0.0,0.0,0.0,0.0,-3.3918,-3.4143,-3.5323,-3.5762,-3.6016,-3.6016,-3.6016,-3.5391,-3.401,-3.4115,0.0,0.0,0.0,0.0,0.0,0.0,0.0,0.0,0.0,0.0,0.0,0.0,0.0,0.0,0.0,0.0,0.0,0.0,0.0,0.0,0.0,0.0,0.0,0.0,0.0,0.0,0.0,0.0,0.0,0.0,0.0,0.0,0.0,0.0,0.0,0.0,0.0,0.0,0.0,0.0,0.0,0.0,0.0,0.0,0.0,0.0,0.0,0.0,0.0,0.0,0.0,0.0,0.0,0.0,0.0,0.0,0.0,0.0,0.0,0.0,0.0,0.0,0.0,0.0,0.0,0.0,0.0,0.0,0.0,0.0,0.0,0.0,0.0,0.0,0.0,0.0,0.0,0.0,0.0,0.0,0.0,0.0,0.0,0.0,0.0,0.0,0.0,0.0,0.0,0.0,0.0,0.0,0.0,0.0,0.0,0.0,0.0,0.0,0.0,0.0,0.0,0.0,-3.4624,-3.478,-3.5446,-3.582,-3.6055,-3.6172,-3.6172,-3.55,-3.4148,-3.4501,0.0,0.0,0.0,0.0,0.0,0.0,0.0,0.0,0.0,0.0,0.0,0.0,0.0,0.0,0.0,0.0,0.0,0.0,0.0,0.0,0.0,0.0,0.0,0.0,0.0,0.0,0.0,0.0,0.0,0.0,0.0,0.0,0.0,0.0,0.0,0.0,0.0,0.0,0.0,0.0,0.0,0.0,0.0,0.0,0.0,0.0,0.0,0.0,0.0,0.0,0.0,0.0,0.0,0.0,0.0,0.0,0.0,0.0,0.0,0.0,0.0,0.0,0.0,0.0,0.0,0.0,0.0,0.0,0.0,0.0,0.0,0.0,0.0,0.0,0.0,0.0,0.0,0.0,0.0,0.0,0.0,0.0,0.0,0.0,0.0,0.0,0.0,0.0,0.0,0.0,0.0,0.0,0.0,0.0,0.0,0.0,0.0,0.0,0.0,0.0,0.0,0.0,-3.621,-3.7102,-3.6034,-3.5996,-3.6191,-3.6582,-3.6621,-3.6466,-3.5881,-3.5435,0.0,0.0,0.0,0.0,0.0,0.0,0.0,0.0,0.0,0.0,0.0,0.0,0.0,0.0,0.0,0.0,0.0,0.0,0.0,0.0,0.0,0.0,0.0,0.0,0.0,0.0,0.0,0.0,0.0,0.0,0.0,0.0,0.0,0.0,0.0,0.0,0.0,0.0,0.0,0.0,0.0,0.0,0.0,0.0,0.0,0.0,0.0,0.0,0.0,0.0,0.0,0.0,0.0,0.0,0.0,0.0,0.0,0.0,0.0,0.0,0.0,0.0,0.0,0.0,0.0,0.0,0.0,0.0,0.0,0.0,0.0,0.0,0.0,0.0,0.0,0.0,0.0,0.0,0.0,0.0,0.0,0.0,0.0,0.0,0.0,0.0,0.0,0.0,0.0,0.0,0.0,0.0,0.0,0.0,0.0,0.0,0.0,0.0,0.0,0.0,0.0,0.0,-3.4793,-3.5261,-3.5879,-3.6269,-3.6484,-3.666,-3.668,-3.637,-3.5713,0.0,0.0,0.0,0.0,0.0,0.0,0.0,0.0,0.0,0.0,0.0,0.0,0.0,0.0,0.0,0.0,0.0,0.0,0.0,0.0,0.0,0.0,0.0,0.0,0.0,0.0,0.0,0.0,0.0,0.0,0.0,0.0,0.0,0.0,0.0,0.0,0.0,0.0,0.0,0.0,0.0,0.0,0.0,0.0,0.0,0.0,0.0,0.0,0.0,0.0,0.0,0.0,0.0,0.0,0.0,0.0,0.0,0.0,0.0,0.0,0.0,0.0,0.0,0.0,0.0,0.0,0.0,0.0,0.0,0.0,0.0,0.0,0.0,0.0,0.0,0.0,0.0,0.0,0.0,0.0,0.0,0.0,0.0,0.0,0.0,0.0,0.0,0.0,0.0,0.0,0.0,0.0,0.0,0.0,0.0,0.0,0.0,0.0,0.0,0.0,0.0,0.0,-3.4274,-3.437,-3.4766,-3.6074,-3.6484,-3.6777,-3.7051,-3.707,-3.6694,-3.5521,0.0,0.0,0.0,0.0,0.0,0.0,0.0,0.0,0.0,0.0,0.0,0.0,0.0,0.0,0.0,0.0,0.0,0.0,0.0,0.0,0.0,0.0,0.0,0.0,0.0,0.0,0.0,0.0,0.0,0.0,0.0,0.0,0.0,0.0,0.0,0.0,0.0,0.0,0.0,0.0,0.0,0.0,0.0,0.0,0.0,0.0,0.0,0.0,0.0,0.0,0.0,0.0,0.0,0.0,0.0,0.0,0.0,0.0,0.0,0.0,0.0,0.0,0.0,0.0,0.0,0.0,0.0,0.0,0.0,0.0,0.0,0.0,0.0,0.0,0.0,0.0,0.0,0.0,0.0,0.0,0.0,0.0,0.0,0.0,0.0,0.0,0.0,0.0,0.0,0.0,0.0,0.0,0.0,0.0,0.0,0.0,0.0,0.0,0.0,0.0,0.0,0.0,-3.4515,-3.535,-3.6191,-3.6621,-3.668,-3.7031,-3.7851,-3.793,-3.7173,0.0,0.0,0.0,0.0,0.0,0.0,0.0,0.0,0.0,0.0,0.0,0.0,0.0,0.0,0.0,0.0,0.0,0.0,0.0,0.0,0.0,0.0,0.0,0.0,0.0,0.0,0.0,0.0,0.0,0.0,0.0,0.0,0.0,0.0,0.0,0.0,0.0,0.0,0.0,0.0,0.0,0.0,0.0,0.0,0.0,0.0,0.0,0.0,0.0,0.0,0.0,0.0,0.0,0.0,0.0,0.0,0.0,0.0,0.0,0.0,0.0,0.0,0.0,0.0,0.0,0.0,0.0,0.0,0.0,0.0,0.0,0.0,0.0,0.0,0.0,0.0,0.0,0.0,0.0,0.0,0.0,0.0,0.0,0.0,0.0,0.0,0.0,0.0,0.0,0.0,0.0,0.0,0.0,0.0,0.0,0.0,0.0,0.0,0.0,0.0,0.0,0.0,0.0,-3.5043,-3.5947,-3.6523,-3.666,-3.7207,-3.7656,-3.791,-3.793,-3.7014,-3.5102,0.0,0.0,0.0,0.0,0.0,0.0,0.0,0.0,0.0,0.0,0.0,0.0,0.0,0.0,0.0,0.0,0.0,0.0,0.0,0.0,0.0,0.0,0.0,0.0,0.0,0.0,0.0,0.0,0.0,0.0,0.0,0.0,0.0,0.0,0.0,0.0,0.0,0.0,0.0,0.0,0.0,0.0,0.0,0.0,0.0,0.0,0.0,0.0,0.0,0.0,0.0,0.0,0.0,0.0,0.0,0.0,0.0,0.0,0.0,0.0,0.0,0.0,0.0,0.0,0.0,0.0,0.0,0.0,0.0,0.0,0.0,0.0,0.0,0.0,0.0,0.0,0.0,0.0,0.0,0.0,0.0,0.0,0.0,0.0,0.0,0.0,0.0,0.0,0.0,0.0,0.0,0.0,0.0,0.0,0.0,0.0,0.0,0.0,0.0,0.0,0.0,0.0,-3.5263,-3.6152,-3.6738,-3.6894,-3.7676,-3.8242,-3.8418,-3.8437,-3.7598,-3.5605,0.0,0.0,0.0,0.0,0.0,0.0,0.0,0.0,0.0,0.0,0.0,0.0,0.0,0.0,0.0,0.0,0.0,0.0,0.0,0.0,0.0,0.0,0.0,0.0,0.0,0.0,0.0,0.0,0.0,0.0,0.0,0.0,0.0,0.0,0.0,0.0,0.0,0.0,0.0,0.0,0.0,0.0,0.0,0.0,0.0,0.0,0.0,0.0,0.0,0.0,0.0,0.0,0.0,0.0,0.0,0.0,0.0,0.0,0.0,0.0,0.0,0.0,0.0,0.0,0.0,0.0,0.0,0.0,0.0,0.0,0.0,0.0,0.0,0.0,0.0,0.0,0.0,0.0,0.0,0.0,0.0,0.0,0.0,0.0,0.0,0.0,0.0,0.0,0.0,0.0,0.0,0.0,0.0,0.0,0.0,0.0,0.0,0.0,0.0,0.0,0.0,0.0,-3.5417,-3.6234,-3.6914,-3.7363,-3.8144,-3.8809,-3.9238,-3.9258,-3.8555,-3.6894,0.0,0.0,0.0,0.0,0.0,0.0,0.0,0.0,0.0,0.0,0.0,0.0,0.0,0.0,0.0,0.0,0.0,0.0,0.0,0.0,0.0,0.0,0.0,0.0,0.0,0.0,0.0,0.0,0.0,0.0,0.0,0.0,0.0,0.0,0.0,0.0,0.0,0.0,0.0,0.0,0.0,0.0,0.0,0.0,0.0,0.0,0.0,0.0,0.0,0.0,0.0,0.0,0.0,0.0,0.0,0.0,0.0,0.0,0.0,0.0,-2.2411,-2.1495,0.0,0.0,0.0,0.0,0.0,0.0,0.0,0.0,0.0,0.0,0.0,0.0,0.0,0.0,0.0,0.0,0.0,0.0,0.0,0.0,0.0,0.0,0.0,0.0,0.0,0.0,0.0,0.0,0.0,0.0,0.0,0.0,0.0,0.0,0.0,0.0,0.0,0.0,0.0,0.0,-3.6362,-3.6869,-3.7461,-3.8223,-3.8769,-3.9258,-3.9707,-3.9746,-3.9141,-3.7734,-3.6601,0.0,0.0,0.0,0.0,0.0,0.0,0.0,0.0,0.0,0.0,0.0,0.0,0.0,0.0,0.0,0.0,0.0,0.0,0.0,0.0,0.0,0.0,0.0,0.0,0.0,0.0,0.0,0.0,0.0,0.0,0.0,0.0,0.0,0.0,0.0,0.0,0.0,0.0,0.0,0.0,0.0,0.0,0.0,0.0,0.0,0.0,0.0,0.0,0.0,0.0,0.0,0.0,0.0,0.0,0.0,0.0,0.0,0.0,0.0,-2.2002,-2.1634,0.0,0.0,0.0,0.0,0.0,0.0,0.0,0.0,0.0,0.0,0.0,0.0,0.0,0.0,0.0,0.0,0.0,0.0,0.0,0.0,0.0,0.0,0.0,0.0,0.0,0.0,0.0,0.0,0.0,0.0,0.0,0.0,0.0,0.0,0.0,0.0,0.0,0.0,0.0,0.0,-3.5746,-3.7064,-3.8008,-3.8242,-3.9199,-3.9922,-4.0176,-4.0195,-3.9902,-3.9219,-3.7793,0.0,0.0,0.0,0.0,0.0,0.0,0.0,0.0,0.0,0.0,0.0,0.0,0.0,0.0,0.0,0.0,0.0,0.0,0.0,0.0,0.0,0.0,0.0,0.0,0.0,0.0,0.0,0.0,0.0,0.0,0.0,0.0,0.0,0.0,0.0,0.0,0.0,0.0,0.0,0.0,0.0,0.0,0.0,0.0,0.0,0.0,0.0,0.0,0.0,0.0,0.0,0.0,0.0,-2.227,-2.202,-2.1577,-2.1577,-2.1844,-2.2364,-2.2462,-2.255,-2.2646,-2.1628,0.0,0.0,0.0,0.0,0.0,0.0,0.0,0.0,0.0,0.0,0.0,0.0,0.0,0.0,0.0,0.0,0.0,0.0,0.0,0.0,0.0,0.0,-3.0859,-3.125,-3.2129,-3.2324,-3.0176,0.0,0.0,0.0,0.0,0.0,0.0,0.0,0.0,0.0,0.0,0.0,-3.5063,-3.7089,-3.8476,-3.8184,-3.957,-4.0586,-4.0723,-4.0742,-4.0781,-4.0859,-3.9121,-3.7793,0.0,0.0,0.0,0.0,0.0,0.0,0.0,0.0,0.0,0.0,0.0,0.0,0.0,0.0,0.0,0.0,0.0,0.0,0.0,0.0,0.0,0.0,0.0,0.0,0.0,0.0,0.0,0.0,0.0,0.0,0.0,0.0,-2.265,-2.3307,0.0,0.0,0.0,0.0,0.0,0.0,0.0,0.0,0.0,0.0,0.0,0.0,0.0,-2.2295,-2.2722,-2.2295,-2.2182,-2.2389,-2.293,-2.3225,-2.342,-2.342,-2.346,-2.3655,-2.5201,0.0,-2.2168,-2.2863,0.0,0.0,0.0,0.0,0.0,0.0,0.0,0.0,0.0,0.0,0.0,0.0,0.0,0.0,0.0,0.0,0.0,0.0,0.0,0.0,0.0,0.0,-3.3008,-3.3066,-3.3223,-3.3242,-3.291,-3.1348,-3.0,-3.0108,-3.0049,-2.9968,0.0,0.0,0.0,0.0,0.0,0.0,-3.6266,-3.7648,-3.8691,-3.9004,-3.9922,-4.082,-4.1562,-4.1641,-4.1777,-4.2148,-4.1562,-4.0508,-3.8926,-3.7871,0.0,0.0,0.0,0.0,0.0,0.0,0.0,0.0,0.0,0.0,0.0,0.0,0.0,0.0,0.0,0.0,0.0,0.0,0.0,0.0,0.0,0.0,0.0,0.0,0.0,0.0,0.0,0.0,0.0,-2.3082,-2.3197,-2.2069,-2.3027,-2.3021,0.0,0.0,0.0,0.0,0.0,0.0,0.0,0.0,0.0,-2.3407,-2.2726,-2.2558,-2.2996,-2.3077,-2.314,-2.342,-2.3688,-2.3968,-2.4262,-2.4262,-2.4262,-2.4394,-2.6214,-2.632,-2.5192,-2.6028,-2.5751,-2.4967,0.0,0.0,0.0,0.0,-2.9086,-2.9668,-3.0937,-3.0753,-3.0017,-3.0137,0.0,0.0,0.0,0.0,0.0,0.0,0.0,-3.0644,-3.2129,-3.2969,-3.3672,-3.4648,-3.4883,-3.4883,-3.4883,-3.4141,-3.3047,-3.1582,-3.1309,-3.1053,-3.0008,-3.0782,0.0,0.0,0.0,-3.51,-3.6182,-3.7885,-3.9004,-3.918,-4.043,-4.1387,-4.1777,-4.2012,-4.2226,-4.2422,-4.2246,-4.1699,-4.0703,-3.8887,-3.6914,0.0,0.0,0.0,0.0,0.0,0.0,0.0,0.0,0.0,0.0,0.0,0.0,0.0,0.0,0.0,0.0,0.0,0.0,0.0,0.0,0.0,0.0,0.0,0.0,0.0,0.0,0.0,0.0,-2.3722,-2.3476,-2.1494,-2.2795,-2.2874,0.0,0.0,0.0,0.0,0.0,0.0,-2.3569,-2.301,-2.2957,-2.3568,-2.3075,-2.3091,-2.3549,-2.3891,-2.4102,-2.4315,-2.4315,-2.4462,-2.4756,-2.4756,-2.4796,-2.4999,-2.7452,-2.8458,-2.8511,-2.8865,-2.8759,-2.8504,-2.9327,-2.9472,-2.9415,-3.0963,-3.159,-3.1894,-3.3184,-3.281,-3.1874,-3.2682,-3.1724,-3.0284,-3.0679,0.0,0.0,0.0,0.0,-3.1699,-3.3086,-3.3613,-3.4082,-3.5371,-3.5684,-3.5723,-3.584,-3.5859,-3.5332,-3.3516,-3.3144,-3.2637,-3.0996,-3.1523,0.0,-3.2168,-3.3711,-3.5195,-3.6074,-3.8066,-3.9375,-3.9375,-4.084,-4.1894,-4.2109,-4.2422,-4.2637,-4.2754,-4.2754,-4.2558,-4.2148,-4.0273,-3.8535,-3.7012,0.0,0.0,0.0,0.0,0.0,0.0,0.0,0.0,0.0,0.0,0.0,0.0,0.0,0.0,0.0,0.0,0.0,0.0,0.0,0.0,0.0,0.0,0.0,0.0,0.0,0.0,0.0,0.0,0.0,-2.3499,-2.3092,0.0,0.0,0.0,0.0,-2.2391,-2.2531,-2.2443,-2.1823,-2.2238,-2.2714,-2.3273,-2.378,-2.4101,-2.4114,-2.4435,-2.4596,-2.4609,-2.4609,-2.477,-2.5064,-2.5064,-2.5211,-2.5617,-2.9579,-3.1186,-3.1104,-3.0144,-2.9622,-2.9343,-2.8776,-2.931,-3.0447,-3.1377,-3.2728,-3.4101,-3.541,-3.5724,-3.5433,-3.3734,-3.198,-3.0534,-3.0357,-3.0588,0.0,0.0,-3.2988,-3.3086,-3.4824,-3.4941,-3.4668,-3.4746,-3.4766,-3.4883,-3.5332,-3.543,-3.5508,-3.5781,-3.582,-3.541,-3.4082,0.0,-3.3945,-3.3945,-3.4746,-3.5664,-3.6523,-3.8535,-3.9863,-3.9863,-4.1035,-4.2129,-4.2949,-4.3027,-4.3223,-4.3613,-4.3633,-4.3457,-4.3027,-4.2891,-4.125,-3.793,-3.6973,0.0,0.0,0.0,0.0,0.0,0.0,0.0,0.0,0.0,0.0,0.0,0.0,0.0,0.0,0.0,0.0,0.0,0.0,0.0,0.0,0.0,0.0,0.0,0.0,0.0,0.0,0.0,0.0,-2.3119,-2.3962,0.0,-2.168,-2.2937,-2.3377,-2.2471,-2.2781,-2.3041,-2.3001,-2.3353,-2.3707,-2.3806,-2.4301,-2.4568,-2.4754,-2.4917,-2.501,-2.5197,-2.5197,-2.5251,-2.5358,-2.5358,-2.5411,-2.5657,-2.9626,-3.1383,-3.1496,-3.3731,-3.464,-3.4473,-3.4333,-3.4421,-3.4871,-3.5177,-3.5722,-3.6211,-3.668,-3.6836,-3.6697,-3.6119,-3.542,-3.485,-3.4431,-3.4544,-3.4629,-3.4668,-3.459,-3.4668,-3.5566,-3.5684,-3.5684,-3.623,-3.6367,-3.6406,-3.6582,-3.6621,-3.666,-3.6816,-3.6387,-3.5684,-3.4648,-3.5176,-3.5644,-3.5371,-3.6055,-3.6934,-3.7793,-3.8809,-3.9668,-4.0234,-4.1445,-4.2441,-4.3027,-4.3594,-4.3867,-4.3711,-4.4238,-4.4238,-4.3516,-4.3223,-4.2246,-4.0449,-3.959,-3.7665,0.0,0.0,0.0,0.0,0.0,0.0,0.0,0.0,0.0,0.0,0.0,0.0,0.0,0.0,0.0,0.0,0.0,0.0,0.0,0.0,0.0,0.0,0.0,0.0,0.0,-2.4292,-2.4194,-2.2971,-2.4154,-2.4082,-2.1939,-2.2902,-2.346,-2.2972,-2.3306,-2.3652,-2.3927,-2.414,-2.4393,-2.4429,-2.5376,-2.5634,-2.5224,-2.5965,-2.6061,-2.5518,-2.5518,-2.5558,-2.5665,-2.5758,-2.6316,-2.7172,-3.0719,-3.2576,-3.3472,-3.6802,-3.8184,-3.8125,-3.7519,-3.7305,-3.7305,-3.7305,-3.7305,-3.7305,-3.7305,-3.7305,-3.7305,-3.7305,-3.7305,-3.7226,-3.6797,-3.6562,-3.6367,-3.5937,-3.5723,-3.5742,-3.6309,-3.6445,-3.6601,-3.7168,-3.7305,-3.7344,-3.748,-3.7617,-3.7773,-3.791,-3.7129,-3.6269,-3.5684,-3.6309,-3.6738,-3.6309,-3.6973,-3.7715,-3.8281,-3.9101,-3.998,-4.0859,-4.1973,-4.2891,-4.3476,-4.3516,-4.3691,-4.4121,-4.4141,-4.4082,-4.3945,-4.3242,-4.2383,-4.1387,-4.0371,-3.8242,-3.4941,0.0,0.0,0.0,0.0,0.0,0.0,0.0,0.0,0.0,0.0,0.0,0.0,0.0,0.0,0.0,0.0,0.0,0.0,0.0,0.0,0.0,0.0,0.0,-2.3286,-2.3468,-2.3488,-2.3214,-2.353,-2.3543,-2.3063,-2.3471,-2.3806,-2.3806,-2.4127,-2.4153,-2.4301,-2.4475,-2.4741,-2.5132,-2.7093,-2.7242,-2.5671,-2.7618,-2.7481,-2.5558,-2.5558,-2.5718,-2.6012,-2.645,-2.7801,-3.013,-3.2488,-3.483,-3.6877,-3.8937,-3.9902,-3.9726,-3.8027,-3.7383,-3.7383,-3.7383,-3.7383,-3.7383,-3.7383,-3.7383,-3.7383,-3.7383,-3.7383,-3.7305,-3.6855,-3.6445,-3.6211,-3.6601,-3.6406,-3.6289,-3.7129,-3.7344,-3.7344,-3.7363,-3.7363,-3.748,-3.7891,-3.832,-3.873,-3.9141,-3.8223,-3.7383,-3.7383,-3.7383,-3.7246,-3.6836,-3.7461,0.0,-3.7988,-3.9473,-4.084,-4.166,-4.25,-4.3359,-4.4258,-4.2812,-4.2754,-4.4902,-4.3457,-4.3105,-4.4355,-4.3203,-4.1933,-4.0644,-3.9297,-3.7988,-3.6738,0.0,0.0,0.0,0.0,0.0,0.0,0.0,0.0,0.0,0.0,0.0,0.0,0.0,0.0,0.0,0.0,0.0,0.0,0.0,0.0,0.0,-2.3778,-2.3442,-2.3442,-2.3322,-2.318,-2.3563,-2.3668,-2.3826,-2.3826,-2.3956,-2.414,-2.4314,-2.4475,-2.4636,-2.4811,-2.4972,-2.5728,-2.7613,-2.6739,-2.6878,-2.8008,-2.7326,-2.6867,-2.6466,-2.823,-2.8386,-2.7069,-2.8702,-2.8948,-2.8256,-3.1968,-3.3892,-3.483,-3.8462,-3.9902,-3.9844,-3.9375,-3.918,-3.918,-3.918,-3.918,-3.918,-3.918,-3.918,-3.918,-3.918,-3.918,-3.9043,-3.8281,-3.8184,-3.8223,-3.7715,-3.7715,-3.793,-3.8164,-3.8223,-3.8301,-3.8613,-3.8672,-3.8809,-3.9258,-3.9453,-3.957,-3.9687,-3.9414,-3.918,-3.918,-3.918,-3.9141,-3.9023,-3.9199,-3.9355,-3.9355,-4.0039,-4.0488,-4.043,-4.0898,-4.1699,-4.2871,-4.2812,-4.3379,-4.4922,-4.5156,-4.5117,-4.4863,-4.4805,-4.416,-4.2851,-4.0664,-3.9043,0.0,0.0,0.0,0.0,0.0,0.0,0.0,0.0,0.0,0.0,0.0,0.0,0.0,0.0,0.0,0.0,0.0,0.0,0.0,0.0,0.0,0.0,-2.3904,-2.3969,-2.3742,-2.3485,-2.3379,-2.3888,-2.4127,-2.4153,-2.4314,-2.4314,-2.4475,-2.4811,-2.4811,-2.4972,-2.5308,-2.5281,-2.6406,-2.8699,-2.7726,-2.7913,-2.9293,-2.8518,-2.7651,-2.7014,-2.8445,-2.8529,-2.7268,-2.8655,-2.9673,-3.0321,-3.3002,-3.5151,-3.6898,-3.9471,-4.0527,-4.0644,0.0,0.0,0.0,0.0,-3.9902,-3.9902,-3.9902,-3.9902,-3.9902,-3.9902,-3.9766,-3.9473,-3.8789,-3.8613,-3.8555,-3.8066,-3.8242,-3.8613,-3.8789,-3.8984,-3.918,-3.9434,-3.9492,-3.957,-3.9844,-4.0039,-4.0156,-4.0156,-4.0312,0.0,-4.043,-4.0137,-3.9824,-3.9629,-3.9766,-3.9902,-3.9902,-4.043,-4.0898,-4.1191,-4.1601,-4.2383,-4.3672,-4.3359,0.0,0.0,0.0,-4.498,-4.4492,-4.4551,0.0,0.0,0.0,-4.0527,-4.0176,-3.832,0.0,0.0,-3.6567,-3.6336,0.0,0.0,0.0,0.0,0.0,0.0,0.0,0.0,0.0,0.0,0.0,0.0,0.0,0.0,0.0,0.0,-2.4625,-2.4862,-2.3996,-2.3819,-2.3979,-2.4153,-2.4475,-2.4636,-2.4636,-2.4649,-2.4811,-2.5147,-2.5107,-2.5337,-2.5513,-2.5489,0.0,0.0,0.0,-2.9396,-2.9879,-2.9966,-2.9094,-2.7295,-2.7662,-2.7689,-2.7375,-2.8111,-3.0513,-3.3934,-3.473,-3.733,-4.0977,-4.1289,-4.1523,-4.1758,-4.0625,-4.0176,-4.0176,-4.0176,-4.0176,-4.0176,-4.0176,0.0,0.0,-4.0176,-3.9863,-3.9414,-3.9004,-3.8594,-3.8281,-3.8223,-3.8535,-3.8945,-3.9258,-3.9668,-3.9961,-3.9961,-3.9961,-3.998,-4.0039,-4.0371,-4.0664,-4.0664,-4.1016,-4.1308,-4.1308,-4.0605,-3.9902,-3.9492,-3.9766,-4.0039,-4.0039,-4.0742,-4.1641,-4.2676,-4.3203,0.0,-4.5273,-4.4004,-4.4043,-4.6172,-4.4844,-4.4004,-4.4004,-4.3594,-4.3183,-4.2793,-4.2285,-4.2187,-4.2558,-4.168,-4.1055,-4.0566,-3.6582,-3.5351,0.0,0.0,0.0,0.0,0.0,0.0,0.0,0.0,0.0,0.0,0.0,0.0,0.0,0.0,0.0,-2.4491,-2.4313,-2.405,-2.4114,-2.4301,-2.4475,-2.4475,-2.4636,-2.4649,-2.4972,-2.4985,-2.5147,-2.5469,-2.5352,-2.5531,-2.5869,-2.5911,-2.71,-2.9656,-2.8147,-2.8271,-3.0179,-2.8827,-2.7935,-2.7687,-2.9599,0.0,-2.8144,-3.1766,-3.2952,-3.2616,-3.6268,-3.8401,-3.977,-4.1477,-4.2249,-4.2285,-4.2031,-4.1933,-4.1933,-4.1933,-4.1933,-4.1933,-4.1933,-4.1933,-4.1933,-4.1933,-4.1641,-4.1211,-4.0801,-4.0605,0.0,-4.0117,-4.0332,-4.0605,-4.0332,-4.0332,-4.041,-4.041,-4.041,-4.0508,-4.0859,-4.125,-4.1543,-4.1543,-4.1894,-4.2187,-4.2187,-4.1484,-4.0898,-4.0801,-4.0859,-4.0918,-4.0918,-4.1367,-4.1504,-4.1055,-4.1699,-4.2558,-4.3496,-4.3574,-4.4355,-4.6191,-4.5976,-4.5801,-4.5801,-4.5391,-4.5137,-4.5039,-4.3926,-4.3379,-4.3457,-4.2266,-4.1641,-4.1504,-3.9629,-3.8906,0.0,0.0,0.0,0.0,0.0,0.0,0.0,0.0,0.0,0.0,0.0,-2.3764,-2.336,0.0,-2.3468,-2.4122,-2.4079,-2.413,-2.4422,-2.4475,-2.4636,-2.4636,-2.4797,-2.4972,-2.5133,-2.5184,-2.5864,-2.7087,-2.6249,-2.6386,-2.7829,-2.6928,-2.7471,-3.0032,-2.8261,-2.8305,-3.0451,-2.8882,-2.8023,-2.8023,-2.9397,-3.0057,-3.0168,-3.2479,-3.4317,-3.5643,-3.7841,-3.9608,-4.0877,-4.2184,-4.2821,-4.2715,-4.2969,-4.2812,-4.2422,-4.2422,-4.2422,-4.2422,-4.2422,-4.2422,-4.2422,-4.2422,-4.1992,-4.1445,-4.123,-4.0879,-4.0488,-4.0273,-4.0508,-4.0801,-4.0586,-4.0684,-4.0898,-4.1113,-4.1152,-4.1269,-4.1699,-4.1973,-4.2109,-4.2109,-4.2285,-4.2422,-4.2422,-4.207,-4.1797,-4.1797,-4.1797,-4.1797,-4.1797,-4.1992,-4.2109,-4.2109,-4.25,-4.3203,-4.4277,-4.4766,-4.5371,-4.625,-4.6308,-4.6308,-4.6308,-4.6113,-4.5996,-4.5996,-4.4922,-4.4258,-4.4043,-4.2969,-4.2324,-4.209,-4.1465,-4.0937,0.0,0.0,0.0,0.0,0.0,0.0,0.0,-2.2282,-2.2777,-2.303,-2.3145,-2.2979,-2.2335,-2.2485,-2.3023,-2.3759,-2.4154,-2.4417,-2.4569,-2.4649,-2.4649,-2.4649,-2.4972,-2.508,-2.5296,-2.5489,-2.6386,-2.8389,-2.7038,-2.7167,-2.9281,-2.7866,-2.7817,-2.9676,-2.84,-2.8514,-3.0254,-2.8906,-2.8318,-2.8318,-2.8551,-2.9556,-3.1543,-3.2629,-3.5222,-3.8687,-3.9668,-4.1103,-4.2676,-4.3096,-4.3254,-4.3307,-4.3535,-4.3281,-4.2676,-4.2676,-4.2676,-4.2676,-4.2676,-4.2676,-4.2656,-4.2578,-4.2031,-4.1406,-4.1328,-4.0762,-4.0137,-4.0137,-4.0449,-4.0762,-4.0762,-4.1094,-4.1504,-4.1836,-4.1914,-4.2012,-4.2344,-4.25,-4.2558,-4.2558,-4.2617,-4.2676,-4.2676,-4.2676,-4.2617,-4.2461,-4.2422,-4.2422,-4.2422,-4.25,-4.2812,-4.3516,-4.373,-4.4336,-4.5566,-4.5976,-4.6211,-4.6289,-4.6308,-4.6308,-4.6308,-4.6308,-4.6308,-4.6308,-4.5469,-4.4863,-4.4512,-4.3633,-4.3027,-4.2676,-4.2676,-4.2226,-2.0201,-2.0389,-2.093,-2.1933,-2.161,-2.1267,0.0,-2.1659,-2.1862,-2.2416,-2.2741,-2.2957,-2.3202,-2.3674,-2.3998,-2.4136,-2.4331,-2.4569,-2.4623,-2.4811,-2.4985,-2.4985,-2.5133,-2.5377,-2.5909,-2.5951,-2.6215,-2.6928,-2.6805,-2.6979,-2.7574,-2.7375,-2.7548,-2.7949,-2.7861,-2.7941,-2.8514,-2.8514,-2.8528,-2.8528,-2.8762,-2.9098,-2.9542,-3.3445,-3.5908,-3.6992,-4.1358,-4.337,-4.3555,-4.3574,-4.3594,-4.3633,-4.3691,-4.3652,-4.3555,-4.3555,-4.3555,-4.3555,-4.3555,-4.3555,-4.3496,-4.3125,-4.2676,-4.2207,-4.1836,-4.1406,-4.1035,-4.1035,-4.1328,-4.166,-4.166,-4.1973,-4.2305,-4.2344,-4.2363,-4.2363,-4.2422,-4.2734,-4.3008,-4.3008,-4.3301,-4.3555,-4.3555,-4.3555,-4.3301,-4.2539,-4.2422,-4.2422,-4.2422,-4.2754,-4.3047,-4.3144,-4.3848,-4.4687,-4.5605,-4.5723,-4.5898,-4.6289,-4.6308,-4.6308,-4.6308,-4.6308,-4.6308,-4.6308,-4.5469,-4.5,-4.4961,-4.4062,-4.3613,-4.3555,-4.3555,-4.3105,-2.1015,-2.1096,-2.1276,-2.1895,-2.1943,-2.1897,-2.2031,-2.2325,-2.2699,-2.3126,-2.3359,-2.3773,-2.513,-2.4717,-2.4556,-2.587,-2.5299,-2.4649,-2.4811,-2.4985,-2.5229,-2.5571,-2.6696,-2.7073,-2.6148,-2.7457,-2.8375,-2.8561,-2.7741,-2.7712,-2.925,-2.8244,-2.7746,-2.7954,-2.7954,-2.8136,-2.8501,-2.8514,-2.8681,-2.8789,-2.915,-3.0002,-3.1331,-3.4847,-3.7878,-4.0824,-4.2875,-4.3711,-4.3711,-4.3711,-4.3915,-4.4139,-4.4139,-4.4336,-4.4386,-4.3848,-4.3711,-4.3711,-4.3711,-4.3887,-4.4082,-4.3906,-4.3535,-4.3144,-4.2969,-4.2441,-4.1894,-4.1894,-4.2031,-4.2168,-4.2168,-4.2285,-4.25,-4.2754,-4.2812,-4.2871,-4.3125,-4.332,-4.3437,-4.3437,-4.3574,-4.3711,-4.3711,-4.3711,-4.3574,-4.3223,-4.3164,-4.3164,-4.3164,-4.334,-4.3437,-4.3437,-4.4023,-4.4648,-4.5254,-4.5527,-4.5859,-4.6269,-4.6074,-4.6055,-4.6289,-4.6074,-4.6055,-4.6289,-4.5703,-4.5273,-4.5019,-4.4414,-4.3965,-4.3711,-4.3711,-4.3516,-2.1915,-2.1991,-2.1921,-2.2298,-2.2552,-2.2792,-2.2792,-2.3193,-2.3634,-2.3848,-2.4004,-2.4699,-2.6822,-2.607,-2.5636,-2.7276,-2.6333,-2.5469,-2.5147,-2.5256,-2.5451,-2.5938,-2.7829,-2.8389,-2.6384,-2.8489,-2.9804,-2.9252,-2.8041,-2.8136,-3.0057,-2.871,-2.7954,-2.8318,-2.8318,-2.8514,-2.871,-2.8839,-2.8871,-2.9117,-2.9502,-3.0781,-3.3146,-3.6355,-3.9942,-4.3711,-4.3896,-4.3915,-4.3915,-4.3954,-4.4344,-4.4608,-4.462,-4.4769,-4.4895,-4.4297,-4.4121,-4.4062,-4.4062,-4.4297,-4.4551,-4.4433,-4.418,-4.3848,-4.3613,-4.3105,-4.2578,-4.2461,-4.2519,-4.2598,-4.2598,-4.2695,-4.2851,-4.3183,-4.3242,-4.334,-4.3633,-4.3711,-4.3711,-4.3711,-4.3711,-4.3711,-4.3711,-4.3711,-4.3711,-4.3711,-4.3711,-4.3711,-4.3711,-4.3711,-4.3711,-4.3711,-4.4004,-4.4394,-4.4824,-4.5254,-4.5683,-4.6113,-4.5957,-4.5976,-4.6289,-4.6113,-4.6172,-4.6465,-4.6172,-4.5742,-4.5195,-4.4785,-4.4277,-4.3711,-4.3711,-4.3711,-2.3001,-2.2877,-2.278,-2.4231,-2.4148,-2.3728,-2.3728,-2.3955,-2.4182,-2.4195,-2.4409,-2.5119,-2.7158,-2.7497,-2.7482,-2.7511,-2.7689,-2.7172,-2.5322,-2.5611,-2.599,-2.6017,-2.8016,-2.8695,-2.7027,-2.86,-2.9266,-2.7808,-2.7733,-2.7928,-2.8318,-2.815,-2.8318,-2.8528,-2.8528,-2.871,-2.8906,-2.9285,-2.9475,-2.9515,-2.9721,-3.1139,-3.3605,-3.8088,-4.1521,-4.3711,-4.4159,-4.4363,-4.4383,-4.4813,-4.5018,-4.4932,-4.4915,-4.5,-4.5039,-4.5044,-4.4985,-4.498,-4.498,-4.5,-4.4941,-4.4531,-4.4394,-4.4219,-4.3359,-4.3086,-4.2969,-4.2539,-4.2734,-4.3066,-4.3066,-4.3359,-4.3672,-4.3691,-4.3691,-4.3691,-4.3711,-4.3711,-4.3711,-4.3711,-4.3711,-4.3711,-4.3711,-4.3711,-4.3711,-4.3711,-4.3711,-4.3711,-4.3711,-4.3711,-4.3711,-4.3711,-4.3711,-4.3906,-4.4375,-4.4805,-4.5234,-4.5664,-4.6055,-4.6289,-4.6308,-4.668,-4.6894,-4.6914,-4.6894,-4.6484,-4.5644,-4.5215,-4.4551,-4.3711,-4.3711,-4.3711,-2.3495,-2.3487,-2.3789,-2.4391,-2.4698,-2.4636,-2.4636,-2.4863,-2.5077,-2.5077,-2.5012,-2.5483,-2.7364,-2.6574,-2.5944,-2.7244,-2.672,-2.5921,-2.5511,-2.5779,-2.603,-2.6215,-2.8375,-2.9076,-2.7312,-3.0319,-3.1722,-3.0028,-3.0057,-3.0254,-3.0634,-2.9284,-2.8528,-2.8892,-2.8898,-2.911,-2.9325,-2.9508,-2.9528,-2.9721,-3.136,-3.3616,-3.6132,-3.9184,-4.1287,-4.2207,-4.3954,-4.4808,-4.4759,-4.497,-4.5199,-4.5469,-4.5511,-4.5647,-4.5879,-4.5783,-4.5937,-4.5801,-4.5215,-4.5215,-4.543,-4.5293,-4.5254,-4.5137,-4.4551,-4.418,-4.3848,-4.3398,-4.3379,-4.3496,-4.3496,-4.3594,-4.3711,-4.3711,-4.3711,-4.3711,-4.3711,-4.3711,-4.3711,-4.3711,-4.3711,-4.3711,-4.3711,-4.3711,-4.3808,-4.4121,-4.416,-4.4043,-4.375,-4.3984,-4.4043,-4.373,-4.3711,-4.4004,-4.4746,-4.4941,-4.5449,-4.6445,-4.6367,-4.6562,-4.7129,-4.7012,-4.707,-4.7363,-4.7363,-4.707,-4.6504,-4.6074,-4.5566,-4.5,-4.4707,-4.459,-2.3795,-2.3995,-2.4422,-2.4716,-2.501,-2.5237,-2.5237,-2.5438,-2.5585,-2.5438,-2.5854,-2.6843,-2.8475,-2.7598,-2.7119,-2.8458,-2.7416,-2.6251,-2.5701,-2.603,-2.6386,-2.6558,-2.7829,-2.8372,-2.7527,-3.0563,-3.1963,-3.02,-3.0185,-3.0432,-3.062,-2.9501,-2.8964,-2.9163,-2.9119,-2.9309,-2.9707,-2.9707,-2.9721,-3.0119,-3.2383,-3.4501,-3.619,-3.8591,-4.0403,-4.1526,-4.327,-4.4376,-4.5337,-4.5376,-4.5609,-4.5861,-4.5861,-4.6075,-4.6308,-4.6308,-4.6308,-4.623,-4.5664,-4.5664,-4.5879,-4.5723,-4.5683,-4.5566,-4.498,-4.4609,-4.4297,-4.3828,-4.3711,-4.3711,-4.3711,-4.3711,-4.3711,-4.3711,-4.3711,-4.3711,-4.3711,-4.3711,-4.3711,-4.3711,-4.3711,-4.3711,-4.3711,-4.3848,-4.4101,-4.4551,-4.4766,-4.4687,-4.4238,-4.4297,-4.4336,-4.4199,-4.418,-4.4414,-4.498,-4.5312,-4.582,-4.666,-4.6738,-4.7012,-4.7558,-4.7461,-4.7519,-4.7793,-4.7949,-4.7754,-4.7168,-4.6738,-4.623,-4.5664,-4.5234,-4.5019,-2.4115,-2.4489,-2.4796,-2.5077,-2.5358,-2.5558,-2.5558,-2.5718,-2.5899,-2.5358,-2.6932,-2.8744,-3.0143,-3.0303,-3.0403,-3.0663,-2.9665,-2.81,-2.6306,-2.6426,-2.6756,-2.6756,-2.681,-2.7095,-2.764,-2.9663,-3.0195,-2.8318,-2.8573,-2.8716,-2.8737,-2.8908,-2.9117,-2.9515,-2.9515,-2.9707,-2.9913,-2.9913,-3.0119,-3.0519,-3.278,-3.3969,-3.4279,-3.6829,-3.9221,-4.1265,-4.2003,-4.3541,-4.5822,-4.6094,-4.6308,-4.6308,-4.6308,-4.6308,-4.6308,-4.6308,-4.6308,-4.6308,-4.6308,-4.6308,-4.623,-4.584,-4.5703,-4.5527,-4.4687,-4.4414,-4.4297,-4.3828,-4.3711,-4.3711,-4.3711,-4.3711,-4.3711,-4.3711,-4.3711,-4.3711,-4.3711,-4.373,-4.373,-4.373,-4.375,-4.3769,-4.3769,-4.416,-4.4609,-4.5,-4.541,-4.5508,-4.5078,-4.4687,-4.4609,-4.498,-4.5039,-4.5058,-4.5078,-4.5859,-4.6348,-4.6387,-4.7168,-4.7617,-4.7637,-4.8027,-4.8242,-4.8242,-4.8652,-4.8457,-4.7637,-4.7207,-4.6582,-4.5801,-4.5332,-4.5117,-2.5077,-2.5558,-2.5959,-2.6039,-2.6106,-2.6172,-2.6172,-2.6213,-2.6567,-2.7706,-2.8218,-2.8834,-3.0327,-3.0779,-3.046,-2.9236,-2.9048,-2.8346,-2.6783,-2.6746,-2.6928,-2.7114,-2.7351,-2.7609,-2.772,-2.8514,-2.8742,-2.8538,-3.0044,-3.1044,-3.1402,-3.015,-2.9515,-2.9721,-2.9721,-2.9913,-2.9913,-3.0119,-3.1153,-3.2994,-3.3729,-3.4205,-3.4661,-3.9014,-4.0486,-3.9889,-4.3641,-4.5589,-4.6094,-4.6289,-4.6308,-4.6308,-4.6308,-4.6308,-4.6308,-4.6308,-4.6308,-4.6308,-4.6308,-4.6308,-4.6289,-4.6172,-4.5937,-4.5566,-4.5039,-4.4648,-4.4297,-4.3828,-4.3711,-4.3711,-4.3711,-4.3711,-4.3711,-4.3711,-4.3711,-4.3711,-4.3711,-4.3984,-4.4219,-4.4219,-4.4473,-4.4687,-4.4687,-4.5058,-4.5391,-4.5488,-4.5605,-4.5508,-4.5078,-4.5215,-4.5273,-4.5058,-4.5312,-4.5644,-4.5957,-4.6465,-4.7051,-4.7676,-4.793,-4.8203,-4.8516,-4.8633,-4.8691,-4.8691,-4.8808,-4.875,-4.8535,-4.8086,-4.7773,-4.7539,-4.6797,-4.6445,-2.5785,-2.6132,-2.6386,-2.6386,-2.6386,-2.636,-2.6226,-2.6172,-2.6561,-2.7956,-2.8822,-2.9938,-3.1218,-3.1328,-3.0787,-2.9904,-2.8856,-2.7948,-2.7158,-2.7065,-2.7337,-2.7514,-2.7556,-2.7759,-2.7941,-2.8123,-2.8318,-2.8528,-2.986,-3.0795,-3.107,-3.0133,-2.9721,-2.9913,-2.9913,-2.9927,-3.0119,-3.0326,-3.1193,-3.2591,-3.2849,-3.2979,-3.3605,-3.7362,-3.9137,-3.9125,-4.301,-4.5357,-4.6308,-4.6308,-4.6308,-4.6308,-4.6308,-4.6308,-4.6308,-4.6308,-4.6308,-4.6308,-4.6308,-4.6308,-4.6289,-4.6075,-4.5803,-4.5566,-4.4941,-4.459,-4.4297,-4.3828,-4.3711,-4.375,-4.3945,-4.3848,-4.3808,-4.4199,-4.4141,-4.4062,-4.4238,-4.4492,-4.4668,-4.4668,-4.4863,-4.5078,-4.5273,-4.5508,-4.5742,-4.5918,-4.5957,-4.5937,-4.5879,-4.5742,-4.5723,-4.584,-4.6074,-4.6406,-4.6816,-4.7246,-4.7695,-4.8183,-4.8379,-4.8613,-4.8848,-4.8867,-4.8867,-4.8867,-4.8867,-4.8867,-4.8867,-4.8418,-4.8203,-4.8183,-4.7519,-4.7207,-2.6253,-2.6386,-2.6386,-2.6386,-2.6386,-2.6319,-2.6026,-2.5966,-2.6295,-2.7408,-2.926,-3.116,-3.2639,-3.2313,-3.1931,-3.2057,-2.9996,-2.8163,-2.7873,-2.8043,-2.7954,-2.7759,-2.7759,-2.7941,-2.815,-2.8514,-2.871,-2.871,-2.9239,-2.959,-2.9462,-2.9721,-2.9913,-2.9913,-2.9927,-3.0119,-3.0339,-3.0474,-3.0675,-3.1231,-3.1244,-3.165,-3.23,-3.4711,-3.7175,-3.9564,-4.1985,-4.4253,-4.6308,-4.6308,-4.6308,-4.6308,-4.6308,-4.6308,-4.6308,-4.6308,-4.6308,-4.6308,-4.6308,-4.6308,-4.6289,-4.5842,-4.5764,-4.5527,-4.4726,-4.4433,-4.4316,-4.3906,-4.3789,-4.3906,-4.4355,-4.418,-4.4062,-4.4844,-4.4746,-4.459,-4.4941,-4.5078,-4.5117,-4.5176,-4.5195,-4.5312,-4.5703,-4.5762,-4.5879,-4.625,-4.6348,-4.6523,-4.6875,-4.6289,-4.6152,-4.6933,-4.707,-4.7246,-4.7637,-4.8047,-4.8301,-4.8301,-4.8594,-4.8769,-4.8769,-4.8711,-4.8691,-4.8691,-4.8691,-4.8691,-4.8691,-4.8359,-4.8203,-4.8203,-4.7832,-4.7656,-2.636,-2.6386,-2.6386,-2.6386,-2.6386,-2.6319,-2.6026,-2.5729,-2.639,-2.9101,-2.9981,-3.1354,-3.4293,-3.5316,-3.5451,-3.473,-3.4064,-3.2938,-3.1312,-3.0322,-2.9481,-2.8528,-2.8318,-2.815,-2.8514,-3.0254,-3.0831,-2.9481,-3.1048,-3.1521,-2.9515,-2.9721,-2.9913,-2.9913,-3.0133,-3.0326,-3.0339,-3.0875,-3.1046,-3.1231,-3.146,-3.2734,-3.4711,-3.7172,-3.964,-4.2178,-4.466,-4.5861,-4.6308,-4.6308,-4.6308,-4.6308,-4.6308,-4.6308,-4.6308,-4.6308,-4.6308,-4.6308,-4.6308,-4.6308,-4.6308,-4.6289,-4.5996,-4.5586,-4.5078,-4.4668,-4.4375,-4.4297,-4.4277,-4.4375,-4.4805,-4.4863,-4.4844,-4.498,-4.4961,-4.4941,-4.5,-4.5312,-4.5664,-4.6016,-4.6074,-4.6113,-4.6191,-4.6191,-4.6211,-4.6289,-4.6601,-4.6855,-4.6914,-4.6797,-4.6914,-4.7422,-4.7773,-4.8008,-4.8086,-4.8496,-4.875,-4.875,-4.8476,-4.832,-4.832,-4.7988,-4.7793,-4.7793,-4.7793,-4.7793,-4.7793,-4.8086,-4.8203,-4.8203,-4.8125,-4.8105,-2.6386,-2.6386,-2.6386,-2.6386,-2.6386,-2.6239,-2.5638,-2.5348,-2.5778,-2.755,-2.8946,-3.0507,-3.3132,-3.441,-3.4901,-3.4654,-3.4407,-3.3355,-3.1151,-3.089,-3.0218,-2.8595,-2.9284,-2.9481,-2.871,-3.0651,-3.1282,-2.9607,-3.0525,-3.0725,-2.9721,-2.9913,-2.9927,-3.0119,-3.0326,-3.061,-3.0822,-3.1155,-3.1244,-3.1447,-3.1664,-3.2966,-3.5338,-3.7855,-4.0335,-4.2656,-4.5163,-4.6308,-4.6308,-4.6308,-4.6308,-4.6308,-4.6308,-4.6308,-4.6308,-4.6308,-4.6308,-4.6308,-4.6308,-4.6308,-4.6308,-4.6308,-4.6172,-4.5918,-4.5488,-4.5234,-4.5019,-4.4785,-4.4726,-4.4824,-4.5254,-4.5195,-4.5137,-4.5586,-4.5683,-4.5683,-4.5683,-4.5859,-4.6055,-4.6269,-4.6308,-4.6308,-4.6308,-4.6308,-4.6308,-4.6308,-4.666,-4.7012,-4.7246,-4.7461,-4.7676,-4.7891,-4.8086,-4.8301,-4.8535,-4.873,-4.8769,-4.8535,-4.8535,-4.8437,-4.8223,-4.8008,-4.791,-4.791,-4.791,-4.791,-4.791,-4.834,-4.8535,-4.8535,-4.8535,-4.8535,-2.6386,-2.6386,-2.6386,-2.6386,-2.6386,-2.6159,-2.5277,-2.5037,-2.5239,-2.5864,-2.77,-2.98,-3.1684,-3.3077,-3.4082,-3.458,-3.4505,-3.3464,-3.1153,-3.1842,-3.1393,-2.8636,-3.0254,-3.0716,-2.9021,-3.0817,-3.1402,-2.9691,-2.9609,-2.9721,-2.9927,-2.9927,-3.0119,-3.0519,-3.0569,-3.0742,-3.1231,-3.1244,-3.1447,-3.1664,-3.1664,-3.2966,-3.5324,-3.7925,-4.0403,-4.2656,-4.5163,-4.6308,-4.6308,-4.6308,-4.6308,-4.6308,-4.6308,-4.6308,-4.6308,-4.6308,-4.6308,-4.6308,-4.6308,-4.6308,-4.6308,-4.6308,-4.6308,-4.623,-4.5801,-4.5683,-4.5605,-4.5254,-4.5176,-4.5273,-4.5703,-4.5547,-4.5469,-4.6133,-4.6308,-4.6308,-4.6308,-4.6308,-4.6308,-4.6308,-4.6308,-4.6308,-4.6308,-4.6367,-4.6445,-4.6445,-4.6875,-4.7324,-4.7676,-4.8086,-4.834,-4.834,-4.834,-4.8476,-4.8828,-4.8769,-4.8574,-4.8223,-4.8359,-4.8281,-4.7949,-4.7851,-4.7793,-4.7793,-4.7793,-4.7793,-4.7793,-4.8223,-4.8496,-4.8594,-4.8672,-4.8769,-2.6386,-2.6386,-2.6386,-2.6386,-2.6386,-2.6159,-2.5277,-2.4863,-2.4834,-2.582,-2.751,-2.9496,-3.1648,-3.3823,-3.5603,-3.6833,-3.7015,-3.6199,-3.3839,-3.4915,-3.4356,-2.9495,-3.0634,-3.1212,-2.9552,-3.1549,-3.1911,-2.9918,-2.9833,-2.9927,-3.0326,-3.0326,-3.0519,-3.0739,-3.0955,-3.1125,-3.1231,-3.146,-3.1664,-3.1664,-3.1664,-3.2966,-3.5324,-3.7925,-4.0403,-4.2656,-4.5163,-4.6308,-4.6308,-4.6308,-4.6308,-4.6308,-4.6308,-4.6308,-4.6308,-4.6308,-4.6308,-4.6308,-4.6308,-4.6308,-4.6308,-4.6308,-4.6308,-4.623,-4.5801,-4.5683,-4.5664,-4.5625,-4.5625,-4.5723,-4.6133,-4.6211,-4.6211,-4.6289,-4.6308,-4.6308,-4.6308,-4.6308,-4.6308,-4.6308,-4.6308,-4.6308,-4.6308,-4.6621,-4.6875,-4.6875,-4.7558,-4.8105,-4.8144,-4.8535,-4.8808,-4.8808,-4.8808,-4.8808,-4.8848,-4.8496,-4.8242,-4.8203,-4.7519,-4.709,-4.7051,-4.668,-4.6484,-4.6484,-4.6484,-4.6484,-4.6484,-4.6894,-4.7305,-4.7715,-4.8086,-4.8476,-2.6386,-2.652,-2.6613,-2.6426,-2.6266,-2.5905,-2.501,-2.4583,-2.426,-2.4178,-2.6387,-2.8876,-3.0229,-3.2954,-3.4968,-3.4872,-3.531,-3.4864,-3.2821,-3.3934,-3.3802,-3.0644,-3.2339,-3.2584,-2.9759,-3.1507,-3.1968,-3.0119,-3.0038,-3.0302,-3.067,-3.0581,-3.0558,-3.0982,-3.1195,-3.1244,-3.146,-3.1664,-3.1664,-3.1664,-3.1664,-3.2966,-3.5353,-3.7893,-4.0378,-4.2656,-4.5163,-4.6308,-4.6308,-4.6308,-4.6308,-4.6308,-4.6308,-4.6308,-4.6308,-4.6308,-4.6308,-4.6308,-4.6308,-4.6308,-4.6308,-4.6308,-4.6308,-4.6269,-4.6113,-4.6055,-4.6055,-4.6055,-4.6055,-4.6094,-4.625,-4.6308,-4.6308,-4.6308,-4.6308,-4.6308,-4.6308,-4.6308,-4.6367,-4.6641,-4.668,-4.6758,-4.7031,-4.7207,-4.7324,-4.7324,-4.7832,-4.8203,-4.8203,-4.8594,-4.875,-4.8496,-4.8711,-4.875,-4.8496,-4.8301,-4.7988,-4.7461,-4.7363,-4.7207,-4.6933,-4.6777,-4.6797,-4.707,-4.707,-4.7324,-4.7851,-4.8008,-4.8457,-4.9141,-4.9043,-4.9101,-2.6239,-2.6466,-2.664,-2.644,-2.6172,-2.5732,-2.4836,-2.4409,-2.3981,-2.3166,-2.5322,-2.7865,-2.9243,-3.154,-3.3035,-3.3232,-3.3354,-3.2809,-3.1135,-3.2446,-3.3082,-3.1465,-3.2998,-3.3202,-3.0725,-3.1346,-3.1567,-3.1139,-3.0662,-3.0864,-3.1819,-3.1209,-3.0812,-3.1244,-3.1434,-3.1447,-3.1664,-3.1664,-3.1664,-3.1664,-3.1664,-3.2531,-3.4274,-3.6716,-3.9188,-4.1738,-4.4215,-4.5609,-4.6308,-4.6308,-4.6308,-4.6308,-4.6308,-4.6308,-4.6308,-4.6308,-4.6308,-4.6308,-4.6308,-4.6308,-4.6308,-4.6308,-4.6308,-4.6308,-4.6308,-4.6308,-4.6308,-4.6308,-4.6308,-4.6308,-4.6308,-4.6308,-4.6308,-4.6308,-4.6308,-4.6328,-4.6465,-4.6484,-4.6621,-4.7031,-4.7129,-4.7226,-4.7519,-4.7676,-4.7773,-4.7773,-4.8125,-4.8398,-4.8398,-4.8555,-4.8555,-4.8242,-4.8379,-4.8359,-4.8047,-4.791,-4.7578,-4.6973,-4.7109,-4.707,-4.6758,-4.6855,-4.707,-4.7383,-4.7637,-4.8008,-4.8476,-4.8613,-4.8984,-4.959,-4.916,-4.8945,-2.5879,-2.6172,-2.6386,-2.6386,-2.6172,-2.5732,-2.4836,-2.4409,-2.4035,-2.3447,-2.4545,-2.6414,-2.9311,-2.953,-3.0136,-3.2809,-3.1912,-3.0483,-2.9081,-3.135,-3.2622,-3.1586,-3.1616,-3.1982,-3.2592,-3.0946,-3.0946,-3.362,-3.1732,-3.1651,-3.442,-3.2517,-3.1434,-3.1664,-3.1664,-3.1664,-3.1664,-3.1664,-3.1664,-3.1664,-3.1664,-3.1677,-3.1867,-3.4259,-3.6744,-3.9128,-4.1545,-4.4003,-4.6308,-4.6308,-4.6308,-4.6308,-4.6308,-4.6308,-4.6308,-4.6308,-4.6308,-4.6308,-4.6308,-4.6308,-4.6308,-4.6308,-4.6308,-4.6308,-4.6308,-4.6308,-4.6308,-4.6308,-4.6308,-4.6308,-4.6308,-4.6308,-4.6308,-4.6308,-4.6308,-4.6426,-4.6836,-4.6914,-4.7051,-4.75,-4.7578,-4.7578,-4.7578,-4.793,-4.8203,-4.8203,-4.8574,-4.8848,-4.8848,-4.8476,-4.8223,-4.8203,-4.7832,-4.7598,-4.7578,-4.7187,-4.6933,-4.6933,-4.6543,-4.6308,-4.6308,-4.6699,-4.6933,-4.6933,-4.7773,-4.8008,-4.7598,-4.8008,-4.8223,-4.8223,-4.7793,-4.7598,-2.5825,-2.6172,-2.6386,-2.6386,-2.6012,-2.5531,-2.505,-2.4409,-2.3861,-2.3674,-2.4886,-2.6694,-2.9456,-2.9672,-3.002,-3.1279,-3.0208,-2.9152,-2.9002,-3.0373,-3.1826,-3.3413,-3.312,-3.2369,-3.0932,-3.0312,-3.0326,-3.136,-3.1069,-3.1075,-3.2287,-3.1867,-3.165,-3.1664,-3.1664,-3.1664,-3.1664,-3.1664,-3.1664,-3.1664,-3.1664,-3.1664,-3.1867,-3.4259,-3.5712,-3.6606,-4.0876,-4.3079,-4.3984,-4.5609,-4.6308,-4.6308,-4.6308,-4.6308,-4.6308,-4.6308,-4.6308,-4.6308,-4.6308,-4.6308,-4.6308,-4.6308,-4.6308,-4.6308,-4.6308,-4.6308,-4.6308,-4.6308,-4.6308,-4.6308,-4.6308,-4.6308,-4.6367,-4.666,-4.6738,-4.6855,-4.7285,-4.7383,-4.75,-4.793,-4.8008,-4.8105,-4.8398,-4.8555,-4.8652,-4.8652,-4.8769,-4.875,-4.8457,-4.8281,-4.7988,-4.7402,-4.7207,-4.7129,-4.7129,-4.7012,-4.6797,-4.6523,-4.6367,-4.6308,-4.6308,-4.6426,-4.6914,-4.7773,-4.7793,-4.8437,-4.9785,-4.9023,-4.8965,-4.9551,-4.9707,-4.9785,-2.5237,-2.5758,-2.6052,-2.6052,-2.5705,-2.5251,-2.4836,-2.4249,-2.3768,-2.3768,-2.4484,-2.5849,-2.8444,-2.8302,-2.8203,-2.947,-2.9026,-2.8413,-2.81,-2.9247,-3.0776,-3.2294,-3.291,-3.2176,-2.9927,-2.9927,-3.0133,-3.0532,-3.0796,-3.1028,-3.1447,-3.165,-3.1664,-3.1664,-3.1664,-3.1664,-3.1664,-3.1664,-3.1664,-3.1664,-3.1664,-3.1664,-3.1677,-3.3183,-3.4478,-3.5528,-3.9591,-4.123,0.0,-4.4911,-4.5822,-4.493,-4.5861,-4.6308,-4.6308,-4.6308,-4.6308,-4.6308,-4.6308,-4.6308,-4.6308,-4.6308,-4.6308,-4.6308,-4.6308,-4.6308,-4.6367,-4.6464,-4.6464,-4.6582,-4.6738,-4.6777,-4.6855,-4.7109,-4.7168,-4.7285,-4.7734,-4.7812,-4.7949,-4.8359,-4.8457,-4.8535,-4.8808,-4.8867,-4.8867,-4.8867,-4.8711,-4.8516,-4.8242,-4.793,-4.7519,-4.6992,-4.6777,-4.6699,-4.6699,-4.6699,-4.6641,-4.6543,-4.6543,-4.6621,-4.6777,-4.709,-4.7637,-4.8437,-4.8672,-4.9375,-5.0566,-4.959,-4.9394,-4.9941,-5.0371,-5.0488,0.0,-2.4957,-2.5424,-2.5438,-2.5224,-2.4877,-2.4329,-2.3981,0.0,-2.3794,-2.3581,-2.42,-2.7082,-2.5946,-2.5322,-2.7556,-2.8163,-2.7965,-2.66,-2.8674,-3.0012,-2.9014,-3.1254,-3.2133,-3.0133,-3.0133,-3.0546,-3.0794,-3.1036,-3.1434,-3.1664,-3.1664,-3.1664,-3.1664,-3.1664,-3.1664,-3.1664,-3.1664,-3.1867,-3.1894,-3.1867,-3.1867,-3.1894,-3.1867,-3.2952,-3.5149,-3.7834,-3.8906,-3.9128,-4.4191,-4.485,-4.2868,-4.5357,-4.6308,-4.6308,-4.6308,-4.6308,-4.6308,-4.6308,-4.6308,-4.6308,-4.6308,-4.6308,-4.6308,-4.6308,-4.6348,-4.6347,-4.685,-4.685,-4.707,-4.748,-4.7578,-4.7578,-4.7617,-4.7617,-4.7734,-4.8164,-4.8262,-4.8379,-4.8789,-4.8867,-4.8867,-4.8867,-4.8867,-4.8848,-4.8808,-4.8476,-4.8183,-4.8125,-4.7422,-4.6914,-4.6894,-4.6543,-4.6308,-4.6308,-4.6328,-4.6504,-4.6914,-4.6992,-4.7207,-4.7598,-4.8418,-4.8887,-4.8945,-5.0195,-5.0625,-5.0176,-4.9824,-4.9648,-4.9629,-5.0058,-5.0058,-2.3086,0.0,-2.4569,-2.4783,-2.4623,-2.4369,0.0,-2.3981,-2.3834,-2.4062,-2.4048,-2.4761,-2.7306,-2.6087,-2.5458,-2.8159,-2.7449,-2.669,-2.6747,-3.0956,-3.3676,-3.2208,-3.4219,-3.5087,-3.3422,-3.1457,-3.0529,-3.0975,-3.1249,-3.1434,-3.1664,-3.1664,-3.1664,-3.1664,-3.1664,-3.1664,-3.1664,-3.1664,-3.2545,-3.4478,-3.2531,-3.2734,-3.4478,-3.2531,-3.2083,-3.2748,-3.7141,-3.8007,-3.6674,-4.3484,-4.4799,-4.2868,-4.5357,-4.6308,-4.6308,-4.6308,-4.6308,-4.6308,-4.6308,-4.6308,-4.6308,-4.6308,-4.6523,-4.6776,-4.6776,-4.6758,-4.683,-4.6825,-4.7242,-4.7441,-4.7558,-4.7578,-4.7656,-4.7988,-4.8066,-4.8183,-4.8613,-4.8711,-4.873,-4.8848,-4.8867,-4.8867,-4.8867,-4.8867,-4.875,-4.8418,-4.8281,-4.7969,-4.7305,-4.7051,-4.6797,-4.6484,-4.6367,-4.6308,-4.6308,-4.6601,-4.6816,-4.6914,-4.7539,-4.7949,-4.8047,-4.8574,-4.918,-4.9863,-5.0801,-5.0918,-5.0176,-5.0723,-5.082,-5.0508,-5.0937,-5.1074,-2.2178,-2.3113,-2.4075,-2.4369,-2.4315,-2.4168,-2.4035,-2.3888,-2.3781,-2.3794,-2.4022,-2.458,-2.5904,-2.5717,-2.5648,-2.7044,-2.7848,-2.8368,-2.8987,-3.1072,-3.2223,-3.1621,-3.2749,-3.3383,-3.2713,-3.1345,-3.067,-3.1178,-3.133,-3.146,-3.1664,-3.1664,-3.1664,-3.1664,-3.1664,-3.1664,-3.1664,-3.1664,-3.2314,-3.3605,-3.2362,-3.2404,-3.3619,-3.2314,-3.1664,-3.1894,-3.6921,-3.6928,-3.438,-4.2882,-4.414,-4.1298,-4.4911,-4.6308,-4.6308,-4.6308,-4.6308,-4.6308,-4.6308,-4.6328,-4.6562,-4.6796,-4.701,-4.7168,-4.7226,-4.7315,-4.7443,-4.7443,-4.7748,-4.791,-4.8105,-4.8164,-4.8223,-4.8457,-4.8496,-4.8574,-4.8808,-4.8867,-4.8867,-4.8867,-4.8867,-4.8867,-4.8867,-4.8691,-4.8476,-4.8242,-4.7871,-4.7441,-4.6992,-4.6758,-4.6562,-4.6328,-4.6308,-4.6387,-4.6582,-4.6973,-4.7226,-4.7226,-4.8027,-4.8594,-4.8808,-4.9238,-4.9785,-5.0449,-5.0723,-5.0723,-5.0469,-5.0723,-5.0937,-5.1094,-5.1133,-5.125,-2.1657,-2.2672,-2.3741,-2.3888,-2.3995,-2.3995,-2.3701,-2.3674,-2.3647,-2.3434,-2.3834,-2.4262,-2.4436,-2.5211,-2.5812,-2.5785,-2.8269,-3.0481,-3.1066,-3.0153,-2.9675,-3.0015,-3.0287,-3.0587,-3.0981,-3.0845,-3.0835,-3.1326,-3.1598,-3.1664,-3.1664,-3.1664,-3.1664,-3.1664,-3.1664,-3.1664,-3.1664,-3.1664,-3.188,-3.2287,-3.1889,-3.1945,-3.23,-3.188,-3.1664,-3.1894,-3.6481,-3.5837,-3.2354,-4.1763,-4.2987,-3.9547,-4.4447,-4.6308,-4.6289,-4.5842,-4.6036,-4.6308,-4.6328,-4.6699,-4.713,-4.7425,-4.7641,-4.7682,-4.7675,-4.7896,-4.8342,-4.8342,-4.8332,-4.8398,-4.8769,-4.8867,-4.8867,-4.8867,-4.8867,-4.8867,-4.8867,-4.8867,-4.8867,-4.8867,-4.8867,-4.8828,-4.8769,-4.8516,-4.8242,-4.8047,-4.7441,-4.6992,-4.6855,-4.6523,-4.6308,-4.6308,-4.6367,-4.6543,-4.6894,-4.7441,-4.7773,-4.7773,-4.8594,-4.9297,-4.9805,-5.0176,-5.0527,-5.0898,-5.0547,-5.0547,-5.0898,-5.0547,-5.0742,-5.1426,-5.1074,-5.1094,-2.2084,-2.2832,-2.3287,-2.2806,-2.3086,-2.338,-2.3073,-2.3207,-2.3447,-2.3661,-2.3968,-2.4502,-2.5504,-2.5424,-2.5611,-2.68,-2.7716,-2.8302,-2.8655,-3.0524,-3.2131,-3.2895,-3.2837,-3.3205,-3.4073,-3.2167,-3.0996,-3.1503,-3.1623,-3.1664,-3.1664,-3.1664,-3.1664,-3.1664,-3.1664,-3.1664,-3.1664,-3.1664,-3.2748,-3.4711,-3.2689,-3.2716,-3.4711,-3.2545,-3.1664,-3.188,-3.4696,-3.4308,-3.2339,-3.9938,-4.1568,-3.9547,-4.4447,-4.6308,-4.6075,-4.3984,-4.4466,-4.6308,-4.6756,-4.7028,-4.7492,-4.7511,-4.7752,-4.8032,-4.8042,-4.8381,-4.8828,-4.8828,-4.8789,-4.8769,-4.8848,-4.8867,-4.8867,-4.8867,-4.8867,-4.8867,-4.8867,-4.8867,-4.8867,-4.8867,-4.8867,-4.873,-4.8379,-4.8555,-4.8398,-4.7285,-4.7324,-4.7226,-4.6484,-4.6348,-4.6308,-4.6308,-4.6621,-4.6855,-4.6914,-4.7988,-4.8652,-4.8652,-4.9492,-5.0332,-5.1113,-5.1211,-5.1269,-5.1328,-5.1269,-5.1269,-5.1328,-5.1269,-5.1308,-5.1426,-5.1367,-5.1367,-2.179,-2.2378,-2.2846,-2.2899,-2.3594,-2.4235,-2.4088,-2.4168,-2.4222,-2.4035,-2.4356,-2.4836,-2.5384,-2.5651,-2.6266,-2.7749,-2.7963,-2.8163,-2.8778,-3.0129,-3.0972,-3.16,-3.1634,-3.1972,-3.2549,-3.1601,-3.1248,-3.1623,-3.1664,-3.1664,-3.1664,-3.1664,-3.1664,-3.1664,-3.1664,-3.1664,-3.1664,-3.1664,-3.23,-3.3387,-3.23,-3.2314,-3.3387,-3.23,-3.1664,-3.188,-3.4274,-3.4003,-3.2267,-3.9503,-4.0427,-3.7408,-4.2408,-4.3541,-4.236,-4.2747,-4.3774,-4.5064,-4.6908,-4.7722,-4.7896,-4.8138,-4.8381,-4.8585,-4.8585,-4.8808,-4.8867,-4.8867,-4.8867,-4.8867,-4.8867,-4.8867,-4.8867,-4.8867,-4.8867,-4.8867,-4.8867,-4.8867,-4.8867,-4.8867,-4.8867,-4.8789,-4.8594,-4.834,-4.7969,-4.7363,-4.7051,-4.6758,-4.6348,-4.6308,-4.6387,-4.6621,-4.6816,-4.7207,-4.791,-4.8301,-4.8808,-4.9531,-4.9961,-5.0449,-5.1074,-5.0879,-5.0859,-5.1094,-5.0859,-5.0859,-5.1094,-5.1094,-5.1211,-5.1426,-5.1426,-5.1426,-2.1657,-2.2191,-2.2779,-2.338,-2.4209,-2.4917,-2.505,-2.5077,-2.4997,-2.4676,-2.497,-2.5331,-2.5464,-2.6146,-2.7068,-2.8217,-2.831,-2.8537,-2.9366,-2.9486,-2.9593,-2.9887,-3.0181,-3.0474,-3.0768,-3.1006,-3.1262,-3.1623,-3.1664,-3.1664,-3.1664,-3.1664,-3.1664,-3.1664,-3.1664,-3.1664,-3.1664,-3.1664,-3.1664,-3.1664,-3.1664,-3.1664,-3.1664,-3.1664,-3.1664,-3.1867,-3.3619,-3.3401,-3.211,-3.8292,-3.8657,-3.5748,-4.0134,-4.0341,-3.8808,-4.221,-4.3191,-4.3567,-4.6953,-4.8323,-4.8362,-4.8828,-4.8867,-4.8867,-4.8867,-4.8867,-4.8867,-4.8867,-4.8867,-4.8867,-4.8867,-4.8867,-4.8867,-4.8867,-4.8867,-4.8867,-4.8867,-4.8867,-4.8867,-4.8867,-4.8867,-4.8789,-4.8594,-4.8086,-4.7617,-4.7324,-4.6816,-4.6445,-4.6445,-4.6445,-4.6621,-4.7031,-4.7266,-4.7871,-4.9062,-4.8945,-4.9199,-5.0117,-5.0273,-5.0508,-5.0937,-5.0644,-5.0625,-5.0937,-5.0644,-5.0625,-5.0957,-5.0957,-5.1113,-5.1426,-5.1426,-5.1426,-2.2205,-2.2806,-2.3407,-2.3995,-2.4209,-2.4409,-2.4957,-2.5077,-2.5224,-2.5732,-2.5865,-2.6052,-2.66,-2.7201,-2.7642,-2.7749,-2.8217,-2.8791,-2.9392,-2.9486,-2.9593,-2.9887,-3.0181,-3.0474,-3.0768,-3.1006,-3.1262,-3.1623,-3.1664,-3.1664,-3.1664,-3.1664,-3.1664,-3.1664,-3.1664,-3.1664,-3.1664,-3.1664,-3.1664,-3.1664,-3.1664,-3.1664,-3.1664,-3.1664,-3.1664,-3.1677,-3.188,-3.188,-3.188,-3.4711,-3.5577,-3.5668,-3.8465,-3.8292,-3.6906,-4.1834,-4.242,-4.1585,-4.6592,-4.8566,-4.8848,-4.8848,-4.8867,-4.8867,-4.8867,-4.8867,-4.8867,-4.8867,-4.8867,-4.8867,-4.8867,-4.8867,-4.8867,-4.8867,-4.8867,-4.8867,-4.8867,-4.8867,-4.8867,-4.8867,-4.8867,-4.8613,-4.7812,-4.7949,-4.7754,-4.6582,-4.668,-4.6875,-4.6875,-4.6875,-4.7051,-4.748,-4.8242,-4.9082,-5.0,-5.041,-5.0488,-5.0195,-5.0547,-5.0957,-5.1367,-5.1367,-5.1367,-5.1387,-5.1367,-5.1367,-5.1387,-5.1387,-5.1406,-5.1426,-5.1426,-5.1426,-2.2044,-2.2859,-2.3701,-2.4102,-2.4609,-2.513,-2.5531,-2.5772,-2.6012,-2.6413,-2.6493,-2.656,-2.6787,-2.7615,-2.8203,-2.8003,-2.8484,-2.9018,-2.9419,-2.9633,-2.986,-3.0154,-3.0448,-3.0728,-3.0955,-3.1396,-3.1625,-3.165,-3.1664,-3.1664,-3.1664,-3.1664,-3.1664,-3.1664,-3.1664,-3.1664,-3.1664,-3.1664,-3.1664,-3.1664,-3.1664,-3.1664,-3.1664,-3.1664,-3.1664,-3.1664,-3.1664,-3.1664,-3.188,-3.4274,-3.4522,-3.34,-3.4653,-3.4773,-3.483,-3.995,-4.1403,-4.1724,-4.689,-4.8828,-4.8867,-4.8867,-4.8867,-4.8867,-4.8867,-4.8867,-4.8867,-4.8867,-4.8867,-4.8867,-4.8867,-4.8867,-4.8867,-4.8867,-4.8867,-4.8867,-4.8867,-4.8867,-4.8867,-4.8867,-4.8867,-4.8672,-4.8066,-4.7891,-4.7656,-4.7168,-4.7012,-4.7129,-4.7656,-4.75,-4.7598,-4.8301,-4.916,-4.959,-4.9375,-5.0488,-5.0898,-5.0215,-5.0566,-5.0879,-5.1035,-5.1035,-5.1172,-5.1426,-5.1426,-5.1426,-5.1426,-5.1426,-5.1426,-5.1426,-5.1426,-5.1426,-2.2098,-2.2558,-2.3246,-2.4369,-2.4997,-2.5531,-2.6106,-2.6386,-2.6694,-2.7268,-2.7228,-2.7094,-2.7094,-2.7696,-2.8203,-2.8283,-2.8711,-2.9179,-2.9566,-2.9873,-3.01,-3.0402,-3.0621,-3.0929,-3.1195,-3.141,-3.1664,-3.1664,-3.1664,-3.1664,-3.1664,-3.1664,-3.1664,-3.1664,-3.1664,-3.1664,-3.1664,-3.1664,-3.1664,-3.1664,-3.1664,-3.1664,-3.1664,-3.1664,-3.1664,-3.1664,-3.1664,-3.1664,-3.188,-3.3605,-3.3611,-3.2498,-3.2643,-3.2947,-3.3654,-3.8966,-4.0917,-4.1943,-4.7132,-4.8867,-4.8867,-4.8867,-4.8867,-4.8867,-4.8867,-4.8867,-4.8867,-4.8867,-4.8867,-4.8867,-4.8867,-4.8867,-4.8867,-4.8867,-4.8867,-4.8867,-4.8867,-4.8867,-4.8867,-4.8867,-4.8867,-4.8672,-4.8105,-4.7773,-4.7539,-4.7402,-4.7129,-4.7285,-4.8281,-4.8228,-4.8267,-4.9256,-4.9866,-4.9993,-4.9441,-5.0738,-5.1149,-5.0356,-5.082,-5.0996,-5.0996,-5.0996,-5.1133,-5.1426,-5.1426,-5.1426,-5.1426,-5.1426,-5.1426,-5.1426,-5.1426,-5.1426,-2.2362,-2.2119,-2.1869,-2.4736,-2.5304,-2.5398,-2.656,-2.6827,-2.7161,-2.835,-2.8123,-2.7709,-2.7696,-2.7468,-2.7575,-2.8457,-2.8858,-2.9245,-2.9833,-3.0167,-3.0442,-3.0366,-3.0832,-3.1222,-3.1232,-3.1531,-3.1664,-3.1664,-3.1664,-3.1664,-3.1664,-3.1664,-3.1664,-3.1664,-3.1664,-3.1664,-3.1664,-3.1664,-3.1664,-3.1664,-3.1664,-3.1664,-3.1664,-3.1664,-3.1664,-3.1664,-3.1664,-3.1664,-3.1677,-3.2097,-3.2372,-3.296,-3.296,-3.3187,-3.4082,-3.9197,-4.1144,-4.1943,-4.7132,-4.8867,-4.8867,-4.8867,-4.8867,-4.8867,-4.8867,-4.8867,-4.8867,-4.8867,-4.8867,-4.8867,-4.8867,-4.8867,-4.8867,-4.8867,-4.8867,-4.8867,-4.8867,-4.8867,-4.8867,-4.8867,-4.8867,-4.8594,-4.7734,-4.7598,-4.7441,-4.7012,-4.6953,-4.7422,-4.8691,-4.8901,-4.9247,-5.0046,-5.0106,-5.0309,-5.0765,-5.1164,-5.1296,-5.0862,-5.1173,-5.1426,-5.1426,-5.1426,-5.1426,-5.1426,-5.1426,-5.1426,-5.1426,-5.1426,-5.1426,-5.1426,-5.1426,-5.1426,-2.0306,-2.1973,-2.3705,-2.3054,-2.4649,-2.6453,-2.7014,-2.7134,-2.7348,-2.8123,-2.831,-2.8203,-2.7776,-2.815,-2.8537,-2.8591,-2.9032,-2.9486,-2.986,-3.0167,-3.0408,-3.0724,-3.106,-3.1369,-3.1584,-3.157,-3.1664,-3.1664,-3.1664,-3.1664,-3.1664,-3.1664,-3.1664,-3.1664,-3.1664,-3.1664,-3.1664,-3.1664,-3.1664,-3.1664,-3.1664,-3.1664,-3.1664,-3.1664,-3.1664,-3.1664,-3.1664,-3.1867,-3.1961,-3.2545,-3.2868,-3.296,-3.3187,-3.34,-3.4082,-3.9212,-4.1144,-4.1943,-4.7132,-4.8867,-4.8867,-4.8867,-4.8867,-4.8867,-4.8867,-4.8867,-4.8867,-4.8867,-4.8867,-4.8867,-4.8867,-4.8867,-4.8867,-4.8867,-4.8867,-4.8867,-4.8867,-4.8867,-4.8867,-4.8867,-4.8867,-4.8672,-4.8125,-4.8281,-4.8437,-4.8301,-4.8555,-4.8945,-4.9659,-5.0039,-5.0267,-5.0205,-5.037,-5.0563,-5.043,-5.1091,-5.1247,-5.084,-5.1211,-5.1308,-5.0996,-5.1269,-5.1426,-5.1426,-5.1426,-5.1426,-5.1426,-5.1426,-5.1426,-5.1426,-5.1426,-5.1426,-2.1695,-2.3078,-2.4528,-2.4397,-2.5698,-2.7108,-2.7522,-2.7709,-2.7869,-2.8096,-2.839,-2.8497,-2.8123,-2.8511,-2.8885,-2.8951,-2.9259,-2.9619,-3.0034,-3.0341,-3.0635,-3.0875,-3.1156,-3.141,-3.165,-3.1664,-3.1664,-3.1664,-3.1664,-3.1664,-3.1664,-3.1664,-3.1664,-3.1664,-3.1664,-3.1664,-3.1664,-3.1664,-3.1664,-3.1664,-3.1664,-3.1664,-3.1664,-3.1664,-3.1664,-3.1677,-3.1867,-3.2135,-3.2425,-3.2895,-3.2973,-3.3187,-3.34,-3.3414,-3.3868,-3.8044,-3.9723,-4.0327,-4.4488,-4.6427,-4.7373,-4.7373,-4.81,-4.8867,-4.8867,-4.8867,-4.8867,-4.8867,-4.8867,-4.8867,-4.8867,-4.8867,-4.8867,-4.8867,-4.8867,-4.8867,-4.8867,-4.8867,-4.8867,-4.8867,-4.8828,-4.8527,-4.8496,-4.8604,-4.8838,-4.911,-4.964,-4.9973,-5.0151,-5.0566,-5.0552,-5.0248,-5.0625,-5.0613,-5.0395,-5.1113,-5.1289,-5.0976,-5.125,-5.1308,-5.1074,-5.1289,-5.1426,-5.1426,-5.1426,-5.1426,-5.1426,-5.1426,-5.1426,-5.1426,-5.1426,-5.1426,-2.4596,-2.4773,-2.4601,-2.7161,-2.7655,-2.7495,-2.8056,-2.8377,-2.8484,-2.8203,-2.839,-2.8604,-2.8604,-2.8644,-2.8858,-2.9392,-2.9499,-2.9726,-3.0274,-3.0608,-3.0875,-3.1089,-3.1436,-3.1664,-3.1664,-3.1664,-3.1664,-3.1664,-3.1664,-3.1664,-3.1664,-3.1664,-3.1664,-3.1664,-3.1664,-3.1664,-3.1664,-3.1664,-3.1664,-3.1664,-3.1664,-3.1677,-3.1677,-3.1677,-3.1677,-3.1677,-3.2001,-3.2438,-3.296,-3.2973,-3.3187,-3.3414,-3.3414,-3.3414,-3.3654,-3.6392,-3.7327,-3.7739,-4.0646,-4.2988,-4.5056,-4.5298,-4.6909,-4.8867,-4.8867,-4.8867,-4.8867,-4.8867,-4.8867,-4.8867,-4.8867,-4.8867,-4.8867,-4.8867,-4.8867,-4.8867,-4.8867,-4.8867,-4.8867,-4.8867,-4.8604,-4.8362,-4.8769,-4.8582,-4.8627,-4.9629,-5.0299,-5.0743,-5.0404,-5.0581,-5.0746,-5.0377,-5.0668,-5.0901,-5.0901,-5.1192,-5.1426,-5.1426,-5.1426,-5.1426,-5.1426,-5.1426,-5.1426,-5.1426,-5.1426,-5.1426,-5.1426,-5.1426,-5.1426,-5.1426,-5.1426,-5.1426,-2.1586,-2.3329,-2.5358,-2.4715,-2.6349,-2.8056,-2.843,-2.8377,-2.823,-2.8163,-2.839,-2.8604,-2.8604,-2.8978,-2.9339,-2.9459,-2.9673,-2.9953,-3.0314,-3.0608,-3.0889,-3.1169,-3.1476,-3.1664,-3.1664,-3.1664,-3.1664,-3.1664,-3.1664,-3.1664,-3.1664,-3.1664,-3.1664,-3.1664,-3.1664,-3.1664,-3.1664,-3.1664,-3.1664,-3.1664,-3.1664,-3.1867,-3.2083,-3.1867,-3.1867,-3.2137,-3.2625,-3.2948,-3.296,-3.3187,-3.34,-3.3414,-3.3414,-3.3414,-3.3654,-3.6392,-3.7288,-3.7855,-4.2573,-4.4505,-4.5399,-4.7347,-4.8381,-4.8867,-4.8867,-4.8867,-4.8867,-4.8867,-4.8867,-4.8867,-4.8867,-4.8867,-4.8867,-4.8867,-4.8867,-4.8867,-4.8867,-4.8867,-4.8867,-4.8867,-4.9091,-4.9138,-4.893,-4.959,-5.0483,-5.084,-5.1074,-5.1326,-5.1149,-5.126,-5.12,-5.1076,-5.1192,-5.1212,-5.1212,-5.1426,-5.1426,-5.1426,-5.1426,-5.1426,-5.1426,-5.1426,-5.1426,-5.1426,-5.1426,-5.1426,-5.1426,-5.1426,-5.1426,-5.1426,-5.1426,-5.1426,-2.3019,-2.4661,-2.6348,-2.5916,-2.7004,-2.819,-2.835,-2.8377,-2.8364,-2.8364,-2.8604,-2.8858,-2.9005,-2.9392,-2.9686,-2.9686,-2.994,-3.0234,-3.0528,-3.0822,-3.1102,-3.1396,-3.157,-3.1664,-3.1664,-3.1664,-3.1664,-3.1664,-3.1664,-3.1664,-3.1664,-3.1664,-3.1664,-3.1664,-3.1664,-3.1664,-3.1664,-3.1664,-3.1677,-3.188,-3.188,-3.1971,-3.227,-3.2149,-3.2203,-3.2532,-3.2921,-3.2973,-3.3187,-3.34,-3.3414,-3.3414,-3.3414,-3.3414,-3.3627,-3.4993,-3.5463,-3.592,-3.849,-4.1145,-4.3365,-4.4702,-4.689,-4.8867,-4.8867,-4.8867,-4.8867,-4.8867,-4.8867,-4.8867,-4.8867,-4.8867,-4.8867,-4.8867,-4.8867,-4.8867,-4.8867,-4.9071,-4.911,-4.911,-4.9334,-4.9472,-4.9581,-5.0195,-5.0937,-5.1367,-5.1426,-5.1406,-5.1173,-5.1184,-5.1237,-5.1095,-5.1212,-5.1426,-5.1426,-5.1426,-5.1426,-5.1426,-5.1426,-5.1426,-5.1426,-5.1426,-5.1426,-5.1426,-5.1426,-5.1426,-5.1426,-5.1426,-5.1426,-5.1426,-5.1426,-5.1426,-2.5157,-2.6213,-2.6934,-2.803,-2.8217,-2.8177,-2.827,-2.8457,-2.8617,-2.8671,-2.8911,-2.9192,-2.9446,-2.9726,-2.9913,-2.9913,-3.0167,-3.0461,-3.0755,-3.1036,-3.133,-3.1637,-3.1664,-3.1664,-3.1664,-3.1664,-3.1664,-3.1664,-3.1664,-3.1664,-3.1664,-3.1664,-3.1664,-3.1664,-3.1664,-3.1664,-3.1664,-3.1664,-3.188,-3.2097,-3.2286,-3.2465,-3.2694,-3.2633,-3.2922,-3.296,-3.2973,-3.3187,-3.3414,-3.3414,-3.3414,-3.3414,-3.3414,-3.3414,-3.3414,-3.3414,-3.3414,-3.3627,-3.4337,-3.7627,-4.134,-4.2099,-4.5446,-4.8867,-4.8867,-4.8867,-4.8867,-4.8867,-4.8867,-4.8867,-4.8867,-4.8867,-4.8867,-4.8867,-4.8867,-4.9071,-4.9071,-4.9315,-4.9452,-4.9708,-4.9561,-4.9875,-5.03,-5.0707,-5.092,-5.1426,-5.1426,-5.1212,-5.094,-5.1192,-5.1212,-5.092,-5.1192,-5.1426,-5.1426,-5.1426,-5.1426,-5.1426,-5.1426,-5.1426,-5.1426,-5.1426,-5.1426,-5.1426,-5.1426,-5.1426,-5.1426,-5.1426,-5.1426,-5.1426,-5.1426,-5.1426,-2.31,-2.4676,-2.6533,-2.8444,-2.8524,-2.8283,-2.8804,-2.8764,-2.8684,-2.8938,-2.9219,-2.9432,-2.9472,-2.9726,-2.9913,-2.9913,-3.0167,-3.0461,-3.0755,-3.1036,-3.133,-3.1637,-3.1664,-3.1664,-3.1664,-3.1664,-3.1664,-3.1664,-3.1664,-3.1664,-3.1664,-3.1664,-3.1664,-3.1664,-3.1664,-3.1664,-3.1664,-3.1664,-3.188,-3.211,-3.2692,-3.2815,-3.296,-3.324,-3.3253,-3.296,-3.3187,-3.3414,-3.3414,-3.3414,-3.3414,-3.3414,-3.3414,-3.3414,-3.3414,-3.3414,-3.3414,-3.4095,-3.8505,-4.0674,-4.2014,-4.6429,-4.8342,-4.8867,-4.8867,-4.8867,-4.8867,-4.8867,-4.8867,-4.8867,-4.8867,-4.8867,-4.8867,-4.8867,-4.911,-4.9354,-4.9354,-4.9374,-4.9561,-5.0031,-5.0089,-5.0414,-5.1156,-5.0968,-5.092,-5.1426,-5.1426,-5.1426,-5.1406,-5.1426,-5.1426,-5.1406,-5.1426,-5.1426,-5.1426,-5.1426,-5.1426,-5.1426,-5.1426,-5.1426,-5.1426,-5.1426,-5.1426,-5.1426,-5.1426,-5.1426,-5.1426,-5.1426,-5.1426,-5.1426,-5.1426,-5.1426,-2.3581,-2.513,-2.6573,-2.815,-2.8337,-2.8217,-2.847,-2.8698,-2.8885,-2.9018,-2.9406,-2.9726,-2.9726,-2.9833,-2.9967,-3.014,-3.0408,-3.0702,-3.0996,-3.1289,-3.1517,-3.165,-3.1664,-3.1664,-3.1664,-3.1664,-3.1664,-3.1664,-3.1664,-3.1664,-3.1664,-3.1664,-3.1664,-3.1664,-3.1664,-3.1664,-3.1664,-3.188,-3.2203,-3.2652,-3.2948,-3.3187,-3.3187,-3.34,-3.34,-3.3187,-3.34,-3.3414,-3.3414,-3.3414,-3.3414,-3.3414,-3.3414,-3.3414,-3.3414,-3.3414,-3.3414,-3.3654,-3.5949,-3.8688,-4.1481,-4.3909,-4.663,-4.8867,-4.8867,-4.8867,-4.8867,-4.8867,-4.8867,-4.8867,-4.8867,-4.8867,-4.8867,-4.911,-4.9354,-4.961,-5.0098,-5.0273,-5.0297,-5.0785,-5.0668,-5.0688,-5.1217,-5.1169,-5.092,-5.1426,-5.1426,-5.1426,-5.1426,-5.1426,-5.1426,-5.1426,-5.1426,-5.1426,-5.1426,-5.1426,-5.1426,-5.1426,-5.1426,-5.1426,-5.1426,-5.1426,-5.1426,-5.1426,-5.1426,-5.1426,-5.1426,-5.1426,-5.1426,-5.1426,-5.1426,-5.1426,-2.4022,-2.5224,-2.6079,-2.7549,-2.7923,-2.7976,-2.8203,-2.8671,-2.9045,-2.9045,-2.9513,-2.9913,-2.9913,-2.9913,-3.0007,-3.0314,-3.0608,-3.0889,-3.1183,-3.1476,-3.1664,-3.1664,-3.1664,-3.1664,-3.1664,-3.1664,-3.1664,-3.1664,-3.1664,-3.1664,-3.1664,-3.1664,-3.1664,-3.1664,-3.1664,-3.1664,-3.1664,-3.2097,-3.2471,-3.296,-3.32,-3.3414,-3.3414,-3.3414,-3.3414,-3.3414,-3.3414,-3.3414,-3.3414,-3.3414,-3.3414,-3.3414,-3.3414,-3.3414,-3.3414,-3.3414,-3.3414,-3.3427,-3.4109,-3.7298,-4.1356,-4.1931,-4.5225,-4.8867,-4.8867,-4.8867,-4.8867,-4.8867,-4.8867,-4.8867,-4.8867,-4.9071,-4.9091,-4.9354,-4.9669,-5.0091,-5.0649,-5.092,-5.0959,-5.1426,-5.1173,-5.0959,-5.1426,-5.1173,-5.0959,-5.1426,-5.1426,-5.1426,-5.1426,-5.1426,-5.1426,-5.1426,-5.1426,-5.1426,-5.1426,-5.1426,-5.1426,-5.1426,-5.1426,-5.1426,-5.1426,-5.1426,-5.1426,-5.1426,-5.1426,-5.1426,-5.1426,-5.1426,-5.1426,-5.1426,-5.1426,-5.1426,-2.334,-2.3875,-2.4449,-2.6747,-2.7308,-2.7535,-2.839,-2.8818,-2.9045,-2.9045,-2.9513,-2.9913,-2.9913,-2.9913,-3.0007,-3.0314,-3.0608,-3.0889,-3.1183,-3.1476,-3.1664,-3.1664,-3.1664,-3.1664,-3.1664,-3.1664,-3.1664,-3.1664,-3.1664,-3.1664,-3.1664,-3.1664,-3.1664,-3.1664,-3.1664,-3.1664,-3.1664,-3.2314,-3.2692,-3.296,-3.32,-3.3414,-3.3414,-3.3414,-3.3414,-3.3414,-3.3414,-3.3414,-3.3414,-3.3414,-3.3414,-3.3414,-3.3414,-3.3414,-3.3414,-3.3414,-3.3414,-3.3654,-3.6178,-3.8905,-4.157,-4.4079,-4.6649,-4.8867,-4.8867,-4.8867,-4.8867,-4.8867,-4.8867,-4.8867,-4.8867,-4.911,-4.9558,-4.9558,-5.0117,-5.0804,-5.0881,-5.1153,-5.1426,-5.1426,-5.1426,-5.1426,-5.1426,-5.1426,-5.1426,-5.1426,-5.1426,-5.1426,-5.1426,-5.1426,-5.1426,-5.1426,-5.1426,-5.1426,-5.1426,-5.1426,-5.1426,-5.1426,-5.1426,-5.1426,-5.1426,-5.1426,-5.1426,-5.1426,-5.1426,-5.1426,-5.1426,-5.1426,-5.1426,-5.1426,-5.1426,-5.1426,-2.306,-2.3621,-2.4195,-2.5985,-2.6854,-2.7348,-2.7669,-2.8564,-2.9272,-2.9085,-2.9513,-2.9913,-2.9913,-3.0074,-3.0301,-3.0595,-3.0889,-3.1169,-3.1476,-3.1597,-3.1664,-3.1664,-3.1664,-3.1664,-3.1664,-3.1664,-3.1664,-3.1664,-3.1664,-3.1664,-3.1664,-3.1664,-3.1664,-3.1664,-3.1664,-3.188,-3.23,-3.2425,-3.2775,-3.32,-3.34,-3.3414,-3.3414,-3.3414,-3.3414,-3.3414,-3.3414,-3.3414,-3.3414,-3.3414,-3.3414,-3.3414,-3.3414,-3.3414,-3.3414,-3.3414,-3.3414,-3.3627,-3.4537,-3.7569,-4.1254,-4.2261,-4.5446,-4.8867,-4.8867,-4.8867,-4.8867,-4.8867,-4.8867,-4.8867,-4.8867,-4.911,-4.9629,-5.0234,-5.0494,-5.092,-5.1173,-5.1212,-5.1426,-5.1426,-5.1426,-5.1426,-5.1426,-5.1426,-5.1426,-5.1426,-5.1426,-5.1426,-5.1426,-5.1426,-5.1426,-5.1426,-5.1426,-5.1426,-5.1426,-5.1426,-5.1426,-5.1426,-5.1426,-5.1426,-5.1426,-5.1426,-5.1426,-5.1426,-5.1426,-5.1426,-5.1426,-5.1426,-5.1426,-5.1426,-5.1426,-5.1426,-2.2552,-2.3166,-2.3794,-2.517,-2.6026,-2.668,-2.7281,-2.8257,-2.9058,-2.9165,-2.9579,-2.9913,-2.9913,-3.0234,-3.0568,-3.0755,-3.1036,-3.133,-3.1623,-3.1664,-3.1664,-3.1664,-3.1664,-3.1664,-3.1664,-3.1664,-3.1664,-3.1664,-3.1664,-3.1664,-3.1664,-3.1664,-3.1664,-3.1664,-3.1664,-3.2083,-3.2531,-3.2602,-3.2947,-3.3414,-3.3414,-3.3414,-3.3414,-3.3414,-3.3414,-3.3414,-3.3414,-3.3414,-3.3414,-3.3414,-3.3414,-3.3414,-3.3414,-3.3414,-3.3414,-3.3414,-3.3414,-3.3627,-3.4337,-3.7554,-4.1238,-4.2244,-4.5446,-4.8867,-4.8867,-4.8867,-4.8867,-4.8867,-4.8867,-4.8867,-4.9091,-4.9522,-5.011,-5.0679,-5.0764,-5.092,-5.1173,-5.1212,-5.1426,-5.1426,-5.1426,-5.1426,-5.1426,-5.1426,-5.1426,-5.1426,-5.1426,-5.1426,-5.1426,-5.1426,-5.1426,-5.1426,-5.1426,-5.1426,-5.1426,-5.1426,-5.1426,-5.1426,-5.1426,-5.1426,-5.1426,-5.1426,-5.1426,-5.1426,-5.1426,-5.1426,-5.1426,-5.1426,-5.1426,-5.1426,-5.1426,-5.1426,0.0,0.0,0.0,-2.4289,-2.4836,-2.5531,-2.7228,-2.7883,-2.8377,-2.9259,-2.9673,-2.9887,-2.9913,-3.0394,-3.0795,-3.0795,-3.1049,-3.1343,-3.1623,-3.1664,-3.1664,-3.1664,-3.1664,-3.1664,-3.1664,-3.1664,-3.1664,-3.1664,-3.1664,-3.1664,-3.1664,-3.1664,-3.1664,-3.1664,-3.1677,-3.2083,-3.2531,-3.2602,-3.2947,-3.3414,-3.3414,-3.3414,-3.3414,-3.3414,-3.3414,-3.3414,-3.3414,-3.3414,-3.3414,-3.3414,-3.3414,-3.3414,-3.3414,-3.3414,-3.3414,-3.3414,-3.3414,-3.3854,-3.6392,-3.8936,-4.1619,-4.4133,-4.6687,-4.8867,-4.8867,-4.8867,-4.8867,-4.8867,-4.8867,-4.9091,-4.9413,-5.0137,-5.0706,-5.081,-5.0732,-5.0881,-5.0843,-5.1114,-5.1387,-5.1426,-5.1426,-5.1426,-5.1426,-5.1426,-5.1426,-5.1426,-5.1426,-5.1426,-5.1426,-5.1426,-5.1426,-5.1426,-5.1426,-5.1426,-5.1426,-5.1426,-5.1426,-5.1426,-5.1426,-5.1426,-5.1426,-5.1426,-5.1426,-5.1426,-5.1426,-5.1426,-5.1426,-5.1426,-5.1426,-5.1426,-5.1426,-5.1426,-2.1189,0.0,0.0,0.0,0.0,0.0,-2.5692,-2.6694,-2.7696,-2.8377,-2.8751,-2.9165,-2.9793,-3.0394,-3.0795,-3.0795,-3.1209,-3.157,-3.1664,-3.1664,-3.1664,-3.1664,-3.1664,-3.1664,-3.1664,-3.1664,-3.1664,-3.1664,-3.1664,-3.1664,-3.1664,-3.1664,-3.1664,-3.1664,-3.188,-3.211,-3.2531,-3.2826,-3.2973,-3.3414,-3.3414,-3.3414,-3.3414,-3.3414,-3.3414,-3.3414,-3.3414,-3.3414,-3.3414,-3.3414,-3.3414,-3.3414,-3.3414,-3.3414,-3.3414,-3.3414,-3.3414,-3.3854,-3.6392,-3.894,-4.1646,-4.4245,-4.6687,-4.8867,-4.8867,-4.9091,-4.9315,-4.9071,-4.9334,-4.9894,-5.0391,-5.0156,-5.0012,-5.0566,-5.0571,-5.0359,-5.0813,-5.0842,-5.0952,-5.0939,-5.1192,-5.1426,-5.1426,-5.1426,-5.1426,-5.1426,-5.1426,-5.1426,-5.1426,-5.1426,-5.1426,-5.1426,-5.1426,-5.1426,-5.1426,-5.1426,-5.1426,-5.1426,-5.1426,-5.1426,-5.1426,-5.1426,-5.1426,-5.1426,-5.1426,-5.1426,-5.1426,-5.1426,-5.1426,-5.1426,-5.1426,-5.1426,-2.0763,-2.163,-2.2311,-2.2913,0.0,0.0,-2.5745,-2.656,-2.7428,-2.8631,-2.9032,-2.9312,-2.982,-3.0301,-3.0608,-3.0608,-3.1102,-3.153,-3.165,-3.1664,-3.1664,-3.1664,-3.1664,-3.1664,-3.1664,-3.1664,-3.1664,-3.1664,-3.1664,-3.1664,-3.1664,-3.1664,-3.1664,-3.1664,-3.1894,-3.2327,-3.2606,-3.2855,-3.3173,-3.3414,-3.3414,-3.3414,-3.3414,-3.3414,-3.3414,-3.3414,-3.3414,-3.3414,-3.3414,-3.3414,-3.3414,-3.3414,-3.3414,-3.3414,-3.3414,-3.3414,-3.3414,-3.3854,-3.6392,-3.8311,-4.0142,-4.3808,-4.5964,-4.7411,-4.8585,-4.911,-4.9472,-4.8988,-4.9428,-5.0,-5.0502,-5.0156,-4.9928,-5.0436,-5.0377,-5.0306,-5.055,-5.0663,-5.0771,-5.0998,-5.1192,-5.1426,-5.1426,-5.1426,-5.1426,-5.1426,-5.1426,-5.1426,-5.1426,-5.1426,-5.1426,-5.1426,-5.1426,-5.1426,-5.1426,-5.1426,-5.1426,-5.1426,-5.1426,-5.1426,-5.1426,-5.1426,-5.1426,-5.1426,-5.1426,-5.1426,-5.1426,-5.1426,-5.1426,-5.1426,-5.1426,-5.1426,-2.0628,-2.1777,-2.2592,-2.31,-2.3354,0.0,-2.636,-2.672,-2.7134,-2.9072,-2.9472,-2.9513,-2.9646,-2.9913,-3.0114,-3.0114,-3.0662,-3.1209,-3.157,-3.165,-3.1664,-3.1664,-3.1664,-3.1664,-3.1664,-3.1664,-3.1664,-3.1664,-3.1664,-3.1664,-3.1664,-3.1664,-3.1677,-3.1677,-3.2083,-3.2238,-3.2707,-3.296,-3.3187,-3.3414,-3.3414,-3.3414,-3.3414,-3.3414,-3.3414,-3.3414,-3.3414,-3.3414,-3.3414,-3.3414,-3.3414,-3.3414,-3.3414,-3.3414,-3.3414,-3.3414,-3.3414,-3.3854,-3.6392,-3.7311,-3.8036,-4.3041,-4.4743,-4.5446,-4.7838,-4.8867,-4.9424,-4.9186,-4.9257,-4.9742,-5.0072,-5.0156,-5.0125,-5.0185,-5.0208,-5.0146,-5.0119,-5.0581,-5.092,-5.1406,-5.1426,-5.1426,-5.1426,-5.1426,-5.1426,-5.1426,-5.1426,-5.1426,-5.1426,-5.1426,-5.1426,-5.1426,-5.1426,-5.1426,-5.1426,-5.1426,-5.1426,-5.1426,-5.1426,-5.1426,-5.1426,-5.1426,-5.1426,-5.1426,-5.1426,-5.1426,-5.1426,-5.1426,-5.1426,-5.1426,-5.1426,-5.1426,-2.0708,-2.1924,-2.2752,-2.2632,-2.35,0.0,-2.4449,-2.477,-2.5384,-2.6493,-2.6734,-2.7014,-2.7963,-2.8377,-2.8577,-2.8577,-2.9472,-3.0434,-3.1209,-3.1517,-3.1664,-3.1664,-3.1664,-3.1664,-3.1664,-3.1664,-3.1664,-3.1664,-3.1664,-3.1664,-3.1664,-3.1664,-3.1867,-3.2083,-3.2314,-3.2665,-3.2947,-3.3187,-3.34,-3.3414,-3.3414,-3.3414,-3.3414,-3.3414,-3.3414,-3.3414,-3.3414,-3.3414,-3.3414,-3.3414,-3.3414,-3.3414,-3.3414,-3.3414,-3.3414,-3.3414,-3.3414,-3.3854,-3.6392,-3.7303,-3.7901,-4.0948,-4.3296,-4.5003,-4.5668,-4.7596,-4.9637,-4.9787,-5.0083,-5.0243,-5.0544,-5.0404,-5.0282,-5.02,-5.0119,-5.0218,-5.0145,-5.0455,-5.092,-5.1406,-5.1426,-5.1426,-5.1426,-5.1426,-5.1426,-5.1426,-5.1426,-5.1426,-5.1426,-5.1426,-5.1426,-5.1426,-5.1426,-5.1426,-5.1426,-5.1426,-5.1426,-5.1426,-5.1426,-5.1426,-5.1426,-5.1426,-5.1426,-5.1426,-5.1426,-5.1426,-5.1426,-5.1426,-5.1426,-5.1426,-5.1426,-5.1426,-2.0941,-2.1857,-2.2686,-2.2832,-2.3313,0.0,0.0,-2.4863,-2.5224,-2.656,-2.6707,-2.6881,-2.7762,-2.7802,-2.7802,-2.8096,-2.9018,-2.9833,-2.9832,-3.0876,-3.1664,-3.1664,-3.1664,-3.1664,-3.1664,-3.1664,-3.1664,-3.1664,-3.1664,-3.1664,-3.1664,-3.1664,-3.1867,-3.2097,-3.2445,-3.2812,-3.296,-3.32,-3.3414,-3.3414,-3.3414,-3.3414,-3.3414,-3.3414,-3.3414,-3.3414,-3.3414,-3.3414,-3.3414,-3.3414,-3.3414,-3.3414,-3.3414,-3.3414,-3.3414,-3.3414,-3.3414,-3.3627,-3.4993,-3.5249,-3.5934,-3.9922,-4.2047,-4.3522,-4.6355,-4.8381,-5.0,-5.0397,-5.0385,-5.0365,-5.0653,-5.03,-4.9761,-4.9787,-5.0066,-5.0298,-5.0282,-5.0668,-5.1173,-5.1426,-5.1426,-5.1426,-5.1426,-5.1426,-5.1426,-5.1426,-5.1426,-5.1426,-5.1426,-5.1426,-5.1426,-5.1426,-5.1426,-5.1426,-5.1426,-5.1426,-5.1426,-5.1426,-5.1426,-5.1426,-5.1426,-5.1426,-5.1426,-5.1426,-5.1426,-5.1426,-5.1426,-5.1426,-5.1426,-5.1426,-5.1426,-5.1426,-2.1424,-2.2138,-2.2846,-2.3233,-2.326,-2.3594,0.0,0.0,0.0,-2.672,-2.6881,-2.6921,-2.7455,-2.7215,-2.7068,-2.7482,-2.8364,-2.8765,-2.8299,-2.9792,-3.1075,-3.1191,-3.1894,-3.23,-3.165,-3.146,-3.165,-3.1664,-3.146,-3.146,-3.1664,-3.1664,-3.1867,-3.2097,-3.2366,-3.2733,-3.296,-3.32,-3.3414,-3.3414,-3.3414,-3.3414,-3.3414,-3.3414,-3.3414,-3.3414,-3.3414,-3.3414,-3.3414,-3.3414,-3.3414,-3.3414,-3.3414,-3.3414,-3.3414,-3.3414,-3.3414,-3.3414,-3.3414,-3.3414,-3.4095,-3.8274,-4.0363,-4.234,-4.7913,-4.9855,-5.0424,-5.0667,-5.0659,-5.0427,-5.0591,-5.0166,-4.9588,-4.9669,-4.9862,-5.0298,-5.0301,-5.092,-5.1426,-5.1426,-5.1426,-5.1426,-5.1426,-5.1426,-5.1426,-5.1426,-5.1426,-5.1426,-5.1426,-5.1426,-5.1426,-5.1426,-5.1426,-5.1426,-5.1426,-5.1426,-5.1426,-5.1426,-5.1426,-5.1426,-5.1426,-5.1426,-5.1426,-5.1426,-5.1426,-5.1426,-5.1426,-5.1426,-5.1426,-5.1426,-5.1426,-5.1426,-2.3027,-2.3527,-2.3888,-2.3447,-2.3888,-2.4289,-2.3754,0.0,-2.4048,-2.4502,0.0,-2.5037,-2.5371,0.0,0.0,-2.5464,-2.6109,-2.6698,-2.6685,-2.7695,-2.8719,-2.9155,-3.2966,-3.4274,-3.1231,-3.0825,-3.1028,-3.1664,-3.1015,-3.0812,-3.1664,-3.1664,-3.1867,-3.2097,-3.2366,-3.2733,-3.296,-3.32,-3.3414,-3.3414,-3.3414,-3.3414,-3.3414,-3.3414,-3.3414,-3.3414,-3.3414,-3.3414,-3.3414,-3.3414,-3.3414,-3.3414,-3.3414,-3.3414,-3.3414,-3.3414,-3.3414,-3.3414,-3.3414,-3.3414,-3.3427,-3.4095,-3.773,-4.2772,-4.7982,-5.0078,-5.069,-5.0416,-5.0765,-5.1172,-5.0377,-5.0273,-5.0099,-5.0126,-5.0106,-5.0318,-5.0571,-5.1153,-5.1426,-5.1426,-5.1426,-5.1426,-5.1426,-5.1426,-5.1426,-5.1426,-5.1426,-5.1426,-5.1426,-5.1426,-5.1426,-5.1426,-5.1426,-5.1426,-5.1426,-5.1426,-5.1426,-5.1426,-5.1426,-5.1426,-5.1426,-5.1426,-5.1426,-5.1426,-5.1426,-5.1426,-5.1426,-5.1426,-5.1426,-5.1426,-5.1426,-5.1426,-2.1402,-2.2112,-2.2815,-2.3443,-2.4115,-2.4489,-2.3955,-2.3928,-2.4155,-2.4623,0.0,0.0,0.0,0.0,0.0,0.0,-2.5918,-2.6384,-2.6175,-2.7529,-2.8597,-2.8744,-3.0411,-3.1277,-3.0632,-3.1832,-3.313,-3.4345,-3.3014,-3.2748,-3.4055,-3.2545,-3.1867,-3.2097,-3.2364,-3.2719,-3.296,-3.32,-3.3414,-3.3414,-3.3414,-3.3414,-3.3414,-3.3414,-3.3414,-3.3414,-3.3414,-3.3414,-3.3414,-3.3414,-3.3414,-3.3414,-3.3414,-3.3414,-3.3414,-3.3414,-3.3414,-3.3414,-3.3414,-3.3414,-3.3868,-3.6865,-4.0819,-4.5038,-4.8399,-5.0185,-5.1027,-5.0707,-5.0706,-5.092,-5.0396,-5.0156,-5.0086,-4.9578,-5.0082,-5.0547,-5.0494,-5.094,-5.1426,-5.1426,-5.1426,-5.1426,-5.1426,-5.1426,-5.1426,-5.1426,-5.1426,-5.1426,-5.1426,-5.1426,-5.1426,-5.1426,-5.1426,-5.1426,-5.1426,-5.1426,-5.1426,-5.1426,-5.1426,-5.1426,-5.1426,-5.1426,-5.1426,-5.1426,-5.1426,-5.1426,-5.1426,-5.1426,-5.1426,-5.1426,-5.1426,-5.1426,-2.0524,-2.123,-2.2109,-2.351,-2.4088,-2.4302,-2.3915,-2.3968,-2.4209,-2.4636,-2.4743,0.0,0.0,0.0,-2.4917,-2.5232,0.0,-2.5963,-2.5785,-2.6872,-2.7826,-2.8016,-2.8578,-2.986,-3.181,-3.3084,-3.4576,-3.6585,-3.5015,-3.4537,-3.6011,-3.4041,-3.2545,-3.2083,-3.2327,-3.2665,-3.2947,-3.3187,-3.3414,-3.3414,-3.3414,-3.3414,-3.3414,-3.3414,-3.3414,-3.3414,-3.3414,-3.3414,-3.3414,-3.3414,-3.3414,-3.3414,-3.3414,-3.3414,-3.3414,-3.3414,-3.3414,-3.3414,-3.3414,-3.3414,-3.4095,-3.872,-4.2454,-4.5742,-4.7902,-4.9893,-5.1173,-5.092,-5.0901,-5.0591,-5.0108,-5.0051,-4.9981,-4.9433,-4.9908,-5.0609,-5.0552,-5.094,-5.1426,-5.1426,-5.1426,-5.1426,-5.1426,-5.1426,-5.1426,-5.1426,-5.1426,-5.1426,-5.1426,-5.1426,-5.1426,-5.1426,-5.1426,-5.1426,-5.1426,-5.1426,-5.1426,-5.1426,-5.1426,-5.1426,-5.1426,-5.1426,-5.1426,-5.1426,-5.1426,-5.1426,-5.1426,-5.1426,-5.1426,-5.1426,-5.1426,-5.1426,-2.1693,-2.1997,-2.2248,-2.3458,-2.3781,-2.3647,-2.3046,-2.3354,-2.3794,-2.3808,-2.4476,-2.4983,-2.4716,-2.489,-2.4983,-2.4716,-2.4985,0.0,0.0,-2.5423,-2.5766,-2.6453,-2.9148,-3.2383,-3.5336,-3.4509,-3.47,-3.7446,-3.6368,-3.5786,-3.5996,-3.5821,-3.4506,-3.1867,-3.2314,-3.2665,-3.2507,-3.3187,-3.3414,-3.3414,-3.3414,-3.3414,-3.3414,-3.3414,-3.3414,-3.3414,-3.3414,-3.3414,-3.3414,-3.3414,-3.3414,-3.3414,-3.3414,-3.3414,-3.3414,-3.3414,-3.3414,-3.3414,-3.3414,-3.3414,-3.3868,-3.6621,-3.9659,-4.2935,-4.5658,-4.8405,-5.0901,-5.0901,-5.0901,-5.0552,-4.9826,-4.9862,-5.0258,-5.0185,-5.0137,-5.0397,-5.1113,-5.1426,-5.1426,-5.1426,-5.1426,-5.1426,-5.1426,-5.1426,-5.1426,-5.1426,-5.1426,-5.1426,-5.1426,-5.1426,-5.1426,-5.1426,-5.1426,-5.1426,-5.1426,-5.1426,-5.1426,-5.1426,-5.1426,-5.1426,-5.1426,-5.1426,-5.1426,-5.1426,-5.1426,-5.1426,-5.1426,-5.1426,-5.1426,-5.1426,-5.1426,-5.1426,-2.021,-2.1312,-2.2069,-2.4379,-2.5358,-2.5424,-2.4062,-2.4209,-2.4583,-2.4382,-2.473,-2.4983,-2.469,-2.4716,-2.4756,-2.4649,-2.4649,-2.4903,0.0,-2.5257,-2.5531,-2.5838,-2.7748,-2.9464,-3.0112,-3.1766,-3.439,-3.8166,-3.7617,-3.82,-4.0713,-3.7789,-3.5382,-3.4055,-3.2952,-3.2445,-3.2507,-3.296,-3.3187,-3.3414,-3.3414,-3.3414,-3.3414,-3.3414,-3.3414,-3.3414,-3.3414,-3.3414,-3.3414,-3.3414,-3.3414,-3.3414,-3.3414,-3.3414,-3.3414,-3.3414,-3.3414,-3.3414,-3.3414,-3.3414,-3.3868,-3.6636,-3.9683,-4.2859,-4.5682,-4.8656,-5.1191,-5.0822,-5.0694,-5.0338,-4.9664,-4.9687,-4.9716,-4.9344,-4.9928,-5.0703,-5.0552,-5.094,-5.1426,-5.1426,-5.1426,-5.1426,-5.1426,-5.1426,-5.1426,-5.1426,-5.1426,-5.1426,-5.1426,-5.1426,-5.1426,-5.1426,-5.1426,-5.1426,-5.1426,-5.1426,-5.1426,-5.1426,-5.1426,-5.0648,-4.8869,-5.0416,-5.0648,-4.8869,-5.0435,-5.1426,-5.1426,-5.1426,-5.1426,-5.1426,-5.1426,-5.1426,-1.8452,-2.0314,-2.181,-2.4074,-2.5753,-2.6413,-2.4863,-2.497,-2.5304,-2.501,-2.5024,-2.5211,-2.5651,-2.513,-2.4797,-2.5147,-2.4972,-2.4903,0.0,-2.5596,-2.5701,-2.5644,-2.7186,-2.8388,-2.8386,-3.0648,-3.3888,-3.8372,-3.8512,-3.9573,-4.2162,-3.9205,-3.6668,-3.5572,-3.3387,-3.2243,-3.2353,-3.2762,-3.3173,-3.32,-3.34,-3.3414,-3.3414,-3.3414,-3.3414,-3.3414,-3.3414,-3.3414,-3.3414,-3.3414,-3.3414,-3.3414,-3.3414,-3.3414,-3.3414,-3.3414,-3.3414,-3.3414,-3.3414,-3.3414,-3.3868,-3.5706,-3.8575,-4.1639,-4.4402,-4.7387,-4.9914,-5.0365,-5.0563,-5.0325,-4.9471,-4.9461,-4.9598,-4.913,-4.9707,-5.0414,-5.03,-5.0901,-5.1192,-5.1426,-5.1426,-5.1426,-5.1426,-5.1426,-5.1426,-5.1426,-5.1426,-5.1426,-5.1426,-5.1426,-5.1426,-5.1426,-5.1426,-5.1426,-5.1426,-5.1426,-5.1426,-5.1426,-5.0435,-4.9158,-4.7387,-4.9065,-4.8631,-4.593,-4.8619,-4.9409,-4.86,-4.9409,-4.9541,-4.8601,-4.961,-5.0059]}]]